     2.11           OBSERVATION DATA    G (GPS)             RINEX VERSION / TYPE
teqc 2010Oct21 OPUS Account 20111026 20:39:34UTC            PGM / RUN BY / DATE
N 1523                                                      MARKER NAME
1193                                                        MARKER NUMBER
CSMIDDLETON NGS                                             OBSERVER / AGENCY
0220390627 TRIMBLE R7 2.32                                  REC # / TYPE / VERS
60124849 TRM41249.00 NONE                                   ANT # / TYPE
  -751089.3268 -5514580.6316  3105142.5606                  APPROX POSITION XYZ
        2.0010        0.0000        0.0000                  ANTENNA: DELTA H/E/N
     1     1                                                WAVELENGTH FACT L1/2
     5    L1    L2    C1    P1    P2                        # / TYPES OF OBSERV
    15                                                      LEAP SECONDS
  2011     8    10    17    11   30.0000000     GPS         TIME OF FIRST OBS
                                                            END OF HEADER
 11  8 10 17 11 30.0000000  0 11G03G06G07G16G10G11G13G19G23G08G28
    243215.82057    183103.59855  21397502.0394                   21397500.5164
    388790.44957    294563.91854  23258767.9384                   23258767.4804
   -773735.46958   -581934.32056  21581571.3984                   21581569.7974
    475933.67256    360476.68853  23908464.6644                   23908462.7344
    -14870.20356    -10830.59453  24000985.8444                   24000987.3404
   -977971.09056   -727687.75453  24205657.3834                   24205659.6094
   -139892.16858   -105523.87556  20009378.7584                   20009376.2074
   -399044.19558   -299629.04356  20861455.8914                   20861452.1254
    341134.21158    258840.59056  20904229.7584                   20904226.3554
   -774224.00857   -581477.75854  23434699.6954                   23434700.1454
   -750663.27056   -562976.72753  24068462.7114                   24068463.1334
 11  8 10 17 12  0.0000000  0 11G03G06G07G16G10G11G13G19G23G08G28
    273489.44147    206693.40245  21403263.1334                   21403261.0984
    435206.84847    330732.49644  23267600.8054                   23267600.1604
   -861398.16848   -650242.91846  21564889.2734                   21564887.5634
    531750.69146    403970.37143  23919086.9144                   23919084.4104
    -14679.38346    -10681.97744  24001023.3204                   24001024.1254
  -1090604.12146   -815453.57442  24184223.6024                   24184225.2544
   -152859.45348   -115628.27746  20006911.0084                   20006908.5514
   -441412.40248   -332643.23046  20853393.5394                   20853390.0634
    382589.32848    291143.22346  20912118.4384                   20912115.1484
   -878812.02347   -662974.87544  23414797.6644                   23414797.7974
   -851012.28146   -641170.69943  24049367.0004                   24049366.7584
 11  8 10 17 12 30.0000000  0 11G03G06G07G16G10G11G13G19G23G08G28
    304255.85947    230667.20345  21409117.8284                   21409115.9614
    481955.24246    367159.78944  23276496.7584                   23276496.5634
   -948995.81248   -718500.82446  21548220.0704                   21548218.8094
    587508.43046    447417.91443  23929696.9224                   23929695.3524
    -14138.70747    -10260.73444  24001126.1024                   24001126.9384
  -1203318.79346   -903283.05143  24162774.8444                   24162775.7544
   -165246.88348   -125280.85246  20004554.0634                   20004551.5864
   -483178.58248   -365188.31246  20845445.5164                   20845441.9454
    424483.96148    323788.32046  20920090.7894                   20920087.4574
   -983465.27047   -744522.83244  23394882.4384                   23394882.0664
   -951155.90647   -719204.68443  24030309.9774                   24030309.7384
 11  8 10 17 13  0.0000000  0 11G03G06G07G16G10G11G13G19G23G08G28
    335506.37547    255018.23845  21415064.7424                   21415062.8984
    529027.21546    403839.18444  23285454.2814                   23285453.4964
  -1036533.42248   -786711.95346  21531562.4144                   21531560.4024
    643199.57446    490813.52343  23940295.1884                   23940293.1334
    -13256.19547     -9573.15244  24001293.7274                   24001294.5984
  -1316118.49247   -991178.73043  24141309.1024                   24141310.0314
   -177060.85948   -134486.58647  20002306.2424                   20002303.8444
   -524348.28148   -397268.59846  20837611.3134                   20837607.3954
    466809.99648    356769.57846  20928145.2504                   20928141.5704
  -1088189.64546   -826126.23444  23374954.5634                   23374953.2424
  -1051100.41847   -797083.47744  24011291.1414                   24011291.0784
 11  8 10 17 13 30.0000000  0 11G03G06G07G16G10G11G13G19G23G08G28
    367238.71548    279744.71145  21421102.9924                   21421101.3834
    576420.23446    440768.77344  23294473.2114                   23294472.5124
  -1124009.90648   -854875.44146  21514916.1094                   21514914.2034
    698822.92646    534156.31343  23950878.8914                   23950877.1764
    -12034.50047     -8621.25443  24001526.4774                   24001527.6604
  -1429000.72347  -1079138.74243  24119829.0474                   24119829.7704
   -188301.69548   -143245.70746  20000167.2894                   20000164.7154
   -564920.63348   -428883.41846  20829890.4144                   20829886.7974
    509565.30948    390085.34846  20936281.4064                   20936277.8014
  -1192984.70747   -907784.67644  23355012.5164                   23355012.1094
  -1150845.43047   -874806.85244  23992310.2344                   23992309.9344
 11  8 10 17 14  0.0000000  0 11G03G06G07G16G10G11G13G19G23G08G28
    399447.44548    304842.39545  21427232.2114                   21427230.9654
    624129.30546    477944.64844  23303551.8524                   23303551.5904
  -1211427.02348   -922992.68046  21498281.0704                   21498279.1724
    754374.60946    577443.27743  23961450.8284                   23961449.1604
    -10478.69947     -7409.04344  24001822.6334                   24001823.2194
  -1541965.51247  -1167163.16843  24098332.3364                   24098333.4844
   -198972.36748   -151560.54346  19998136.3364                   19998133.6724
   -604898.55948   -460035.06246  20822283.0474                   20822279.4614
    552744.83248    423731.66846  20944498.2114                   20944494.8244
  -1297852.93047   -989500.13744  23335056.4924                   23335055.4494
  -1250393.74647   -952376.91844  23973366.9144                   23973366.8954
 11  8 10 17 14 30.0000000  0 11G03G06G07G16G10G11G13G19G23G08G28
    432128.80548    330308.34845  21433451.6254                   21433449.8674
    672150.12146    515363.41444  23312689.7894                   23312689.4884
  -1298785.11748   -991063.91446  21481657.5784                   21481655.5204
    809851.25046    620671.77044  23972007.8204                   23972006.2074
     -8592.84447     -5939.61343  24002181.3444                   24002182.2774
  -1655012.10546  -1255251.30143  24076820.6644                   24076821.2034
   -209074.95348   -159432.72746  19996213.8984                   19996211.9654
   -644283.27047   -490724.44946  20814788.0554                   20814784.4384
    596344.62548    457705.47346  20952795.2424                   20952791.8054
  -1402795.27047  -1071273.37944  23315086.9774                   23315085.8874
  -1349747.07847  -1029795.05143  23954459.9304                   23954460.4414
 11  8 10 17 15  0.0000000  0 11G03G06G07G16G10G11G13G19G23G08G28
    465278.41048    356139.17245  21439759.1884                   21439758.2974
    720478.08646    553021.52344  23321885.6484                   23321885.6054
  -1386085.15248  -1059089.93746  21465044.9694                   21465042.8594
    865249.87546    663839.44944  23982550.5704                   23982548.7194
     -6380.88746     -4216.12544  24002602.5314                   24002603.6174
  -1768140.03547  -1343402.81243  24055292.3594                   24055293.6374
   -218611.66448   -166863.96146  19994399.1954                   19994396.9574
   -683076.27747   -520952.77346  20807405.8754                   20807402.7774
    640360.65648    492003.61346  20961170.9694                   20961167.8674
  -1507813.58247  -1153105.78944  23295102.7194                   23295101.3484
  -1448907.32047  -1107062.71944  23935590.3914                   23935590.4614
 11  8 10 17 15 30.0000000  0 11G03G06G07G16G10G11G13G19G23G08G28
    498888.99648    382329.21145  21446155.0474                   21446154.0084
    769106.15246    590913.48044  23331140.0864                   23331139.4304
  -1473330.65648  -1127073.42246  21448442.3984                   21448440.3634
    920564.37546    706941.58643  23993076.2194                   23993074.7584
     -3849.99647     -2244.09843  24003083.9144                   24003085.3444
  -1881351.15646  -1431619.18043  24033749.1724                   24033750.0984
   -227587.52748   -173858.17246  19992691.3984                   19992688.7424
   -721281.99248   -550723.47346  20800135.8914                   20800132.4534
    684785.92248    526620.64146  20969624.8134                   20969621.3634
  -1612912.09047  -1235000.69544  23275103.1724                   23275102.0744
  -1547879.19147  -1184183.60544  23916757.3204                   23916756.6604
 11  8 10 17 16  0.0000000  0 11G03G06G07G16G10G11G13G19G23G08G28
    532955.17247    408874.24645  21452637.8594                   21452636.3094
    818029.19546    629035.28944  23340449.9304                   23340449.6764
  -1560523.35948  -1195015.78146  21431850.3914                   21431848.3594
    975791.08646    749975.29744  24003585.1334                   24003583.6724
     -1005.30947       -27.53143  24003626.3134                   24003625.9494
  -1994645.56246  -1519900.40243  24012190.2584                   24012190.4614
   -236005.54348   -180417.69146  19991089.4614                   19991086.9534
   -758902.55147   -580038.19946  20792976.8284                   20792973.5634
    729615.64148    561552.82846  20978155.7584                   20978152.1764
  -1718093.07847  -1316959.87544  23255087.3524                   23255086.6134
  -1646665.09046  -1261159.59044  23897958.3984                   23897959.1644
 11  8 10 17 16 30.0000000  0 11G03G06G07G16G10G11G13G19G23G08G28
   2142890.76247   1663369.49245  21758998.6484                   21758997.1374
   2442660.19146   1894981.48444  23649607.1954                   23649606.5474
    -72241.96548    -35315.98446  21715060.9924                   21715058.3594
   2606344.02746   2020536.00844  24313869.6804                   24313867.7974
   1577567.66046   1230029.21543  24304018.2814                   24304019.0394
   -532599.77046   -380643.82843  24290408.0474                   24290408.6094
   1331551.14848   1041055.02746  20289385.4384                   20289383.2464
    779480.54747    618701.86746  21085721.4144                   21085718.1564
   2350263.12948   1824394.96146  21286555.2194                   21286551.7034
   -247935.05947   -171382.15644  23534849.6174                   23534848.8444
   -169844.73446   -110390.44943  24178987.3204                   24178987.9414
 11  8 10 17 17  0.0000000  0 11G03G06G07G16G10G11G13G19G23G08G28
   2177857.36747   1690616.16445  21765652.3674                   21765651.3244
   2492161.74246   1933554.07844  23659026.8914                   23659026.3954
   -159329.05948   -103176.06246  21698488.9454                   21698487.1454
   2661387.28946   2063426.78143  24324344.2424                   24324342.5744
   1581028.89546   1232726.21543  24304677.1644                   24304677.9774
   -646056.73446   -469051.77343  24268817.1024                   24268818.3094
   1324243.58248   1035360.78146  20287994.8754                   20287992.6484
    743026.99648    590296.50446  21078784.6724                   21078780.9884
   2395891.05548   1859949.12546  21295237.6174                   21295234.2034
   -353282.96547   -253471.41044  23514802.0314                   23514801.3714
   -268262.66846   -187079.69943  24160259.4454                   24160259.5904
 11  8 10 17 17 30.0000000  0 11G03G06G07G16G10G11G13G19G23G08G28
   2213273.74647   1718213.30145  21772391.6484                   21772390.6454
   2541952.12147   1972351.71544  23668501.8444                   23668500.6804
   -246358.50048   -170991.20746  21681928.1254                   21681925.8364
   2716340.38346   2106247.28543  24334801.0704                   24334799.5044
   1584797.85546   1235662.98843  24305393.6564                   24305395.7344
   -759587.80546   -557517.46543  24247213.0944                   24247214.7424
   1317493.78548   1030101.16846  20286710.2814                   20286707.9344
    707160.41847    562348.51646  21071959.5004                   21071955.8244
   2441917.82848   1895814.07046  21303996.3984                   21303992.6454
   -458710.85547   -335622.98044  23494740.0164                   23494739.2734
   -366493.38746   -263623.04943  24141566.8754                   24141566.6914
 11  8 10 17 18  0.0000000  0 11G03G06G07G16G10G11G13G19G23G08G28
   2249137.14847   1746158.77745  21779215.9384                   21779215.2934
   2592028.68046   2011372.35244  23678030.5084                   23678029.8634
   -333329.05148   -238760.46546  21665377.9304                   21665375.7424
   2771202.45346   2148996.87543  24345241.0784                   24345239.3874
   1588872.20346   1238837.71943  24306169.3594                   24306170.6134
   -873190.16046   -646038.72743  24225595.5004                   24225596.9884
   1311301.18448   1025275.73046  20285532.0004                   20285529.8794
    671881.32848    534858.31646  21065245.9454                   21065242.4304
   2488341.17648   1931988.03146  21312830.3284                   21312826.9144
   -564217.50047   -417835.90644  23474662.2034                   23474662.4804
   -464536.93746   -340020.57443  24122909.0704                   24122909.6914
 11  8 10 17 18 30.0000000  0 11G03G06G07G16G10G11G13G19G23G08G28
   2285437.85247   1774444.98845  21786123.8134                   21786122.9574
   2642381.31646   2050608.13744  23687613.1254                   23687612.4414
   -420246.95748   -306488.70346  21648838.0554                   21648835.7504
   2825964.01246   2191668.14543  24355661.1644                   24355659.5594
   1593241.93046   1242242.60943  24307000.2894                   24307001.9694
   -986868.94946   -734619.51243  24203963.0314                   24203964.5594
   1305657.84448   1020878.28946  20284458.2114                   20284455.4494
    637182.04748    507819.91846  21058642.9774                   21058639.3794
   2535151.26648   1968463.36346  21321738.2424                   21321734.8634
   -669810.23047   -500115.93044  23454569.3444                   23454568.2934
   -562400.80546   -416278.07443  24104285.9384                   24104286.6484
 11  8 10 17 19  0.0000000  0 11G03G06G07G16G10G11G13G19G23G08G28
   2322179.16447   1803074.55945  21793116.0234                   21793114.5664
   2693013.95747   2090062.11744  23697248.0394                   23697247.1764
   -507104.71948   -374170.07446  21632309.4304                   21632307.7194
   2880630.58246   2234265.41443  24366064.2114                   24366062.7734
   1597910.96946   1245880.71943  24307889.9064                   24307890.7074
  -1100615.05946   -823252.78943  24182317.9304                   24182319.6844
   1300569.70348   1016913.47746  20283489.9304                   20283487.3404
    603069.44148    481238.66446  21052151.7424                   21052147.6374
   2582351.95348   2005243.05146  21330719.8674                   21330716.4494
   -775482.46547   -582457.90644  23434460.2504                   23434459.6684
   -660078.82846   -492390.78543  24085699.1644                   24085698.9924
 11  8 10 17 19 30.0000000  0 11G03G06G07G16G10G11G13G19G23G08G28
   2359353.55148   1832041.57445  21800189.8594                   21800188.8444
   2743918.76646   2129728.13744  23706934.7504                   23706934.2584
   -593906.51648   -441807.83646  21615791.4534                   21615789.5004
   2935195.62146   2276783.56343  24376447.9304                   24376446.3484
   1602871.67246   1249746.12543  24308834.0944                   24308834.7974
  -1214430.91046   -911940.40643  24160658.9694                   24160660.5204
   1296030.67648   1013376.53946  20282626.2194                   20282623.3634
    569537.68448    455110.02746  21045770.8204                   21045767.7934
   2629935.76648   2042321.27746  21339775.0864                   21339771.6374
   -881238.54347   -664865.21944  23414335.8594                   23414334.5984
   -757576.06646   -568362.58243  24067145.5634                   24067145.9774
 11  8 10 17 20  0.0000000  0 11G03G06G07G16G10G11G13G19G23G08G28
   2396962.05148   1861346.86745  21807347.0084                   21807345.2584
   2795096.96947   2169607.23844  23716673.7814                   23716672.7584
   -680647.57048   -509398.27046  21599285.4064                   21599283.2664
   2989661.93046   2319224.79343  24386812.8054                   24386810.8014
   1608125.01646   1253839.54343  24309833.2894                   24309834.3404
  -1328310.23046  -1000677.46543  24138987.9924                   24138990.0204
   1292043.90648   1010269.94146  20281867.5944                   20281865.2854
    536591.00848    429437.28146  21039501.2894                   21039498.0084
   2677904.16848   2079699.17246  21348903.4064                   21348899.7304
   -987074.55147   -747334.80544  23394195.4384                   23394194.7034
   -854889.44546   -644191.18043  24048627.8984                   24048628.0824
 11  8 10 17 20 30.0000000  0 11G03G06G07G16G10G11G13G19G23G08G28
   2435003.75848   1890989.72345  21814585.8594                   21814584.5394
   2846547.48047   2209698.47344  23726464.4534                   23726463.4924
   -767325.04748   -576939.14546  21582791.4774                   21582788.8754
   3044029.67646   2361589.18843  24397158.6564                   24397156.7274
   1613670.53146   1258160.63743  24310888.3594                   24310889.7504
  -1442248.50446  -1089460.52043  24117306.8284                   24117308.2814
   1288610.17648   1007594.27346  20281214.0004                   20281211.5164
    504230.76247    404221.52046  21033343.1954                   21033339.4454
   2726256.20348   2117376.00446  21358104.3834                   21358100.9614
  -1092988.50847   -829865.14544  23374040.6334                   23374040.6804
   -952017.05147   -719874.99643  24030145.3914                   24030145.1094
 11  8 10 17 21  0.0000000  0 11G03G06G07G16G10G11G13G19G23G08G28
   2473475.75848   1920967.87145  21821907.2114                   21821905.2114
   2898267.50046   2249999.72344  23736306.6254                   23736306.0044
   -853937.90648   -644429.68446  21566309.3134                   21566307.3324
   3098297.50446   2403875.79343  24407485.4694                   24407483.1844
   1619505.34846   1262707.16843  24311999.2734                   24311999.6604
  -1556243.66846  -1178287.86743  24095613.4844                   24095615.5274
   1285728.81348   1005349.01646  20280665.7504                   20280663.4534
    472456.81348    379462.59846  21027296.9614                   21027293.2774
   2774989.39148   2155349.84046  21367377.9614                   21367374.7734
  -1198980.08647   -912455.95744  23353871.4384                   23353871.4694
  -1048959.61747   -795414.60243  24011697.7344                   24011697.3324
 11  8 10 17 21 30.0000000  0 11G03G06G07G16G10G11G13G19G23G08G28
   2512373.35248   1951277.64845  21829308.9384                   21829307.4454
   2950252.19546   2290507.24244  23746198.7584                   23746198.5594
   -940486.99248   -711870.52046  21549839.6094                   21549837.2814
   3152462.13746   2446081.98043  24417792.7664                   24417791.0354
   1625624.63746   1267475.32843  24313163.4384                   24313164.8444
  -1670295.48046  -1267159.32443  24073910.9304                   24073912.1684
   1283396.85548   1003531.87546  20280222.3054                   20280219.7664
    441266.97747    355158.83246  21021361.5784                   21021358.1294
   2824098.86748   2193616.89546  21376723.0474                   21376720.3594
  -1305050.98047   -995108.57844  23333686.8204                   23333685.4884
  -1145718.97347   -870811.44944  23993284.8914                   23993284.7704
 11  8 10 17 22  0.0000000  0 11G03G06G07G16G10G11G13G19G23G08G28
   2551689.51247   1981913.59045  21836790.6804                   21836789.1174
   3002495.02746   2331215.89144  23756139.9144                   23756140.0124
  -1026975.23448   -779263.94546  21533381.3054                   21533379.2074
   3206518.47746   2488203.74243  24428079.3674                   24428077.2664
   1632021.79746   1272460.08643  24314380.8134                   24314382.0634
  -1784405.06646  -1356075.80543  24052196.1094                   24052197.3444
   1281609.54348   1002139.13346  20279881.8284                   20279879.9024
    410657.17648    331307.03146  21015536.8134                   21015533.4884
   2873577.85248   2232171.86746  21386138.8364                   21386135.7304
  -1411204.23847  -1077825.38344  23313486.1414                   23313485.6844
  -1242299.35246   -946068.85243  23974905.5394                   23974906.2704
 11  8 10 17 22 30.0000000  0 11G03G06G07G16G10G11G13G19G23G08G28
   2591431.05947   2012881.00045  21844352.6484                   21844351.6374
   3055002.73846   2372130.91843  23766132.3054                   23766131.3794
  -1113392.06648   -846601.73846  21516936.5704                   21516934.5314
   3260474.62146   2530247.40243  24438347.0394                   24438345.3014
   1638703.45746   1277666.43043  24315652.4064                   24315654.0204
  -1898560.22746  -1445027.79743  24030472.9924                   24030474.6484
   1280375.18448   1001177.26246  20279647.2894                   20279644.9734
    380636.57848    307914.35946  21009824.1174                   21009820.6294
   2923433.59848   2271020.43446  21395626.2664                   21395623.0594
  -1517430.03547  -1160598.69544  23293272.3914                   23293271.6564
  -1338691.68447  -1021179.73844  23956563.3834                   23956562.7934
 11  8 10 17 23  0.0000000  0 11G03G06G07G16G10G11G13G19G23G08G28
   2631585.15647   2044169.87945  21851994.1024                   21851992.6994
   3107762.50446   2413242.36743  23776172.0164                   23776171.5314
  -1199746.53148   -913890.91846  21500504.2734                   21500501.8404
   3314319.18046   2572204.11743  24448593.5004                   24448591.5864
   1645656.99646   1283084.71143  24316975.5004                   24316977.1054
  -2012768.66446  -1534021.28143  24008740.2274                   24008740.9454
   1279682.64848   1000637.59046  20279515.3444                   20279513.1954
    351194.75448    284972.67246  21004221.4924                   21004217.7504
   2973653.51248   2310152.75845  21405183.0394                   21405179.5634
  -1623738.51647  -1243436.44144  23273042.3674                   23273041.8014
  -1434906.58647  -1096152.35544  23938253.6884                   23938253.5004
 11  8 10 17 23 30.0000000  0 11G03G06G07G16G10G11G13G19G23G08G28
   2672158.07847   2075785.10545  21859714.9614                   21859713.5394
   3160780.66446   2454555.15244  23786261.2894                   23786260.3444
  -1286028.35247   -981123.50846  21484084.9144                   21484082.6684
   3368059.84446   2614079.90243  24458819.2734                   24458817.1294
   1652889.09046   1288719.99243  24318352.3674                   24318354.0354
  -2127018.87146  -1623047.30943  23986998.9384                   23986999.4774
   1279540.40248   1000526.71546  20279488.2894                   20279486.1604
    322340.50447    262488.83646  20998730.8134                   20998727.0124
   3024244.05548   2349573.88346  21414809.9694                   21414806.7344
  -1730119.89147  -1326331.00044  23252798.2734                   23252798.6174
  -1530935.14146  -1170979.77743  23919980.2424                   23919980.1844
 11  8 10 17 24  0.0000000  0 11G03G06G07G16G10G11G13G19G23G08G28
   2713146.01247   2107723.72745  21867514.6094                   21867513.9224
   3214053.61746   2496066.47344  23796398.7114                   23796398.1604
  -1372237.70348  -1048299.60946  21467679.7194                   21467677.5704
   3421694.56646   2655873.12143  24469025.4534                   24469024.1764
   1660395.39146   1294568.98043  24319780.0004                   24319782.5394
  -2241308.89846  -1712104.33243  23965250.3284                   23965250.4384
   1279946.37948   1000843.03146  20279565.5554                   20279563.3794
    294072.71948    240461.99246  20993351.4064                   20993348.4884
   3075201.45748   2389280.87545  21424506.7584                   21424503.3364
  -1836574.77747  -1409282.81644  23232540.8754                   23232540.9144
  -1626778.33246  -1245662.73043  23901741.9064                   23901742.4024
 11  8 10 17 24 30.0000000  0 11G03G06G07G16G10G11G13G19G23G08G28
   2754539.38347   2139978.27045  21875391.6724                   21875390.5234
   3267572.07046   2537769.09843  23806583.1024                   23806583.2464
  -1458379.61748  -1115423.16846  21451287.7584                   21451285.4414
   3475215.98846   2697578.05543  24479210.4384                   24479209.6254
   1668167.12546   1300624.78943  24321259.9384                   24321261.3634
  -2355642.69546  -1801195.50443  23943493.0234                   23943493.3674
   1280893.24248   1001580.81646  20279745.7734                   20279743.3364
    266384.42648    218886.69146  20988082.8834                   20988078.9264
   3126516.45748   2429266.51645  21434271.7734                   21434268.3094
  -1943109.22347  -1492296.64844  23212267.6644                   23212267.8674
  -1722443.00846  -1320206.57044  23883537.9534                   23883537.3134
 11  8 10 17 25  0.0000000  0 11G03G06G07G16G10G11G13G19G23G08G28
   2796340.82047   2172550.78545  21883346.4454                   21883345.2664
   3321338.77746   2579665.19543  23816814.3444                   23816814.0044
  -1544447.70348  -1182489.20346  21434909.5554                   21434907.4614
   3528628.04346   2739197.74243  24489375.4064                   24489373.4454
   1676206.62546   1306889.19143  24322789.3834                   24322790.6374
  -2470012.66446  -1890314.82443  23921729.0234                   23921730.5314
   1282385.12548   1002743.29746  20280030.0634                   20280027.3444
    239280.34848    197766.63346  20982925.2504                   20982921.0314
   3178192.27048   2469533.30546  21444105.2584                   21444102.6054
  -2049717.14547  -1575367.71545  23191980.9614                   23191980.8324
  -1817924.16046  -1394607.43044  23865368.1564                   23865367.5434
 11  8 10 17 25 30.0000000  0 11G03G06G07G16G10G11G13G19G23G08G28
   2838551.17647   2205441.93445  21891378.5394                   21891377.7734
   3375354.48446   2621755.31244  23827093.4694                   23827092.4734
  -1630437.23048  -1249494.04746  21418546.5394                   21418544.1804
   3581932.85546   2780733.89843  24499518.5234                   24499517.3794
   1684514.86746   1313363.07843  24324370.5084                   24324371.8794
  -2584411.78546  -1979456.93043  23899959.5394                   23899960.2304
   1284424.69948   1004332.53946  20280417.8444                   20280415.4654
    212764.09048    177104.61746  20977879.0474                   20977875.2344
   3230229.46548   2510081.69145  21454007.6804                   21454004.1804
  -2156394.52747  -1658492.91044  23171681.2734                   23171679.9614
  -1913218.76446  -1468862.92243  23847232.9774                   23847233.5274
 11  8 10 17 26  0.0000000  0 11G03G06G07G16G10G11G13G19G23G08G28
   2881173.37147   2238653.99245  21899489.6174                   21899488.2304
   3429622.07846   2664041.66844  23837420.3204                   23837419.6524
  -1716341.41448  -1316432.37146  21402199.3674                   21402197.0044
   3635135.04346   2822190.09043  24509642.5084                   24509641.5744
   1693095.01646   1320048.81643  24326003.1094                   24326005.0514
  -2698832.70746  -2068615.94143  23878186.1094                   23878186.5394
   1287016.67648   1006352.22746  20280911.1094                   20280908.9304
    186840.60548    156904.50446  20972945.9614                   20972942.6724
   3282630.75448   2550913.77745  21463979.6094                   21463976.7894
  -2263135.50447  -1741667.66444  23151368.8674                   23151368.1134
  -2008321.27746  -1542968.71143  23829136.2034                   23829135.9024
 11  8 10 17 26 30.0000000  0 11G03G06G07G16G10G11G13G19G23G08G28
   2924196.66847   2272178.60945  21907676.3364                   21907675.7974
   3484131.00046   2706516.09843  23847793.4924                   23847791.9614
  -1802166.92248  -1383309.38346  21385867.2034                   21385864.8014
   3688225.64846   2863559.32843  24519745.7344                   24519744.5594
   1701936.41046   1326938.10243  24327686.0554                   24327686.7814
  -2813280.43746  -2157795.87143  23856407.1334                   23856407.9024
   1290152.00048   1008795.31346  20281507.8284                   20281505.5044
    161501.73048    137159.91846  20968124.4064                   20968120.6294
   3335385.93048   2592021.63345  21474018.5704                   21474015.4964
  -2369947.42647  -1824897.70344  23131042.9844                   23131042.5664
  -2103240.05146  -1616931.36343  23811074.0004                   23811074.3054
 11  8 10 17 27  0.0000000  0 11G03G06G07G16G10G11G13G19G23G08G28
   2967613.68047   2306010.00445  21915938.5704                   21915937.4264
   3538874.48046   2749173.31344  23858211.0084                   23858209.9774
  -1887916.44548  -1450127.19946  21369549.5394                   21369547.1604
   3741199.51246   2904837.57843  24529826.1174                   24529825.5234
   1711032.31346   1334025.73843  24329416.7974                   24329418.2664
  -2927756.33246  -2246997.71943  23834624.0084                   23834623.7814
   1293825.48048   1011657.72746  20282207.0944                   20282204.6644
    136742.84848    117867.27746  20963412.7584                   20963409.0004
   3388488.27048   2633399.99646  21484123.5234                   21484120.4494
  -2476833.55547  -1908185.55544  23110703.4454                   23110702.4304
  -2197979.39146  -1690754.16444  23793045.3984                   23793045.5594
 11  8 10 17 27 30.0000000  0 11G03G06G07G16G10G11G13G19G23G08G28
   3011426.57447   2340149.87545  21924276.1334                   21924274.7304
   3593854.63746   2792014.93844  23868672.4924                   23868672.1254
  -1973584.04748  -1516881.16446  21353247.5084                   21353245.3914
   3794060.27346   2946027.73044  24539885.4064                   24539884.2624
   1720384.46546   1341313.04343  24331197.2114                   24331197.9964
  -3042252.83246  -2336215.64243  23812835.6414                   23812835.3444
   1298040.65248   1014942.25046  20283009.1954                   20283007.3054
    112568.21547     99029.90246  20958812.2734                   20958808.7344
   3441939.95348   2675050.57845  21494295.1724                   21494292.2344
  -2583788.64147  -1991527.16044  23090350.4924                   23090349.6334
  -2292534.83646  -1764433.67243  23775052.3834                   23775052.3554
 11  8 10 17 28  0.0000000  0 11G03G06G07G16G10G11G13G19G23G08G28
   3055633.99247   2374597.16845  21932687.9454                   21932687.0664
   3649070.27347   2835040.05144  23879180.6644                   23879178.9184
  -2059167.31248  -1583569.42646  21336961.5234                   21336959.1024
   3846808.10546   2987129.84843  24549922.5554                   24549921.1804
   1729991.43446   1348798.89843  24333025.1414                   24333026.0824
  -3156765.95747  -2425446.48843  23791044.6564                   23791044.7074
   1302798.02748   1018649.27046  20283914.5864                   20283912.0314
     88978.70347     80648.45746  20954323.5634                   20954319.7974
   3495739.61748   2716972.31345  21504532.8524                   21504530.0984
  -2690810.70347  -2074920.93744  23069984.8984                   23069983.4304
  -2386905.40646  -1837969.12944  23757094.5944                   23757094.4064
 11  8 10 17 28 30.0000000  0 11G03G06G07G16G10G11G13G19G23G08G28
   3100234.63347   2409350.87545  21941175.3524                   21941174.2974
   3704519.98447   2878247.60544  23889731.6334                   23889731.1804
  -2144663.38747  -1650189.73446  21320692.4064                   21320689.8404
   3899443.61346   3028144.46143  24559939.7734                   24559938.0784
   1739852.34046   1356482.62143  24334901.5474                   24334903.1604
  -3271291.42246  -2514686.96543  23769250.3524                   23769251.2424
   1308097.85248   1022778.96546  20284923.0234                   20284920.7734
     65975.53947     62723.91846  20949946.0314                   20949942.5944
   3549886.11348   2759164.30945  21514836.8204                   21514833.8554
  -2797897.45747  -2158365.11744  23049607.2664                   23049606.2074
  -2481089.67646  -1911359.40644  23739171.6954                   23739171.2194
 11  8 10 17 29  0.0000000  0 11G03G06G07G16G10G11G13G19G23G08G28
   3145211.46547   2444397.71145  21949734.5084                   21949732.8954
   3760187.29346   2921624.65243  23900324.6174                   23900324.3714
  -2230084.96148  -1716752.00446  21304436.9144                   21304434.6294
   3951951.85546   3069059.91043  24569930.3364                   24569930.0704
   1749950.33246   1364351.10943  24336823.4534                   24336824.5204
  -3385840.68346  -2603945.95643  23747452.7814                   23747453.0044
   1313924.88348   1027319.48046  20286031.8054                   20286029.6174
     43544.10948     45244.88746  20945677.3134                   20945673.5864
   3604362.60948   2801613.43846  21525203.6414                   21525200.3204
  -2905062.60247  -2241870.41044  23029214.0634                   23029213.2274
  -2575102.10246  -1984615.81644  23721281.2274                   23721281.4884
 11  8 10 17 29 30.0000000  0 11G03G06G07G16G10G11G13G19G23G08G28
   3190563.61747   2479737.02045  21958364.9224                   21958363.1804
   3816071.38347   2965170.66444  23910959.9304                   23910958.8164
  -2315428.79348  -1783253.67646  21288196.7664                   21288194.4104
   4004333.46946   3109876.68443  24579899.2894                   24579898.3244
   1760284.56646   1372403.63743  24338789.6414                   24338790.9654
  -3500408.94146  -2693219.77744  23725650.3984                   23725650.9104
   1320279.75048   1032271.29346  20287240.9534                   20287238.8954
     21685.52048     28212.21546  20941518.0634                   20941514.6214
   3659168.37948   2844319.15245  21535632.6334                   21535629.7114
  -3012303.40247  -2325434.63744  23008806.4224                   23008805.7584
  -2668940.94547  -2057736.95344  23703424.8594                   23703424.6724
 11  8 10 17 30  0.0000000  0 11G03G06G07G16G10G11G13G19G23G08G28
   3236293.57847   2515370.71145  21967066.5944                   21967065.5314
   3872174.65646   3008887.43443  23921635.5554                   23921634.9064
  -2400688.43048  -1849689.75046  21271972.2034                   21271970.2894
   4056592.67246   3150598.06643  24589844.1254                   24589842.4574
   1770857.69546   1380642.35243  24340801.6724                   24340803.1764
  -3614988.21946  -2782502.20343  23703845.9384                   23703847.0274
   1327166.91048   1037637.88346  20288551.7504                   20288549.6214
       404.66848     11629.74246  20937468.3984                   20937464.7384
   3714306.27048   2887283.65245  21546125.1564                   21546121.5904
  -3119613.48047  -2409052.87144  22988386.6724                   22988384.9924
  -2762601.64547  -2130719.25444  23685601.7664                   23685601.5554
 11  8 10 17 30 30.0000000  0 11G03G06G07G16G10G11G13G19G23G08G28
   3282396.01647   2551294.64545  21975839.6484                   21975838.3404
   3928491.96146   3052770.98843  23932353.0554                   23932351.2544
  -2485865.11348  -1916061.19546  21255763.7114                   21255761.4264
   4108726.09846   3191221.45743  24599763.6254                   24599763.4144
   1781664.12946   1389062.85243  24342858.1174                   24342859.5124
  -3729578.39146  -2871793.08644  23682040.8134                   23682040.8164
   1334582.30948   1043416.09046  20289962.6564                   20289960.9884
    -20301.86747     -4505.22346  20933528.0314                   20933524.2384
   3769770.62548   2930502.55545  21556679.6334                   21556676.7464
  -3226995.35247  -2492727.01244  22967952.4224                   22967951.1414
  -2856086.69147  -2203564.68444  23667812.1414                   23667811.6764
 11  8 10 17 31  0.0000000  0 11G03G06G07G16G10G11G13G19G23G08G28
   3328862.66447   2587502.37144  21984682.2584                   21984680.5664
   3985015.71947   3096815.41843  23943108.9774                   23943108.0204
  -2570962.74648  -1982371.01646  21239570.2894                   21239567.8054
   4160727.28546   3231741.80143  24609659.2274                   24609657.9574
   1792696.21946   1397659.17643  24344957.4304                   24344959.4024
  -3844182.03546  -2961094.48843  23660231.8134                   23660232.6134
   1342519.32048   1049600.74246  20291473.3054                   20291471.0044
    -40439.68048    -20197.03146  20929696.0704                   20929692.2114
   3825553.76248   2973969.85245  21567295.1334                   21567291.7814
  -3334453.48047  -2576460.59844  22947503.7814                   22947502.7624
  -2949401.96547  -2276277.85244  23650054.8444                   23650054.2934
 11  8 10 17 31 30.0000000  0 11G03G06G07G16G10G11G13G19G23G08G28
   3375688.78147   2623990.21944  21993592.9144                   21993591.2584
   4041741.12146   3141016.96543  23953903.5394                   23953902.6334
  -2655981.75448  -2048619.59046  21223391.3054                   21223389.3204
   4212593.63746   3272157.05942  24619529.7974                   24619528.6954
   1803949.34046   1406427.76643  24347098.8134                   24347100.4884
  -3958798.00846  -3050405.50844  23638421.5784                   23638422.2114
   1350974.98448   1056189.53946  20293082.3054                   20293079.8324
    -60011.21148    -35447.57046  20925971.8984                   20925968.0944
   3881651.20348   3017682.05145  21577970.0314                   21577966.9884
  -3441988.93047  -2660254.43045  22927040.7814                   22927039.8714
  -3042549.66447  -2348860.42244  23632329.0784                   23632328.9774
 11  8 10 17 32  0.0000000  0 11G03G06G07G16G10G11G13G19G23G08G28
   3422872.78547   2660756.93444  22002571.8364                   22002570.2194
   4098666.93446   3185374.69143  23964735.9384                   23964735.7274
  -2740919.50848  -2114804.85246  21207228.5314                   21207226.5274
   4264325.32046   3312467.37543  24629373.8594                   24629373.0824
   1815421.99246   1415367.42243  24349282.0864                   24349283.8754
  -4073422.42647  -3139723.13343  23616609.2424                   23616609.4964
   1359949.13348   1063182.34446  20294789.9844                   20294787.6174
    -79015.96547    -50256.46546  20922355.3054                   20922351.7194
   3938061.39848   3061637.97345  21588704.5394                   21588701.4454
  -3549599.96547  -2744107.16445  22906563.0394                   22906561.9574
  -3135528.56247  -2421311.47744  23614635.5634                   23614635.5274
 11  8 10 17 32 30.0000000  0 11G03G06G07G16G10G11G13G19G23G08G28
   3470417.00847   2697804.32844  22011619.0864                   22011618.1254
   4155795.53546   3229890.42643  23975607.4454                   23975607.0084
  -2825769.54348  -2180921.77046  21191081.8284                   21191079.9104
   4315926.74646   3352676.24642  24639193.6414                   24639191.8244
   1827116.25846   1424479.70743  24351507.6334                   24351509.4064
  -4188047.25047  -3229041.05943  23594796.6804                   23594796.9264
   1369445.78148   1070582.28946  20296597.1094                   20296595.0164
    -97449.78548    -64620.48446  20918847.5004                   20918843.5824
   3994786.59048   3105839.34845  21599498.9064                   21599496.3754
  -3657280.52347  -2828014.08244  22886072.1884                   22886070.9654
  -3228334.30547  -2493627.57844  23596975.5704                   23596975.0704
 11  8 10 17 33  0.0000000  0 11G03G06G07G16G10G11G13G19G23G08G28
   3518315.81347   2735128.02344  22020734.0084                   22020732.6294
   4213121.62146   3274560.02743  23986515.7894                   23986516.0944
  -2910533.20348  -2246971.36746  21174952.0164                   21174949.9614
   4367394.03146   3392780.56642  24648987.6094                   24648986.3634
   1839026.74247   1433760.48843  24353774.1884                   24353776.1524
  -4302672.66447  -3318359.44944  23572984.4614                   23572984.0354
   1379460.95748   1078386.28946  20298502.7664                   20298500.8404
   -115315.82447    -78542.07446  20915447.6094                   20915444.2234
   4051821.50448   3150282.05145  21610352.5004                   21610349.7234
  -3765032.91447  -2911976.97345  22865567.0004                   22865566.3834
  -3320969.73047  -2565811.00044  23579347.4534                   23579346.6644
 11  8 10 17 33 30.0000000  0 11G03G06G07G16G10G11G13G19G23G08G28
   3566570.33247   2772728.89545  22029916.2504                   22029915.0944
   4270646.69146   3319384.67643  23997461.8984                   23997462.5274
  -2995205.13348  -2312949.46546  21158839.5084                   21158837.1914
   4418730.39146   3432782.85942  24658756.0944                   24658756.3284
   1851155.03146   1443210.99643  24356081.8364                   24356084.2154
  -4417291.53547  -3407672.74643  23551172.8284                   23551172.8954
   1389997.33648   1086596.41446  20300507.9304                   20300505.6374
   -132610.73048    -92018.62946  20912156.5634                   20912153.0474
   4109167.56648   3194967.20745  21621265.4534                   21621262.4384
  -3872851.58647  -2995991.50445  22845049.8834                   22845048.6954
  -3413431.22747  -2637858.87944  23561752.5234                   23561751.6484
 11  8 10 17 34  0.0000000  0 11G03G06G07G16G10G11G13G19G23G08G28
   3615173.87147   2810601.75845  22039165.5474                   22039164.3834
   4328364.11346   3364359.25043  24008445.1954                   24008446.0984
  -3079787.47748  -2378857.78146  21142743.7504                   21142742.1214
   4469931.41846   3472679.72742  24668499.5944                   24668499.2194
   1863494.43847   1452826.04344  24358431.2894                   24358432.2154
  -4531904.85947  -3496981.73443  23529362.5164                   23529363.3164
   1401049.80148   1095208.69146  20302611.1884                   20302608.8594
   -149339.47748   -105054.01246  20908972.9304                   20908969.8754
   4166818.11748   3239889.63345  21632236.0164                   21632232.8364
  -3980739.85247  -3080060.25445  22824519.4774                   22824518.5864
  -3505722.91047  -2709774.41843  23544189.9774                   23544189.6334
 11  8 10 17 34 30.0000000  0 11G03G06G07G16G10G11G13G19G23G08G28
   3664122.09047   2848743.18445  22048480.5084                   22048479.4534
   4386269.96546   3409480.59443  24019464.5164                   24019464.8444
  -3164280.55948  -2444696.54746  21126665.5474                   21126663.0314
   4520994.41446   3512469.00842  24678216.2504                   24678216.4964
   1876040.96546   1462602.47343  24360818.0864                   24360819.6414
  -4646511.03947  -3586285.19143  23507553.8054                   23507553.6844
   1412615.49648   1104220.88746  20304812.0634                   20304809.7704
   -165503.98048   -117649.73446  20905897.1954                   20905893.5664
   4224769.11748   3285046.17645  21643263.3204                   21643260.5554
  -4088698.41047  -3164183.78544  22803975.5394                   22803974.1524
  -3597846.49647  -2781559.02344  23526659.3524                   23526659.0234
 11  8 10 17 35  0.0000000  0 11G03G06G07G16G10G11G13G19G23G08G28
   3713403.80947   2887144.48845  22057858.2814                   22057857.3094
   4444353.10246   3454740.09843  24030518.4304                   24030517.7934
  -3248691.35248  -2510471.17646  21110602.7504                   21110600.3164
   4571909.98046   3552143.39542  24687905.7504                   24687905.0274
   1888782.93846   1472531.17243  24363243.4614                   24363244.2034
  -4761116.12147  -3675587.76243  23485744.7504                   23485744.9064
   1424684.38348   1113625.17246  20307108.8134                   20307106.9884
   -181113.76648   -129813.21546  20902926.6094                   20902922.8134
   4283009.17248   3330427.94545  21654346.4844                   21654343.2154
  -4196734.99647  -3248368.13344  22783416.4694                   22783416.0784
  -3689810.91047  -2853219.56243  23509158.8204                   23509158.6884
 11  8 10 17 35 30.0000000  0 11G03G06G07G16G10G11G13G19G23G08G28
   3763022.50047   2925808.35945  22067300.6724                   22067299.7664
   4502617.46147   3500140.85543  24041605.2664                   24041605.6094
  -3333011.75448  -2576175.37546  21094557.2114                   21094554.8164
   4622684.12146   3591707.57042  24697567.7894                   24697567.1994
   1901724.40246   1482615.34443  24365706.2194                   24365706.6484
  -4875710.65247  -3764882.14843  23463937.7194                   23463938.1994
   1437261.70748   1123425.64146  20309501.8914                   20309500.4774
   -196162.64148   -141539.61746  20900062.9534                   20900059.0514
   4341542.16448   3376037.98845  21665484.2734                   21665482.1214
  -4304841.89547  -3332607.23845  22762844.2734                   22762844.0944
  -3781609.96946  -2924751.26243  23491689.7734                   23491689.9774
 11  8 10 17 36  0.0000000  0 11G03G06G07G16G10G11G13G19G23G08G28
   3812981.10547   2964737.10244  22076807.6804                   22076806.3324
   4561065.99247   3545685.09443  24052727.6724                   24052727.1914
  -3417234.89548  -2641803.78946  21078529.6174                   21078527.6604
   4673321.08246   3631164.89143  24707203.5164                   24707202.2664
   1914867.88346   1492856.95343  24368206.7034                   24368209.1054
  -4990286.22747  -3854161.74243  23442135.4384                   23442134.6294
   1450351.39848   1133625.36746  20311993.2194                   20311991.2304
   -210646.39148   -152825.66446  20897306.6024                   20897302.9264
   4400370.58248   3421878.23045  21676679.4534                   21676676.5864
  -4413012.98847  -3416896.37944  22742260.5554                   22742259.6804
  -3873238.59847  -2996150.12543  23474253.8444                   23474252.7854
 11  8 10 17 36 30.0000000  0 11G03G06G07G16G10G11G13G19G23G08G28
   3863260.14147   3003915.51245  22086374.9224                   22086373.7154
   4619680.03547   3591358.30943  24063881.8754                   24063881.0704
  -3501375.37948  -2707367.79746  21062518.3594                   21062516.2814
   4723804.66446   3670502.66043  24716810.1954                   24716809.1094
   1928194.13356   1503240.68053  24370743.8754                   24370744.7304
  -5104855.81247  -3943436.67643  23420333.1804                   23420333.4534
   1463936.53148   1144211.14546  20314578.4144                   20314576.1564
   -224581.69548   -163684.35246  20894654.9924                   20894651.3324
   4459476.06348   3467934.36345  21687926.8754                   21687924.4304
  -4521263.16447  -3501247.14844  22721660.8754                   22721660.1994
  -3964713.01646  -3067428.83243  23456846.8594                   23456846.0634
 11  8 10 17 37  0.0000000  0 11G03G06G07G16G10G11G13G19G23G08G28
   3913863.18447   3043346.42245  22096004.4924                   22096002.9964
   4678462.82846   3637163.02044  24075068.0314                   24075067.0784
  -3585425.67648  -2772861.53546  21046524.1094                   21046522.3674
   4774139.61746   3709724.64843  24726388.9224                   24726388.1054
   1941707.89546   1513770.78143  24373314.3674                   24373315.7584
  -5219410.64147  -4032700.14143  23398533.9924                   23398534.0354
   1478021.01648   1155186.03146  20317258.7424                   20317256.2074
   -237963.84048   -174111.99246  20892108.4924                   20892104.8484
   4518861.72748   3514208.80945  21699227.9924                   21699225.3164
  -4629586.19147  -3585654.67644  22701048.0944                   22701046.4694
  -4056027.91847  -3138583.21944  23439470.3444                   23439469.5394
 11  8 10 17 37 30.0000000  0 11G03G06G07G16G10G11G13G19G23G08G28
   3964791.23047   3083030.56645  22105695.6884                   22105694.2504
   4737415.91046   3683100.40643  24086286.7424                   24086286.4454
  -3669380.35248  -2838280.75846  21030548.1024                   21030546.0514
   4824329.21546   3748833.30543  24735939.5554                   24735939.2034
   1955409.55146   1524447.27743  24375921.8674                   24375923.3634
  -5333943.59447  -4121946.57844  23376739.5474                   23376739.1684
   1492607.26248   1166551.89846  20320034.5704                   20320032.2464
   -250789.46148   -184106.00446  20889668.0474                   20889664.0314
   4578529.04748   3560702.73845  21710582.3134                   21710579.0824
  -4737976.48447  -3670114.60944  22680421.5944                   22680420.8914
  -4147179.74247  -3209610.54743  23422124.1094                   23422124.2774
 11  8 10 17 38  0.0000000  0 11G03G06G07G16G10G11G13G19G23G08G28
   4016033.11747   3122959.26244  22115446.8444                   22115446.0784
   4796528.65247   3729162.19943  24097535.0944                   24097534.4694
  -3753245.85548  -2903630.50046  21014589.2114                   21014586.5204
   4874364.64546   3787821.87143  24745461.6484                   24745460.4534
   1969288.45746   1535261.89543  24378563.6024                   24378564.7664
  -5448460.30947  -4211180.36743  23354947.5394                   23354947.8164
   1507686.18048   1178301.66846  20322903.9774                   20322901.5744
   -263067.55548   -193673.34046  20887331.0864                   20887327.6724
   4638466.83248   3607407.40245  21721988.0234                   21721985.4264
  -4846441.66447  -3754632.90245  22659781.4144                   22659780.6884
  -4238176.26246  -3280516.91044  23404808.2034                   23404808.0434
 11  8 10 17 38 30.0000000  0 10G03G06G07G10G11G13G19G23G08G28
   4067584.16047   3163128.85244  22125256.6024                   22125255.3714
   4855796.27346   3775344.68843  24108813.9614                   24108813.4494
  -3837023.01248  -2968911.40246  20998647.0784                   20998644.8054
   1983339.53546   1546210.68443  24381236.8524                   24381238.5704
  -5562959.94547  -4300400.82044  23333158.3284                   23333158.9884
   1523253.96148   1190432.37546  20325865.9924                   20325864.4654
   -274801.35548   -202816.57046  20885098.3594                   20885094.9454
   4698670.24648   3654319.06345  21733444.3674                   21733441.9884
  -4954983.03147  -3839210.58245  22639126.6884                   22639125.3874
  -4329020.84047  -3351304.85944  23387521.6804                   23387520.6214
 11  8 10 17 39  0.0000000  0 10G03G06G07G10G11G13G19G23G08G28
   5694860.48047   4431136.32844  22434917.4774                   22434915.8244
   6490634.99246   5049244.94543  24419913.2344                   24419912.1994
  -2345286.44148  -1806519.27046  21282515.0004                   21282512.8364
   3572980.13346   2784891.59043  24683735.8054                   24683736.5634
  -4102014.94547  -3162002.07843  23611167.1094                   23611167.2894
   3114729.64148   2430543.25046  20628714.3444                   20628711.8594
   1289429.35548   1016064.50846  21182761.7114                   21182757.6094
   6334555.30548   4929034.58245  22044743.4534                   22044740.5394
  -3488175.18747  -2696243.41445  22918250.8054                   22918250.1804
  -2844289.87147  -2194371.59044  23670056.5004                   23670055.5434
 11  8 10 17 39 30.0000000  0 10G03G06G07G10G11G13G19G23G08G28
   5747026.69947   4471785.27344  22444844.1254                   22444842.7704
   6550210.44946   5095667.29343  24431249.3914                   24431249.1134
  -2428876.20348  -1871654.15646  21266608.0784                   21266606.0514
   3587372.80946   2796106.55542  24686475.2504                   24686475.5984
  -4216465.73447  -3251184.49643  23589388.4064                   23589387.9184
   3131275.94948   2443436.44546  20631862.6804                   20631860.7584
   1278786.64147   1007771.48046  21180736.0554                   21180732.5664
   6395287.43448   4976358.22345  22056300.0704                   22056297.3284
  -3596859.99247  -2780932.85945  22897568.6884                   22897567.8674
  -2934825.62147  -2264918.86744  23652828.3444                   23652827.3134
 11  8 10 17 40  0.0000000  0 10G03G06G07G10G11G13G19G23G08G28
   5799486.55547   4512663.04344  22454826.7194                   22454825.5124
   6609926.65246   5142199.32443  24442613.6414                   24442612.8954
  -2512379.22348  -1936721.44546  21250718.0394                   21250716.0904
   3601922.87146   2807444.20343  24689243.4534                   24689244.9734
  -4330896.62947  -3340351.39144  23567612.6724                   23567612.8324
   3148299.68848   2456701.65246  20635102.0234                   20635099.8134
   1268678.76248    999895.21146  21178812.9924                   21178809.3204
   6456270.23448   5023877.18845  22067905.0314                   22067902.3754
  -3705624.44147  -2865684.37544  22876872.0474                   22876870.5314
  -3025216.56647  -2335353.31244  23635627.1174                   23635626.4304
 11  8 10 17 40 30.0000000  0 10G03G06G07G10G11G13G19G23G08G28
   5852252.35247   4553779.18844  22464868.3134                   22464866.4804
   6669796.00846   5188850.73843  24454006.5234                   24454005.2424
  -2595779.37148  -2001708.56646  21234847.4224                   21234845.2114
   3616642.31346   2818913.74643  24692044.5004                   24692045.9574
  -4445289.99247  -3429489.06643  23545844.4304                   23545844.4924
   3165814.39548   2470349.43846  20638435.1954                   20638433.0514
   1259119.66847    992446.55946  21176994.0164                   21176990.2504
   6517516.33648   5071601.32445  22079559.7814                   22079557.5044
  -3814452.23447  -2950485.24245  22856162.8594                   22856161.6564
  -3115448.75847  -2405664.07444  23618456.2114                   23618456.1804
 11  8 10 17 41  0.0000000  0 10G03G06G07G10G11G13G19G23G08G28
   5905308.30947   4595121.45344  22474963.9694                   22474963.0004
   6729802.80546   5235609.20343  24465425.0474                   24465425.1844
  -2679087.79748  -2066624.22746  21218994.4614                   21218992.2704
   3631515.64846   2830503.28143  24694874.8594                   24694876.5354
  -4559656.00047  -3518605.39844  23524080.9924                   23524081.3714
   3183805.54348   2484368.48046  20641858.9614                   20641856.9804
   1250095.30148    985414.58246  21175276.3054                   21175273.1294
   6579009.68048   5119518.10545  22091261.6254                   22091259.0784
  -3923355.84847  -3035345.16845  22835439.3674                   22835437.7704
  -3205535.37547  -2475861.36744  23601313.4844                   23601312.7464
 11  8 10 17 41 30.0000000  0 10G03G06G07G10G11G13G19G23G08G28
   5958641.45747   4636679.69544  22485112.5164                   22485111.8444
   6789934.53146   5282465.04343  24476867.8594                   24476867.7034
  -2762312.92648  -2131474.98046  21203157.3054                   21203154.9184
   3646530.16846   2842202.80943  24697732.1564                   24697734.1024
  -4674001.76647  -3607705.96544  23502321.7114                   23502322.2304
   3202261.38348   2498749.60546  20645370.7034                   20645368.7624
   1241594.23448    978790.35946  21173658.9144                   21173654.9224
   6640737.48847   5167617.60245  22103008.2894                   22103006.2154
  -4032344.05947  -3120271.03145  22814699.2974                   22814697.8204
  -3295486.41847  -2545953.03944  23584196.1564                   23584195.5744
 11  8 10 17 42  0.0000000  0 10G03G06G07G10G11G13G19G23G08G28
   6012250.26247   4678452.74644  22495314.4384                   22495313.4184
   6850189.97746   5329417.27743  24488334.1094                   24488334.5124
  -2845452.17648  -2196258.80146  21187336.1954                   21187334.2344
   3661684.30146   2854011.07443  24700616.8524                   24700617.6254
  -4788323.03147  -3696787.43444  23480567.0474                   23480567.1994
   3221181.56648   2513492.57046  20648971.3284                   20648969.3524
   1233616.67248    972574.08246  21172141.0864                   21172137.0514
   6702698.22348   5215898.57445  22114798.8984                   22114796.1524
  -4141414.63347  -3205261.06245  22793943.5084                   22793942.4804
  -3385301.32447  -2615938.64544  23567105.3284                   23567104.3834
 11  8 10 17 42 30.0000000  0 10G03G06G07G10G11G13G19G23G08G28
   6066133.27747   4720439.46544  22505568.0784                   22505567.0904
   6910568.10546   5376465.07843  24499824.0554                   24499824.0164
  -2928501.91848  -2260972.88346  21171532.7274                   21171530.5234
   3676976.72346   2865927.13343  24703525.9924                   24703527.2854
  -4902615.03547  -3785846.07844  23458817.8134                   23458818.0634
   3240565.98848   2528597.27746  20652660.0474                   20652658.0274
   1226163.23848    966766.20346  21170722.2664                   21170718.7274
   6764890.82448   5264360.23045  22126633.6564                   22126630.8954
  -4250564.80147  -3290313.12945  22773172.9614                   22773171.9494
  -3474978.95747  -2685817.26644  23550039.8054                   23550039.1524
 11  8 10 17 43  0.0000000  0 10G03G06G07G10G11G13G19G23G08G28
   6120293.25447   4762641.99244  22515874.5474                   22515873.6094
   6971072.34846   5423611.18043  24511338.0234                   24511337.4184
  -3011454.64848  -2325611.37946  21155747.2194                   21155744.6804
   3692410.75846   2877953.58242  24706463.0004                   24706464.8404
  -5016868.96947  -3874875.06244  23437076.0634                   23437075.6524
   3260418.80548   2544066.95746  20656437.8834                   20656435.7194
   1219238.62948    961370.39546  21169404.8914                   21169401.3444
   6827318.41048   5313005.00045  22138513.4304                   22138510.6604
  -4359787.62547  -3375421.79745  22752388.5704                   22752387.9804
  -3564513.86347  -2755584.65644  23533001.9224                   23533001.4574
 11  8 10 17 43 30.0000000  0 10G03G06G07G10G11G13G19G23G08G28
   6174728.79347   4805059.23844  22526232.8284                   22526232.0434
   7031701.24246   5470854.39843  24522874.5634                   24522874.7074
  -3094308.03148  -2390172.46946  21139980.6724                   21139978.4844
   3707984.47346   2890088.80943  24709427.1254                   24709428.5234
  -5131080.85947  -3963871.27044  23415342.4224                   23415342.0634
   3280739.16848   2559900.96946  20660304.8914                   20660302.6954
   1212842.67248    956386.52746  21168188.1024                   21168184.5234
   6889979.18048   5361831.47345  22150437.1414                   22150434.9494
  -4469081.30547  -3460585.69145  22731590.7424                   22731589.1604
  -3653905.79347  -2825240.66444  23515990.6414                   23515990.7274
 11  8 10 17 44  0.0000000  0 10G03G06G07G10G11G13G19G23G08G28
   6229424.43047   4847679.14844  22536641.2894                   22536639.9304
   7092439.81646   5518183.07043  24534433.1024                   24534433.2424
  -3177072.84448  -2454664.53946  21124231.1564                   21124228.8324
   3723682.77046   2902321.19143  24712414.2894                   24712416.0594
  -5245260.14847  -4052842.08244  23393614.6804                   23393614.9574
   3301512.97748   2576088.30146  20664258.2114                   20664255.9304
   1206961.57847    951803.84046  21167068.5164                   21167064.8954
   6952857.53948   5410827.48445  22162403.1174                   22162400.1604
  -4578457.05947  -3545813.53145  22710777.1954                   22710775.8794
  -3743167.46147  -2894795.16044  23499004.8444                   23499004.4574
 11  8 10 17 44 30.0000000  0 10G03G06G07G10G11G13G19G23G08G28
   6284371.17647   4890494.73044  22547097.6484                   22547096.3874
   7153279.71547   5565590.68043  24546011.0944                   24546010.8134
  -3259753.18048  -2519090.78146  21108497.4774                   21108494.9534
   3739497.07446   2914643.86343  24715423.5554                   24715425.7464
  -5359409.81647  -4141789.82444  23371892.5864                   23371892.4964
   3322732.65248   2592623.08646  20668295.6094                   20668294.0004
   1201588.23047    947616.80546  21166046.1644                   21166042.4694
   7015945.13748   5459986.52745  22174408.2424                   22174405.7734
  -4687919.52347  -3631108.94545  22689947.0164                   22689945.9344
  -3832304.82847  -2964252.80544  23482042.0864                   23482042.1684
 11  8 10 17 45  0.0000000  0 10G03G06G07G10G11G13G19G23G08G28
   6339569.47347   4933506.32044  22557600.5474                   22557600.6254
   7214221.18047   5613077.48044  24557607.4224                   24557607.7154
  -3342344.64148  -2583447.76646  21092781.0004                   21092778.9064
   3755427.13346   2927056.77743  24718454.9144                   24718457.5554
  -5473523.75447  -4230709.69144  23350177.5234                   23350177.1374
   3344399.44548   2609506.25046  20672419.1254                   20672417.0634
   1196724.34448    943826.75046  21165120.5084                   21165116.7934
   7079242.19547   5509308.80145  22186453.3594                   22186451.1334
  -4797465.05147  -3716469.06645  22669101.0864                   22669100.4414
  -3921315.81647  -3033611.95744  23465104.0864                   23465103.5204
 11  8 10 17 45 30.0000000  0 10G03G06G07G10G11G13G19G23G08G28
   6395016.51647   4976711.75844  22568152.9924                   22568151.6134
   7275261.83246   5660641.54743  24569222.4844                   24569223.5204
  -3424845.10548  -2647733.82846  21077081.6884                   21077078.9774
   3771470.50046   2939558.02042  24721508.4774                   24721510.7274
  -5587598.84047  -4319599.28944  23328469.7814                   23328469.3714
   3366511.75048   2626736.58246  20676626.6644                   20676624.8594
   1192368.75848    940432.76646  21164291.4844                   21164288.3284
   7142745.95747   5558792.12945  22198537.7114                   22198535.2734
  -4907091.78947  -3801892.48845  22648240.2424                   22648239.2664
  -4010200.64547  -3102872.82044  23448189.4774                   23448189.0704
 11  8 10 17 46  0.0000000  0 10G03G06G07G10G11G13G19G23G08G28
   6450706.59847   5020106.57444  22578750.5784                   22578749.6254
   7336396.97746   5708279.24643  24580857.0864                   24580857.1134
  -3507255.56648  -2711949.78146  21061399.3364                   21061396.7274
   3787622.25046   2952143.71943  24724582.3754                   24724584.1644
  -5701634.17247  -4408457.92244  23306769.2424                   23306769.2154
   3389065.25848   2644310.69946  20680918.8204                   20680916.6884
   1188517.82847    937432.03146  21163558.9694                   21163555.3794
   7206451.07048   5608432.35245  22210660.8594                   22210657.9184
  -5016801.12547  -3887380.27745  22627363.2344                   22627362.4024
  -4098962.06247  -3172037.50843  23431299.1414                   23431298.5744
 11  8 10 17 46 30.0000000  0 10G03G06G07G10G11G13G19G23G08G28
   6506642.09047   5063692.59844  22589394.9844                   22589393.8404
   7397628.99246   5755992.44143  24592508.6564                   24592509.4844
  -3589569.36748  -2776090.40246  21045735.5784                   21045733.1054
   3803884.50047   2964815.50843  24727676.9924                   24727679.1524
  -5815622.09847  -4497279.61344  23285077.9614                   23285078.0044
   3412062.94148   2662230.93446  20685294.9774                   20685292.8134
   1185175.00848    934827.21946  21162923.1024                   21162919.4804
   7270359.75047   5658231.21145  22222821.8444                   22222819.4614
  -5126586.84047  -3972927.58645  22606471.5314                   22606470.2854
  -4187595.71547  -3241102.66843  23414432.5474                   23414432.0474
 11  8 10 17 47  0.0000000  0 10G03G06G07G10G11G13G19G23G08G28
   6562810.71547   5107460.28544  22600083.1724                   22600082.6024
   7458945.64846   5803771.55943  24604177.9694                   24604177.5044
  -3671794.29348  -2840161.77046  21030088.9614                   21030086.2624
   3820244.68446   2977563.59043  24730789.5394                   24730792.5514
  -5929569.38747  -4586069.65644  23263394.5084                   23263395.2384
   3435493.62948   2680488.57446  20689753.4534                   20689751.7034
   1182329.26248    932609.74246  21162381.6094                   21162377.7344
   7334459.25447   5708178.76245  22235019.6024                   22235017.3134
  -5236457.78547  -4058541.29345  22585563.6174                   22585562.2704
  -4276111.58247  -3310076.07044  23397588.6174                   23397588.2304
 11  8 10 17 47 30.0000000  0 10G03G06G07G10G11G13G19G23G08G28
   6619207.48447   5151405.77744  22610815.0164                   22610814.5434
   7520342.87946   5851613.50043  24615860.4144                   24615860.9024
  -3753930.50048  -2904164.00446  21014458.4844                   21014456.2814
   3836698.20346   2990384.43043  24733920.4454                   24733923.4804
  -6043474.53547  -4674826.85944  23241719.3134                   23241718.9414
   3459353.37548   2699080.54346  20694294.4694                   20694292.3094
   1179977.77748    930777.40246  21161933.9694                   21161930.2074
   7398745.51647   5758271.81345  22247252.7584                   22247251.1724
  -5346414.37947  -4144221.74645  22564639.6804                   22564638.5944
  -4364512.27347  -3378959.67643  23380766.4064                   23380765.3324
 11  8 10 17 48  0.0000000  0 10G03G06G07G10G11G13G19G23G08G28
   6675830.55947   5195527.57844  22621590.5314                   22621589.6414
   7581819.23446   5899517.07043  24627559.4454                   24627559.9494
  -3835975.37148  -2968095.07846  20998846.2344                   20998844.0394
   3853243.33646   3003276.60943  24737069.9534                   24737071.4454
  -6157333.66847  -4763548.21544  23220052.8054                   23220052.3324
   3483641.38748   2718006.22346  20698916.1484                   20698914.0984
   1178120.14848    929329.88346  21161580.4774                   21161576.5984
   7463216.63747   5808508.91445  22259521.7034                   22259519.3714
  -5456454.21547  -4229967.05145  22543699.8674                   22543699.3244
  -4452796.80547  -3447752.79744  23363967.1724                   23363966.1374
 11  8 10 17 48 30.0000000  0 10G03G06G07G10G11G13G19G23G08G28
   6732678.64547   5239824.73444  22632408.7194                   22632407.7814
   7643373.46946   5947481.32443  24639272.8984                   24639273.1414
  -3917925.79747  -3031952.52346  20983251.6954                   20983248.9924
   3869878.67146   3016239.16043  24740234.7734                   24740238.0704
  -6271142.00047  -4852229.93744  23198395.7274                   23198395.2774
   3508357.23848   2737265.30546  20703619.0944                   20703617.5824
   1176755.93047    928266.85246  21161320.6334                   21161317.1954
   7527870.77047   5858888.65645  22271824.8984                   22271822.9924
  -5566574.71547  -4315775.20744  22522744.5234                   22522743.1764
  -4540964.55147  -3516454.88744  23347188.9224                   23347187.8284
 11  8 10 17 49  0.0000000  0 10G03G06G07G10G11G13G19G23G08G28
   6789741.62946   5284289.32844  22643266.4304                   22643266.4694
   7704995.73446   5995498.58643  24650999.6564                   24650999.0354
  -3999787.23848  -3095740.67246  20967673.8754                   20967671.3014
   3886594.21946   3029264.11343  24743416.0634                   24743418.5044
  -6384904.15647  -4940875.75844  23176746.8984                   23176746.7544
   3533491.62948   2756850.47346  20708402.2274                   20708400.3404
   1175876.61348    927581.63746  21161153.4224                   21161149.6214
   7592698.20347   5909403.39545  22284161.3984                   22284158.8404
  -5676782.15247  -4401651.13345  22501773.1414                   22501771.6884
  -4629023.46147  -3585072.21544  23330432.0314                   23330431.4184
 11  8 10 17 49 30.0000000  0 10G03G06G07G10G11G13G19G23G08G28
   6847025.17247   5328925.77344  22654167.6884                   22654167.2854
   7766692.18845   6043573.64842  24662738.9924                   24662739.4534
  -4081549.56248  -3159451.58646  20952114.8204                   20952112.2934
   3903395.78946   3042356.09043  24746614.0864                   24746615.8594
  -6498608.45347  -5029476.43444  23155109.7734                   23155109.8364
   3559051.22348   2776766.99246  20713266.0084                   20713264.1844
   1175489.47748    927279.94146  21161079.7734                   21161075.8324
   7657704.49247   5960057.51245  22296531.8364                   22296529.1174
  -5787066.64547  -4487587.09445  22480786.2114                   22480784.9414
  -4716965.34447  -3653598.31644  23313697.0474                   23313696.2544
 11  8 10 17 50  0.0000000  0 10G03G06G07G10G11G13G19G23G08G28
   6904524.14547   5373730.07444  22665109.6254                   22665108.7034
   7828458.35546   6091703.07842  24674492.9694                   24674492.9964
  -4163213.15248  -3223085.54746  20936574.8054                   20936572.1254
   3920278.53546   3055511.39543  24749826.0394                   24749828.4964
  -6612253.77747  -5118031.18444  23133483.7194                   23133483.4734
   3585031.99248   2797011.69946  20718210.0944                   20718207.9804
   1175590.70747    927358.80946  21161099.0394                   21161095.3914
   7722884.71547   6010847.16045  22308935.2274                   22308933.1134
  -5897428.94547  -4573583.66045  22459784.9844                   22459783.5274
  -4804792.58647  -3722035.08644  23296984.3754                   23296982.9804
 11  8 10 17 50 30.0000000  0 10G03G06G07G10G11G13G19G23G08G28
   6962226.70746   5418693.03144  22676089.5004                   22676088.7894
   7890282.96146   6139878.00043  24686258.2894                   24686258.5824
  -4244784.81248  -3286647.87946  20921052.4384                   20921050.0554
   3937231.00446   3068721.02343  24753052.1484                   24753054.6134
  -6725845.87947  -5206544.46544  23111867.5234                   23111868.1334
   3611423.05548   2817576.12146  20723232.1644                   20723230.4344
   1176169.91448    927810.11746  21161209.2664                   21161205.9694
   7788227.38747   6061763.38745  22321369.4384                   22321367.6484
  -6007876.52047  -4659646.68745  22438767.0394                   22438766.9184
  -4892514.65247  -3790389.91044  23280291.2974                   23280290.6094
 11  8 10 17 51  0.0000000  0 10G03G06G07G10G11G13G19G23G08G28
   7020126.02046   5463809.31644  22687107.8524                   22687106.9454
   7952159.50046   6188093.41843  24698032.9144                   24698033.0594
  -4326267.03148  -3350140.53146  20905546.3444                   20905544.7734
   3954246.16446   3081979.48443  24756290.3284                   24756292.4454
  -6839385.92247  -5295017.17644  23090262.1174                   23090261.2114
   3638218.34848   2838455.53146  20728331.2814                   20728329.5944
   1177221.84448    928629.78146  21161409.3134                   21161405.5354
   7853725.56647   6112800.79745  22333833.8204                   22333831.9104
  -6118412.40647  -4745778.54345  22417733.6804                   22417731.8244
  -4980136.07047  -3858666.28544  23263617.5634                   23263616.9494
 11  8 10 17 51 30.0000000  0 10G03G06G07G10G11G13G19G23G08G28
   7078211.58247   5509070.70744  22698161.0084                   22698160.1174
   8014077.30546   6236340.98843  24709815.8594                   24709815.7734
  -4407666.23848  -3413568.48046  20890057.1334                   20890054.8364
   3971313.11346   3095278.27343  24759538.1024                   24759540.0084
  -6952878.75047  -5383453.09844  23068665.4224                   23068664.6844
   3665408.06348   2859642.28146  20733505.6564                   20733503.4734
   1178736.80948    929810.25446  21161697.9224                   21161694.6214
   7919368.18047   6163950.74645  22346325.1884                   22346323.1994
  -6229043.20347  -4831984.34845  22396680.7114                   22396679.8794
  -5067665.46947  -3926870.95744  23246961.0164                   23246960.2034
 11  8 10 17 52  0.0000000  0 10G03G06G07G10G11G13G19G23G08G28
   7136497.10947   5554487.95744  22709252.7194                   22709251.2274
   8076051.04746   6284632.15243  24721609.7344                   24721608.8524
  -4488963.55548  -3476917.04346  20874586.4454                   20874584.2854
   3988446.08646   3108628.55543  24762797.6174                   24762800.5274
  -7066304.28947  -5471836.60244  23047080.8204                   23047080.3324
   3693006.96948   2881147.87546  20738757.5704                   20738755.3204
   1180730.06648    931363.41846  21162077.0394                   21162073.3134
   7985169.44547   6215224.32445  22358846.7114                   22358844.8284
  -6339750.71547  -4918249.92245  22375613.6644                   22375612.8134
  -5155086.67247  -3994991.32844  23230325.2814                   23230324.4494
 11  8 10 17 52 30.0000000  0 10G03G06G07G10G11G13G19G23G08G28
   7194979.50047   5600058.57444  22720381.4774                   22720380.1174
   8138078.25446   6332964.94143  24733412.8204                   24733412.8284
  -4570157.31248  -3540184.91046  20859136.1094                   20859133.8594
   4005642.38746   3122028.14843  24766071.1414                   24766073.2344
  -7179659.78147  -5560165.52744  23025510.0394                   23025509.8714
   3721012.82448   2902970.57046  20744086.5314                   20744084.6294
   1183199.73448    933287.81646  21162546.9224                   21162543.2344
   8051126.34847   6266619.15645  22371398.4064                   22371396.2344
  -6450534.00047  -5004574.54345  22354532.7274                   22354531.6844
  -5242399.96947  -4063027.63344  23213710.3284                   23213709.1254
 11  8 10 17 53  0.0000000  0 10G03G06G07G10G11G13G19G23G08G28
   7253652.10947   5645777.42644  22731546.9534                   22731545.4024
   8200152.29346   6381334.30943  24745225.0234                   24745225.4654
  -4651249.91048  -3603373.94946  20843704.6024                   20843702.3874
   4022894.68046   3135471.37543  24769353.6334                   24769356.4304
  -7292946.34447  -5648440.73444  23003952.4774                   23003952.1644
   3749419.24648   2925105.41046  20749492.4144                   20749490.5044
   1186140.21548    935579.07446  21163106.4064                   21163102.2854
   8117231.80547   6318129.74645  22383977.6174                   22383975.6484
  -6561395.58647  -5090960.18445  22333436.0084                   22333435.1214
  -5329610.26647  -4130983.66844  23197115.0554                   23197113.6334
 11  8 10 17 53 30.0000000  0 10G03G06G07G10G11G13G19G23G08G28
   7312507.29747   5691638.55544  22742746.7114                   22742745.0084
   8262266.16046   6429734.69743  24757044.0704                   24757045.2074
  -4732244.06648  -3666486.26646  20828292.0784                   20828289.6604
   4040196.09846   3148952.92443  24772646.1414                   24772648.3594
  -7406165.12947  -5736663.11744  22982407.2814                   22982407.0824
   3778219.92648   2947547.44946  20754972.8364                   20754970.8364
   1189545.44548    938232.50446  21163754.5474                   21163750.9184
   8183478.56347   6369750.46145  22396584.5944                   22396582.2154
  -6672338.17647  -5177408.93745  22312324.9224                   22312323.6414
  -5416722.50847  -4198863.27744  23180537.5944                   23180536.2384
 11  8 10 17 54  0.0000000  0 10G03G06G07G10G11G13G19G23G08G28
   7371531.49647   5737631.35244  22753978.8594                   22753977.5314
   8324406.64546   6478155.75043  24768869.8284                   24768870.3874
  -4813148.80948  -3729528.92646  20812896.2114                   20812894.4654
   4057532.97346   3162462.04743  24775946.0784                   24775948.4144
  -7519323.98447  -5824838.81244  22960873.7274                   22960873.5084
   3807401.97348   2970286.65646  20760525.9304                   20760524.2074
   1193402.80148    941238.21546  21164488.6094                   21164484.7934
   8249853.11747   6421470.75445  22409214.6954                   22409212.7234
  -6783371.71547  -5263928.56645  22291195.7114                   22291194.0824
  -5503747.85947  -4266675.19144  23163976.8914                   23163975.8324
 11  8 10 17 54 30.0000000  0 10G03G06G07G10G11G13G19G23G08G28
   7430735.94947   5783764.64144  22765244.6954                   22765243.8094
   8386585.52046   6526606.77743  24780701.7034                   24780702.1954
  -4893948.28548  -3792489.55946  20797520.3444                   20797518.0704
   4074916.24646   3176007.36743  24779253.4614                   24779256.1454
  -7632405.59047  -5912954.30944  22939355.4064                   22939354.9264
   3836977.28148   2993332.30146  20766154.1484                   20766152.3834
   1197725.09048    944606.20746  21165311.0164                   21165307.3054
   8316366.63347   6473299.30945  22421872.3054                   22421870.4454
  -6894480.88347  -5350507.12145  22270052.2894                   22270051.4964
  -5590673.35547  -4334409.28544  23147435.3594                   23147435.0004
 11  8 10 17 55  0.0000000  0 10G03G06G07G10G11G13G19G23G08G28
   7490113.35547   5830032.68044  22776543.3754                   22776542.8954
   8448795.82446   6575082.28143  24792539.9534                   24792540.7664
  -4974645.01248  -3855370.12546  20782164.5634                   20782162.1094
   4092338.98446   3189583.40243  24782569.1724                   24782571.4454
  -7745411.32847  -6001010.68444  22917850.9774                   22917850.1844
   3866939.31648   3016679.29346  20771855.6484                   20771853.9804
   1202505.85548    948331.46546  21166221.0944                   21166217.1134
   8383011.80947   6525230.46145  22434554.2584                   22434552.6214
  -7005668.55947  -5437146.83645  22248893.9224                   22248892.1094
  -5677503.69147  -4402069.27044  23130912.4224                   23130911.1024
 11  8 10 17 55 30.0000000  0  9G03G07G10G11G13G19G23G08G28
   7549655.92247   5876429.42244  22787874.7274                   22787873.6454
  -5055242.57848  -3918173.42646  20766827.1334                   20766825.4064
   4109793.15246   3203183.88343  24785890.5554                   24785893.4654
  -7858343.46147  -6089009.70344  22896360.5084                   22896360.1334
   3897280.68848   3040321.86746  20777629.2274                   20777627.6174
   1207738.21548    952408.61346  21167216.8524                   21167213.4414
   8449780.33247   6577257.73445  22447260.0704                   22447258.3134
  -7116938.41847  -5523850.62545  22227719.3914                   22227718.4304
  -5764244.54347  -4469659.49644  23114406.2344                   23114405.4924
 11  8 10 17 56  0.0000000  0  9G03G07G10G11G13G19G23G08G28
   7609366.56647   5922957.11344  22799237.0944                   22799236.6724
  -5135732.86347  -3980893.12946  20751510.3284                   20751508.2234
   4127282.25046   3216811.68043  24789218.9144                   24789221.3914
  -7971192.74247  -6176944.14844  22874886.1024                   22874885.6484
   3928005.78548   3064263.44946  20783476.2274                   20783474.7544
   1213426.69547    956841.16846  21168299.1564                   21168295.4144
   8516675.79747   6629383.91845  22459990.1174                   22459988.1764
  -7228282.98447  -5610612.59845  22206531.5234                   22206530.7344
  -5850890.22347  -4537175.58644  23097917.9064                   23097916.9414
 11  8 10 17 56 30.0000000  0  9G03G07G10G11G13G19G23G08G28
   7669237.01247   5969609.35544  22810630.1334                   22810629.4844
  -5216119.44548  -4043532.03146  20736213.0474                   20736211.4104
   4144798.18846   3230460.35943  24792551.5944                   24792554.5904
  -8083961.21547  -6264815.64544  22853426.5944                   22853427.0124
   3959106.51248   3088497.73446  20789394.5864                   20789393.2464
   1219564.11347    961623.55546  21169466.9534                   21169463.4924
   8583690.05147   6681602.68045  22472742.7584                   22472740.8204
  -7339706.36347  -5697436.00845  22185328.5164                   22185326.7734
  -5937446.71547  -4604622.17644  23081447.0084                   23081445.6914
 11  8 10 17 57  0.0000000  0  9G03G07G10G11G13G19G23G08G28
   7729279.34046   6016395.48844  22822055.7584                   22822056.4384
  -5296385.74648  -4106077.21146  20720939.2974                   20720937.2544
   4162352.56646   3244138.99243  24795892.1644                   24795895.3484
  -8196631.41047  -6352610.55544  22831986.6804                   22831986.6334
   3990595.40248   3113034.47346  20795386.9694                   20795385.1414
   1226163.41847    966765.84846  21170722.6884                   21170719.3164
   8650834.41847   6733922.80144  22485520.0164                   22485518.8874
  -7451192.42247  -5784308.25045  22164113.4224                   22164111.9924
  -6023900.11347  -4671988.43044  23064995.5084                   23064993.7934
 11  8 10 17 57 30.0000000  0  9G03G07G10G11G13G19G23G08G28
   7789477.03146   6063302.73843  22833510.9454                   22833510.9024
  -5376543.90647  -4168538.12546  20705685.8284                   20705683.5704
   4179929.03546   3257834.80143  24799237.1174                   24799239.8674
  -8309213.92647  -6440337.15244  22810562.5234                   22810562.2304
   4022456.78948   3137861.47346  20801449.6254                   20801448.1094
   1233208.82447    972255.75046  21172063.3364                   21172060.3014
   8718092.65247   6786331.66044  22498318.5084                   22498316.8244
  -7562753.03147  -5871238.59045  22142884.4224                   22142883.2384
  -6110264.85947  -4739285.60544  23048560.3754                   23048559.4184
 11  8 10 17 58  0.0000000  0  8G03G07G11G13G19G23G08G28
   7849830.58646   6110331.40644  22844995.3284                   22844995.7384
  -5456588.43748  -4230910.49646  20690453.6174                   20690451.6334
  -8421702.34847  -6527990.41044  22789157.1174                   22789156.3554
   4054691.62548   3162979.47746  20807583.8594                   20807582.4144
   1240702.10948    978094.65646  21173489.6254                   21173485.7544
   8785465.38747   6838829.74244  22511139.6174                   22511137.7384
  -7674383.94147  -5958223.69945  22121641.7344                   22121640.3714
  -6196537.89847  -4806511.32844  23032143.4774                   23032142.7034
 11  8 10 17 58 30.0000000  0  8G03G07G11G13G19G23G08G28
   7910328.99647   6157472.94144  22856508.6724                   22856508.2304
  -5536525.87548  -4293199.39846  20675242.2344                   20675239.4694
  -8534101.44147  -6615574.07844  22767767.8284                   22767767.3984
   4087289.52348   3188380.38746  20813787.3364                   20813785.6454
   1248633.44948    984274.91446  21174998.9064                   21174995.2304
   8852941.44947   6891408.35544  22523979.7734                   22523977.9964
  -7786091.51247  -6045268.55145  22100384.0554                   22100382.4384
  -6282728.01647  -4873672.41444  23015741.4534                   23015741.1174
 11  8 10 17 59  0.0000000  0  8G03G07G11G13G19G23G08G28
   7970971.32847   6204726.63344  22868048.3204                   22868048.0434
  -5616352.28948  -4355401.81646  20660051.4144                   20660049.3484
  -8646406.48447  -6703084.44944  22746396.7814                   22746396.4454
   4120249.87948   3214063.72746  20820059.5004                   20820057.6374
   1257002.55148    990796.26246  21176591.6564                   21176587.6524
   8920519.84447   6944066.68044  22536839.9064                   22536838.5704
  -7897872.41847  -6132370.53545  22079113.5084                   22079111.7464
  -6368834.24247  -4940768.14544  22999356.2424                   22999355.1524
 11  8 10 17 59 30.0000000  0  8G03G07G11G13G19G23G08G28
   9607186.35247   7479699.29344  23179409.6414                   23179409.6524
  -4120629.58648  -3189903.60546  20944678.2424                   20944675.9964
  -7183176.47347  -5562905.18044  23024840.0864                   23024840.0234
   5729003.62948   4467638.03546  21126194.9224                   21126193.1994
   2841241.37948   2225268.05946  21478062.1174                   21478058.4884
  10563629.39147   8224411.62544  22849513.3444                   22849511.9844
  -6434287.60548  -4991914.83245  22357623.9614                   22357622.5784
  -4879420.01247  -3780185.59844  23282782.5234                   23282781.2544
 11  8 10 18  0  0.0000000  0  8G03G07G11G13G19G23G08G28
   9668122.95746   7527182.30144  23191006.1564                   23191005.6334
  -4200213.69148  -3251917.19946  20929534.0164                   20929531.2154
  -7295268.91447  -5650249.90644  23003509.5634                   23003509.7384
   5762697.73448   4493893.12946  21132606.6254                   21132605.5234
   2850495.59847   2232479.11746  21479822.9694                   21479819.4494
  10631419.10247   8277234.64544  22862413.5634                   22862411.7704
  -6546195.56647  -5079115.82445  22336328.8054                   22336327.3674
  -4965344.69147  -3847139.87144  23266431.4534                   23266430.3834
 11  8 10 18  0 30.0000000  0  8G03G07G11G13G19G23G08G28
   9729205.07846   7574778.66444  23202629.2894                   23202629.2194
  -4279671.35948  -3313832.27046  20914413.5394                   20914411.1294
  -7407247.70347  -5737506.05544  22982201.2734                   22982200.7154
   5796757.71148   4520433.31346  21139087.8914                   21139086.5634
   2860192.18448   2240034.87946  21481668.3524                   21481664.9734
  10699312.57047   8330138.46544  22875332.7344                   22875331.6214
  -6658162.16847  -5166362.51645  22315022.0634                   22315020.6604
  -5051177.10247  -3914022.22344  23250098.5164                   23250096.5784
 11  8 10 18  1  0.0000000  0  9G03G24G07G11G13G19G23G08G28
   9790425.66046   7622482.93444  23214278.9304                   23214279.0434
   4525185.90656   3553349.28552  24484529.3204                   24484535.2274
  -4359004.66048  -3375650.42646  20899316.9144                   20899314.6484
  -7519113.96947  -5824674.52744  22960913.6644                   22960912.8754
   5831177.26648   4547253.69146  21145638.0314                   21145636.3754
   2870325.08248   2247930.62546  21483596.4304                   21483592.6024
  10767303.05947   8383117.90244  22888271.3914                   22888269.4104
  -6770189.73447  -5253656.70745  22293704.2274                   22293702.2894
  -5136921.89547  -3980836.30544  23233781.5554                   23233780.1764
 11  8 10 18  1 30.0000000  0  9G03G24G07G11G13G19G23G08G28
   9851761.93847   7670277.36744  23225951.8364                   23225951.3014
   4410885.11746   3464283.92242  24462777.5234                   24462783.6844
  -4438231.77748  -3437385.85546  20884240.6564                   20884237.7034
  -7630884.47347  -5911768.39544  22939644.0164                   22939643.4144
   5865933.95748   4574336.77046  21152252.1564                   21152250.7074
   2880872.39147   2256149.27746  21485603.7584                   21485599.7504
  10835367.47747   8436154.94144  22901224.0704                   22901222.1884
  -6882297.12547  -5341013.10945  22272370.7034                   22272369.8324
  -5222599.57047  -4047598.09044  23217477.2504                   23217476.4024
 11  8 10 18  2  0.0000000  0  9G03G24G07G11G13G19G23G08G28
   9913218.24647   7718165.32444  23237646.0864                   23237646.0594
   4296407.67646   3375080.91042  24440993.8204                   24440998.7584
  -4517343.88748  -3499031.66446  20869186.1644                   20869183.6024
  -7742549.38347  -5998779.96144  22918394.2344                   22918394.3524
   5901032.23848   4601686.02346  21158931.4534                   21158929.8444
   2891839.04748   2264694.68446  21487690.6564                   21487686.9924
  10903509.90647   8489252.76244  22914190.1334                   22914189.3094
  -6994475.91047  -5428425.12145  22251023.8754                   22251022.4654
  -5308203.76247  -4114302.62144  23201188.0554                   23201186.3634
 11  8 10 18  2 30.0000000  0  9G03G24G07G11G13G19G23G08G28
   9974791.88347   7766144.71544  23249363.1094                   23249363.3284
   4181756.87146   3285742.82443  24419176.1954                   24419182.0394
  -4596338.96948  -3560586.27746  20854153.8594                   20854151.4844
  -7854105.29347  -6085706.59044  22897166.1724                   22897165.8524
   5936470.15248   4629299.92646  21165674.7734                   21165673.6094
   2903223.33248   2273565.53546  21489857.1884                   21489853.4304
  10971727.85247   8542409.41444  22927172.2424                   22927171.6374
  -7106724.34847  -5515891.42645  22229663.6094                   22229661.9304
  -5393735.11747  -4180950.37944  23184911.0944                   23184910.0084
 11  8 10 18  3  0.0000000  0  9G03G24G07G11G13G19G23G08G28
  10036477.15247   7814211.09844  23261101.8754                   23261101.0474
   4066932.46946   3196269.46143  24397326.1094                   24397331.9344
  -4675218.02348  -3622050.48446  20839143.6884                   20839141.1374
  -7965551.86747  -6172548.02044  22875959.1954                   22875958.2814
   5972242.48848   4657174.41446  21172482.0784                   21172480.7424
   2915020.28948   2282757.94146  21492101.7194                   21492098.1954
  11040015.30147   8595620.22744  22940167.0474                   22940165.9304
  -7219043.44947  -5603412.78945  22208289.7734                   22208288.4384
  -5479197.27047  -4247544.21544  23168648.7344                   23168647.1524
 11  8 10 18  3 30.0000000  0  9G03G24G07G11G13G19G23G08G28
  10098261.86347   7862354.94543  23272859.0164                   23272858.3484
   3951927.90646   3106655.71943  24375440.8444                   24375446.0354
  -4753988.43448  -3683430.05146  20824153.9694                   20824151.2584
  -8076895.67247  -6259309.38744  22854770.8444                   22854770.0664
   6008337.19548   4685300.10246  21179350.4454                   21179349.1454
   2927218.25847   2292262.82846  21494422.9384                   21494419.6684
  11108360.19947   8648875.83244  22953173.0784                   22953171.8204
  -7331441.26247  -5690995.48445  22186901.2734                   22186899.7544
  -5564600.16447  -4314091.87544  23152396.6334                   23152395.6644
 11  8 10 18  4  0.0000000  0  9G03G24G07G11G13G19G23G08G28
  10160156.98847   7910584.85243  23284637.0474                   23284636.7734
   3836760.27346   3016914.92243  24353524.8444                   24353529.9414
  -4832633.98448  -3744712.30946  20809188.6484                   20809185.6254
  -8188119.17247  -6345977.00044  22833605.4384                   22833604.7974
   6044766.38348   4713686.42646  21186282.8444                   21186281.2974
   2939829.66448   2302089.86346  21496822.8674                   21496819.2854
  11176773.86747   8702185.00044  22966191.7034                   22966190.5704
  -7443901.71547  -5778626.99645  22165500.6724                   22165499.5554
  -5649930.03947  -4380582.64544  23136159.1094                   23136157.8364
 11  8 10 18  4 30.0000000  0  9G03G24G07G11G13G19G23G08G28
  10222156.52347   7958896.14543  23296435.3594                   23296435.0084
   3721428.66046   2927046.31643  24331577.0474                   24331582.8094
  -4911156.76248  -3805898.89146  20794246.0864                   20794243.6454
  -8299223.44147  -6432551.69144  22812463.6484                   22812462.2504
   6081523.80548   4742328.50846  21193277.9694                   21193276.4344
   2952848.89847   2312234.69146  21499300.2974                   21499297.1954
  11245249.60547   8755542.52744  22979222.4924                   22979221.4924
  -7556427.15247  -5866309.14545  22144088.0164                   22144086.5944
  -5735191.51647  -4447020.10944  23119934.7814                   23119933.0204
 11  8 10 18  5  0.0000000  0  9G03G24G07G11G13G19G23G08G28
  10284260.66447   8007288.91043  23308253.6564                   23308253.3364
   3605938.62946   2837054.25843  24309600.2274                   24309604.9614
  -4989552.39848  -3866986.39146  20779327.8984                   20779325.5554
  -8410202.33247  -6519028.69944  22791345.0234                   22791343.2774
   6118609.58648   4771226.45746  21200335.2344                   21200333.6334
   2966276.37948   2322697.62946  21501855.5314                   21501851.8324
  11313787.23847   8808948.30544  22992264.8674                   22992263.5394
  -7669013.14847  -5954038.50045  22122663.3364                   22122662.0004
  -5820382.56247  -4513402.70744  23103722.6254                   23103721.3634
 11  8 10 18  5 30.0000000  0  9G03G24G07G11G13G19G23G08G28
  10346454.56346   8055751.62143  23320088.7424                   23320087.6254
   3490281.74246   2746932.19143  24287592.3284                   24287597.3054
  -5067830.08648  -3927981.99246  20764432.0634                   20764429.9304
  -8521064.32447  -6605414.59844  22770248.4454                   22770247.1484
   6156009.90248   4800369.50046  21207451.9694                   21207450.5784
   2980098.81648   2333468.32846  21504485.7894                   21504482.5394
  11382372.67647   8862391.33644  23005316.0944                   23005314.9804
  -7781669.29747  -6041822.49245  22101225.6334                   22101223.8984
  -5905515.22347  -4579739.82044  23087522.8204                   23087521.8714
 11  8 10 18  6  0.0000000  0  9G03G24G07G11G13G19G23G08G28
  10408750.71546   8104293.99243  23331942.9144                   23331942.5904
   3374475.40246   2656693.66843  24265554.9144                   24265559.6484
  -5145973.20748  -3988872.74246  20749561.7114                   20749559.0744
  -8631791.36347  -6691695.35544  22749177.5944                   22749176.5514
   6193737.00448   4829767.18446  21214631.1564                   21214630.0864
   2994328.56648   2344556.41846  21507193.8754                   21507190.3714
  11451017.60947   8915880.68844  23018378.9384                   23018378.5434
  -7894379.47748  -6129648.60545  22079777.2974                   22079775.9734
  -5990575.37947  -4646020.39845  23071336.4924                   23071335.3754
 11  8 10 18  6 30.0000000  0  9G03G24G07G11G13G19G23G08G28
  10471135.68446   8152905.59043  23343814.6954                   23343814.5514
   3258512.03946   2566332.85243  24243487.4774                   24243492.4924
  -5223990.28948  -4049665.27746  20734716.1884                   20734713.3524
  -8742390.73447  -6777876.64544  22728130.7114                   22728130.4104
   6231778.10948   4859409.54346  21221870.4144                   21221868.6374
   3008953.23447   2355952.23046  21509977.0864                   21509973.1024
  11519708.91847   8969406.21944  23031450.5784                   23031449.2584
  -8007152.46547  -6217523.66445  22058317.6254                   22058316.2504
  -6075574.04747  -4712253.09845  23055161.6094                   23055161.2464
 11  8 10 18  7  0.0000000  0  9G03G24G07G11G13G19G23G08G28
  10533607.98846   8201585.21943  23355703.3594                   23355702.3164
   3142396.15646   2475853.08643  24221391.4614                   24221395.7274
  -5301878.04348  -4110357.04346  20719894.2664                   20719891.8484
  -8852858.28547  -6863955.19144  22707109.5164                   22707109.1804
   6270131.79348   4889295.46946  21229169.0944                   21229167.5664
   3023972.02748   2367655.16046  21512834.4924                   21512831.4224
  11588444.61747   9022966.30944  23044530.8834                   23044529.3244
  -8119985.09847  -6305445.18045  22036846.2194                   22036844.5784
  -6160510.71147  -4778437.46945  23038998.4224                   23038997.7154
 11  8 10 18  7 30.0000000  0  9G03G24G07G11G13G19G23G08G28
  10596162.41047   8250328.85244  23367606.6724                   23367606.5434
   3026127.72746   2385254.54343  24199266.2894                   24199269.8364
  -5379637.34048  -4170948.70746  20705097.4924                   20705094.5554
  -8963193.26247  -6949930.43744  22686113.1334                   22686113.0164
   6308793.15648   4919421.14146  21236526.0234                   21236524.7704
   3039380.23847   2379661.52746  21515766.9844                   21515763.3324
  11657219.74647   9076557.12144  23057618.7274                   23057617.4774
  -8232878.02047  -6393413.69945  22015363.6254                   22015362.4104
  -6245388.53947  -4844576.01244  23022846.5004                   23022845.6094
 11  8 10 18  8  0.0000000  0  9G03G24G07G11G13G19G23G08G28
  10658788.37546   8299128.21543  23379524.0164                   23379524.1684
   2909702.37146   2294533.67243  24177110.4844                   24177114.1294
  -5457273.67248  -4231444.55946  20690323.2664                   20690320.9964
  -9073400.29347  -7035805.97744  22665141.6644                   22665141.1724
   6347752.04348   4949778.65646  21243939.6644                   21243938.4024
   3055167.84048   2391963.52746  21518771.3834                   21518767.4264
  11726023.99247   9130170.62944  23070711.8054                   23070711.3834
  -8345837.42647  -6481433.98445  21993868.4224                   21993867.1564
  -6330215.75447  -4910675.07845  23006704.7274                   23006703.8324
 11  8 10 18  8 30.0000000  0  9G03G24G07G11G13G19G23G08G28
  10721486.67247   8347983.94143  23391455.8134                   23391455.0634
   2793126.31346   2203695.38743  24154926.5864                   24154930.9734
  -5534781.58648  -4291840.35246  20675574.2504                   20675571.5864
  -9183472.84847  -7121576.75444  22644195.4614                   22644195.9964
   6387009.50448   4980368.81646  21251410.1644                   21251408.7974
   3071336.53148   2404562.47346  21521848.1804                   21521844.3834
  11794857.75847   9183807.13744  23083810.5394                   23083809.8794
  -8458858.03147  -6569501.98845  21972360.9844                   21972359.7384
  -6414989.66847  -4976732.64544  22990572.6484                   22990571.6684
 11  8 10 18  9  0.0000000  0  9G03G24G07G11G13G19G23G08G28
  10784253.27346   8396892.86743  23403398.5554                   23403399.3134
   2676400.90247   2112740.71943  24132714.7734                   24132719.1094
  -5612160.87548  -4352135.91046  20660849.4224                   20660846.8524
  -9293409.27747  -7207241.43744  22623275.2894                   22623275.3404
   6426561.39848   5011188.40646  21258936.8914                   21258935.3634
   3087882.50448   2417455.40646  21524996.9844                   21524993.0124
  11863716.34047   9237462.98444  23096914.7034                   23096913.5904
  -8571939.64847  -6657617.51245  21950842.4694                   21950840.5864
  -6499712.71547  -5042750.56245  22974450.6484                   22974449.1454
 11  8 10 18  9 30.0000000  0  9G03G24G07G11G13G19G23G08G28
  10847094.96947   8445860.34843  23415358.3984                   23415357.5944
   2559538.64546   2021679.37543  24110475.8284                   24110481.4844
  -5689399.77048  -4412322.07446  20646151.6024                   20646148.9344
  -9403197.40247  -7292790.55944  22602383.0634                   22602382.6524
   6466414.79348   5042242.94146  21266521.0314                   21266519.5084
   3104813.04348   2430648.00446  21528218.8754                   21528214.8984
  11932606.76647   9291143.60944  23110023.3284                   23110023.0554
  -8685071.27047  -6745772.02345  21929314.1564                   21929312.7114
  -6584375.72747  -5108721.69944  22958339.7504                   22958338.5234
 11  8 10 18 10  0.0000000  0  9G03G24G07G11G13G19G23G08G28
  10909997.30947   8494875.08643  23427328.1174                   23427327.5634
   2442530.73446   1930504.56343  24088209.9774                   24088215.0664
  -5766508.48848  -4472406.79346  20631478.1094                   20631475.4224
  -9512845.54347  -7378230.59044  22581517.8444                   22581517.0984
   6506555.42648   5073521.29746  21274159.4844                   21274157.7934
   3122114.14848   2444129.35546  21531511.1564                   21531507.7384
  12001514.29747   9344837.58244  23123136.4384                   23123135.9884
  -8798262.52048  -6833972.97345  21907774.4844                   21907772.9534
  -6668991.16047  -5174655.75444  22942238.0784                   22942236.9224
 11  8 10 18 10 30.0000000  0  9G03G24G07G11G13G19G23G08G28
  10972961.00447   8543937.60543  23439309.8674                   23439309.1254
   2325383.50447   1839221.18043  24065918.0234                   24065922.5274
  -5843481.28948  -4532385.62146  20616830.4304                   20616828.0394
  -9622347.03947  -7463556.38344  22560680.5554                   22560679.9654
   6546984.21548   5105024.18046  21281852.5634                   21281851.2704
   3139786.96948   2457900.36346  21534874.1804                   21534870.7974
  12070439.61347   9398545.40644  23136252.8524                   23136252.6134
  -8911508.06647  -6922216.25045  21886224.3834                   21886223.4184
  -6753556.43747  -5240550.74244  22926145.0554                   22926144.1954
 11  8 10 18 11  0.0000000  0  9G03G24G07G11G13G19G23G08G28
  11035989.39546   8593050.58244  23451303.3834                   23451303.1954
   2208105.97346   1747836.26243  24043599.8444                   24043605.5004
  -5920310.39548  -4592252.46146  20602210.3054                   20602208.1724
  -9731692.79347  -7548760.78944  22539872.6414                   22539871.8054
   6587704.35948   5136754.10546  21289601.3524                   21289600.5004
   3157835.54748   2471964.14846  21538308.2734                   21538304.8914
  12139385.84447   9452269.51244  23149372.9614                   23149373.0634
  -9024800.40247  -7010495.98445  21864666.2344                   21864664.3164
  -6838066.31247  -5306402.53944  22910063.4454                   22910062.8054
 11  8 10 18 11 30.0000000  0  9G03G24G07G11G13G19G23G08G28
  11099082.58246   8642214.01243  23463309.8444                   23463309.6994
   2090704.15246   1656354.47343  24021260.1174                   24021264.4494
  -5996990.99248  -4652003.59846  20587618.5634                   20587616.0744
  -9840876.98847  -7633839.33244  22519095.3674                   22519094.7934
   6628716.34848   5168711.44945  21297405.5314                   21297404.2774
   3176260.56347   2486321.27046  21541814.6094                   21541810.8444
  12208353.05547   9506009.99244  23162496.9614                   23162496.4614
  -9138135.03948  -7098808.68045  21843098.8914                   21843097.3134
  -6922518.21547  -5372209.18444  22893993.0704                   22893991.8674
 11  8 10 18 12  0.0000000  0  9G03G24G07G11G13G19G23G08G28
  11162238.17246   8691426.07843  23475327.9844                   23475328.0314
   1973181.33646   1564778.42643  23998895.3754                   23998900.3134
  -6073520.72748  -4711637.16846  20573055.6954                   20573052.8524
  -9949895.94947  -7718789.10944  22498349.2664                   22498348.8054
   6670017.89847   5200894.41045  21305265.0864                   21305263.7154
   3195059.97348   2500970.12546  21545392.1724                   21545388.2274
  12277338.93046   9559764.99244  23175624.3984                   23175624.3164
  -9251509.47348  -7187152.37945  21821523.9614                   21821522.9144
  -7006912.49647  -5437970.93745  22877933.6414                   22877932.4844
 11  8 10 18 12 30.0000000  0  9G03G24G07G11G13G19G23G08G28
  11225440.20746   8740674.34443  23487354.7274                   23487354.5274
   1855527.09846   1473099.96543  23976506.3054                   23976510.9774
  -6149910.72748  -4771161.84846  20558519.2274                   20558516.3834
 -10058760.18747  -7803618.32045  22477633.7664                   22477632.8244
   6711593.41448   5233290.85245  21313176.4924                   21313175.3524
   3214218.12148   2515898.51646  21549037.7734                   21549034.5394
  12346327.40247   9613522.02044  23188753.1484                   23188752.2734
  -9364934.92648  -7275535.83645  21799939.9774                   21799938.7894
  -7091263.26247  -5503698.74244  22861881.9924                   22861880.2664
 11  8 10 18 13  0.0000000  0  9G03G24G07G11G13G19G23G08G28
  11288679.92246   8789951.97743  23499388.8834                   23499388.7234
   1737738.16846   1381316.52743  23954092.2344                   23954096.2814
  -6226165.56248  -4830581.20746  20544008.3054                   20544005.9844
 -10167472.91447  -7888329.46944  22456946.5704                   22456945.5124
   6753433.55148   5265893.50045  21321138.7584                   21321137.2934
   3233726.35248   2531099.70746  21552750.2274                   21552746.3444
  12415308.96146   9667273.65244  23201879.5314                   23201878.9414
  -9478416.14148  -7363962.76245  21778345.1254                   21778343.8914
  -7175577.54747  -5569398.16045  22845837.6024                   22845836.0594
 11  8 10 18 13 30.0000000  0  9G03G24G07G11G13G19G23G08G28
  11351958.37946   8839259.75043  23511430.2194                   23511430.4494
   1619820.99646   1289433.18443  23931653.2424                   23931656.9804
  -6302279.71548  -4889890.94146  20529524.0784                   20529521.8164
 -10276027.43747  -7972917.33245  22436289.1724                   22436288.3554
   6795539.48448   5298703.26645  21329151.5164                   21329150.1764
   3253586.25848   2546574.92646  21556529.6804                   21556526.0354
  12484284.71147   9721020.76244  23215005.6094                   23215005.3794
  -9591947.80948  -7452428.98445  21756741.1174                   21756739.5864
  -7259852.65247  -5635067.02045  22829800.2664                   22829799.0394
 11  8 10 18 14  0.0000000  0  9G03G24G07G11G13G19G23G08G28
  11415274.51646   8888596.97343  23523479.5164                   23523478.7624
   1501780.57446   1197453.75443  23909190.2114                   23909194.3324
  -6378249.17247  -4949087.94146  20515067.6334                   20515065.1684
 -10384418.72747  -8057378.02045  22415662.9304                   22415661.7734
   6837910.37147   5331719.47745  21337214.3834                   21337212.8364
   3273797.27748   2562323.74246  21560375.6094                   21560371.9534
  12553253.43847   9774762.40244  23228130.5784                   23228129.0664
  -9705526.08648  -7540931.52745  21735127.7194                   21735126.2504
  -7344087.18747  -5700704.30545  22813771.1414                   22813769.0514
 11  8 10 18 14 30.0000000  0  9G03G24G07G11G13G19G23G08G28
  11478636.25846   8937969.68043  23535536.6414                   23535536.2544
   1383630.35246   1105388.80543  23886707.1334                   23886710.8794
  -6454061.89848  -5008162.80146  20500640.8284                   20500638.6764
 -10492633.32447  -8141701.02345  22395070.2034                   22395069.3914
   6880553.82848   5364948.09045  21345328.8284                   21345327.7734
   3294367.34848   2578352.33646  21564289.4924                   21564286.2814
  12622222.77747   9828504.54344  23241254.7344                   23241254.3324
  -9819138.79348  -7629460.91045  21713507.9534                   21713506.5434
  -7428271.55947  -5766302.45345  22797751.3674                   22797750.0784
 11  8 10 18 15  0.0000000  0  9G03G24G07G11G13G19G23G08G28
  11542034.17246   8987370.59843  23547600.5084                   23547600.5904
   1265366.96946   1013235.65243  23864201.8444                   23864205.7424
  -6529721.84448  -5067118.62546  20486243.0084                   20486240.8164
 -10600674.54347  -8225888.91445  22374510.1884                   22374509.5824
   6923461.09848   5398382.26645  21353493.7814                   21353492.6724
   3315287.80548   2594653.94946  21568270.5864                   21568267.2114
  12691183.73847   9882240.09843  23254377.6884                   23254377.1844
  -9932790.30548  -7718020.51245  21691880.8284                   21691879.2894
  -7512412.87547  -5831867.08645  22781739.6644                   22781738.1484
 11  8 10 18 15 30.0000000  0  9G03G24G07G11G13G19G23G08G28
  11605452.78146   9036787.61343  23559668.9224                   23559669.7704
   1146980.36346    920986.47343  23841674.0394                   23841677.7774
  -6605240.37548  -5125964.25446  20471872.6334                   20471870.3594
 -10708552.55547  -8309949.62545  22353981.8834                   22353981.6604
   6966616.27348   5432009.60545  21361706.3984                   21361704.9694
   3336543.51248   2611216.80146  21572315.4144                   21572312.0394
  12760120.43047   9935956.78944  23267496.4924                   23267495.4694
 -10046491.89148  -7806619.13745  21670244.4224                   21670242.5204
  -7596524.78947  -5897408.80945  22765732.9924                   22765731.9414
 11  8 10 18 16  0.0000000  0  9G03G24G07G11G13G19G23G08G28
  11668910.28346   9086234.96543  23571744.6884                   23571744.8524
   1028493.94146    828659.48843  23819126.8594                   23819130.3954
  -6680595.08248  -5184682.21946  20457533.0554                   20457530.7384
 -10816243.96947  -8393864.94545  22333489.4774                   22333488.2504
   7010037.22748   5465844.04745  21369968.8204                   21369967.6724
   3358152.11748   2628054.64146  21576427.7034                   21576424.0124
  12829050.32047   9989668.15644  23280613.6564                   23280613.2704
 -10160221.22748  -7895239.39845  21648602.1334                   21648600.6174
  -7680587.61347  -5962912.26645  22749736.9304                   22749735.9264
 11  8 10 18 16 30.0000000  0  9G03G24G07G11G13G19G23G08G28
  11732395.73046   9135704.05143  23583826.0234                   23583826.3324
    909902.89147    736251.05943  23796559.4924                   23796563.3284
  -6755791.79348  -5243277.07446  20443223.5474                   20443221.3204
 -10923753.22747  -8477638.32845  22313030.6024                   22313029.4774
   7053713.51647   5499877.45746  21378280.6484                   21378279.2504
   3380103.81648   2645159.82846  21580604.9064                   21580601.1374
  12897962.83247  10043365.98044  23293727.5784                   23293727.6374
 -10273983.86348  -7983885.60545  21626953.9534                   21626952.3094
  -7764609.91847  -6028384.16845  22733747.4384                   22733746.4804
 11  8 10 18 17  0.0000000  0  9G03G24G07G11G13G19G23G08G28
  11795896.91446   9185185.41843  23595909.9384                   23595910.0124
    791200.47746    643755.81643  23773971.5084                   23773974.4614
  -6830838.33648  -5301754.91446  20428943.0004                   20428940.5314
 -11031087.36347  -8561275.24645  22292605.2974                   22292604.1564
   7097632.53947   5534100.00845  21386638.0314                   21386636.3554
   3402386.28948   2662522.75446  21584845.0864                   21584841.6884
  12966845.40647  10097040.46144  23306835.4454                   23306835.0474
 -10387787.78148  -8072563.98045  21605297.6644                   21605295.9414
  -7848602.20347  -6093832.66445  22717764.6564                   22717763.1254
 11  8 10 18 17 30.0000000  0  9G03G24G07G11G13G19G23G08G28
  11859403.72346   9234671.16443  23607994.7114                   23607994.8484
    672382.33646    551170.37143  23751360.2664                   23751364.0394
  -6905740.30148  -5360120.08246  20414689.3984                   20414687.3594
 -11138250.81247  -8644779.17245  22272212.7894                   22272211.9804
   7141784.21148   5568503.83245  21395039.6724                   21395038.7194
   3424989.45348   2680135.58246  21589146.2814                   21589142.6454
  13035687.44547  10150683.34844  23319936.0164                   23319935.9574
 -10501638.91048  -8161279.11745  21583632.5084                   21583630.2854
  -7932572.94947  -6159264.37945  22701785.4924                   22701783.9104
 11  8 10 18 18  0.0000000  0  9G03G24G07G11G13G19G23G08G28
  13498338.27346  10511762.94543  23919873.9694                   23919874.0354
   2128882.10547   1686105.35943  24028522.7734                   24028526.9384
  -5405066.74248  -4190764.08246  20700258.2734                   20700256.1884
  -9669810.44547  -7500539.87145  22551648.0164                   22551647.3014
   8761590.59448   6830690.55945  21703278.6334                   21703277.8014
   5023336.76648   3925600.98846  21893302.0004                   21893298.5314
  14679910.69546  11431895.99644  23632820.8204                   23632821.5314
  -9040104.65648  -7022421.25045  21861752.8914                   21861751.6454
  -6441093.50047  -4997072.56645  22985605.2734                   22985603.6454
 11  8 10 18 18 30.0000000  0  9G03G24G07G11G13G19G23G08G28
  13561864.71146  10561263.97344  23931962.5394                   23931962.7704
   2009857.85547   1593359.28143  24005873.0314                   24005877.1644
  -5479657.51648  -4248886.76246  20686063.7424                   20686062.0704
  -9776607.21147  -7583758.08245  22531324.8984                   22531324.0004
   8806215.05548   6865462.79345  21711770.4304                   21711769.5204
   5046590.43048   3943720.68446  21897727.0864                   21897723.2154
  14748679.99246  11485482.20744  23645907.2194                   23645907.9304
  -9154027.78148  -7111192.50045  21840074.1564                   21840072.9384
  -6525006.85247  -5062459.54744  22969636.7584                   22969635.4304
 11  8 10 18 19  0.0000000  0  9G03G24G07G11G13G19G23G08G28
  13625409.78146  10610779.54343  23944054.8284                   23944054.8954
   1890747.73846   1500546.32443  23983207.3754                   23983211.5124
  -5554076.98848  -4306875.97346  20671902.4534                   20671899.8984
  -9883203.74247  -7666820.23445  22511040.2664                   22511039.2234
   8851084.53148   6900425.96145  21720309.2274                   21720308.0784
   5070178.13348   3962100.68846  21902215.3444                   21902212.3954
  14817421.28547  11539046.57843  23658988.7274                   23658988.6724
  -9267971.52748  -7199979.82445  21818391.3834                   21818390.1684
  -6608879.84447  -5127815.08245  22953676.3984                   22953674.7234
 11  8 10 18 19 30.0000000  0  9G03G24G07G11G13G19G23G08G28
  13688965.47747  10660303.39544  23956148.7034                   23956149.5744
   1771549.40247   1407664.58243  23960525.7114                   23960528.1214
  -5628329.02048  -4364734.70746  20657772.7034                   20657770.4884
  -9989602.38747  -7749728.18745  22490793.0634                   22490792.2504
   8896190.89848   6935573.70345  21728892.2734                   21728890.7934
   5094092.14848   3980734.94146  21906766.1884                   21906762.6604
  14886126.14847  11592582.58244  23672063.1484                   23672063.5904
  -9381939.09448  -7288785.71545  21796704.2504                   21796702.5704
  -6692718.93047  -5193144.19945  22937721.8524                   22937720.1684
 11  8 10 18 20  0.0000000  0  9G03G24G07G11G13G19G23G08G28
  13752532.18446  10709835.80544  23968245.1484                   23968245.1254
   1652269.22347   1314719.08243  23937827.5164                   23937830.4144
  -5702408.13348  -4422458.69946  20643675.9614                   20643673.9774
 -10095796.31247  -7832476.64545  22470584.8364                   22470584.3164
   8941534.74248   6970906.50045  21737521.4844                   21737519.9804
   5118333.65648   3999624.40245  21911379.2734                   21911375.5394
  14954795.30546  11646090.73444  23685130.5084                   23685131.0084
  -9495925.13348  -7377605.99245  21775013.4224                   21775012.0554
  -6776521.24247  -5258444.68445  22921775.1954                   22921773.1024
 11  8 10 18 20 30.0000000  0  9G03G24G07G11G13G19G23G08G28
  13816117.59046  10759382.76643  23980345.3754                   23980345.6804
   1532920.14547   1221719.91443  23915115.5554                   23915118.4614
  -5776302.30548  -4480038.57846  20629614.6564                   20629612.5084
 -10201772.98847  -7915055.81245  22450418.1334                   22450417.6564
   8987123.27348   7006429.96145  21746196.6884                   21746195.7624
   5142910.30548   4018775.00046  21916056.3984                   21916052.3794
  15023436.18447  11699576.85543  23698192.3204                   23698193.0434
  -9609917.74248  -7466431.39545  21753321.4694                   21753319.7734
  -6860277.77047  -5323709.46545  22905836.8054                   22905834.9184
 11  8 10 18 21  0.0000000  0  9G03G24G07G11G13G19G23G08G28
  13879721.34846  10808944.07043  23992448.8674                   23992449.7704
   1413507.72747   1128671.34843  23892391.4924                   23892394.7974
  -5850007.05548  -4537470.86346  20615588.8134                   20615586.7114
 -10307527.06647  -7997461.53545  22430293.8134                   22430293.1884
   9032955.97748   7042143.68845  21754918.5394                   21754916.9964
   5167821.41048   4038186.22346  21920796.5004                   21920792.6134
  15092047.94147  11753040.27343  23711249.6954                   23711249.7194
  -9723912.56648  -7555258.51646  21731628.7814                   21731627.4024
  -6943986.77047  -5388937.21545  22889907.1024                   22889905.2934
 11  8 10 18 21 30.0000000  0  9G03G24G07G11G13G19G23G08G28
  13943356.25446  10858529.61343  24004557.9144                   24004558.6484
   1294049.69147   1035587.25043  23869658.8364                   23869663.0944
  -5923505.90648  -4594742.70346  20601602.3444                   20601600.0664
 -10413040.84847  -8079680.01645  22410215.2814                   22410214.5944
   9079044.70748   7078056.91445  21763688.7664                   21763687.5784
   5193079.28948   4057867.65646  21925603.0394                   21925599.2624
  15160642.55147  11806490.35544  23724303.0004                   23724303.4774
  -9837892.79348  -7644074.27046  21709938.8914                   21709937.7894
  -7027634.47747  -5454117.21545  22873989.4144                   22873987.9884
 11  8 10 18 22  0.0000000  0  9G03G24G07G11G13G19G23G08G28
  14007008.83646  10908128.95342  24016670.8444                   24016671.1484
   1174538.84447    942461.99643  23846916.6094                   23846921.0824
  -5996807.03548  -4651860.48446  20587653.8524                   20587651.1994
 -10518321.74647  -8161717.00845  22390181.0394                   22390179.9414
   9125376.68848   7114159.68045  21772505.4064                   21772504.3954
   5218671.38748   4077809.51245  21930472.7504                   21930469.0744
  15229207.20347  11859917.10243  23737350.5864                   23737350.4924
  -9951866.62948  -7732885.05145  21688250.5314                   21688249.1914
  -7111231.82047  -5519257.96945  22858081.3054                   22858079.9344
 11  8 10 18 22 30.0000000  0  9G03G24G07G11G13G19G23G08G28
  14070689.90246  10957750.46142  24028788.1094                   24028789.2734
   1054991.96147    849308.67643  23824167.8054                   23824171.3164
  -6069895.12148  -4708812.25046  20573745.6954                   20573743.5554
 -10623353.19147  -8243559.65245  22370193.7344                   22370192.6294
   9171962.15247   7150459.96145  21781369.9144                   21781369.2544
   5244608.35548   4098020.10245  21935409.0084                   21935404.5274
  15297752.55947  11913328.76643  23750394.2114                   23750394.4224
 -10065818.79348  -7821678.91846  21666566.1724                   21666565.0864
  -7194766.06647  -5584349.53944  22842185.2814                   22842183.9384
 11  8 10 18 23  0.0000000  0  9G03G24G07G11G13G19G23G08G28
  14134392.67246  11007388.91043  24040911.4774                   24040911.5744
    935407.28947    756125.93043  23801411.8204                   23801414.8404
  -6142772.97348  -4765600.20746  20559877.7194                   20559875.0944
 -10728137.07447  -8325209.37145  22350254.5394                   22350253.2544
   9218793.98047   7186952.21145  21790282.2344                   21790281.7234
   5270883.18048   4118493.94945  21940408.4774                   21940405.2464
  15366270.86746  11966719.39143  23763433.2194                   23763433.8754
 -10179751.89848  -7910457.95346  21644885.2814                   21644884.0004
  -7278242.61347  -5649396.16445  22826299.8524                   22826298.2584
 11  8 10 18 23 30.0000000  0  9G03G24G07G11G13G19G23G08G28
  14198124.26646  11057049.78943  24053038.8674                   24053039.9184
    815797.92247    662923.93043  23778650.7424                   23778654.5864
  -6215428.92648  -4822215.24646  20546051.4694                   20546049.3094
 -10832660.40647  -8406656.07045  22330364.2424                   22330362.8984
   9265879.48447   7223642.14145  21799242.6954                   21799241.5234
   5297503.19548   4139236.80545  21945474.3674                   21945470.9734
  15434769.41846  12020094.60243  23776468.0234                   23776468.2034
 -10293653.94948  -7999212.79745  21623210.6094                   21623209.2194
  -7361652.45747  -5714390.80945  22810427.9774                   22810426.3324
 11  8 10 18 24  0.0000000  0  9G03G24G07G11G13G19G23G08G28
  14261872.35946  11106723.55943  24065169.9144                   24065170.5084
    696157.08247    569697.42243  23755883.5704                   23755887.1134
  -6287870.79348  -4878663.46946  20532266.2894                   20532264.2894
 -10936930.29747  -8487905.27045  22310522.4384                   22310521.1024
   9313205.33647   7260519.36345  21808248.2584                   21808247.0124
   5324456.14848   4160239.06645  21950603.3984                   21950599.6134
  15503235.73046  12073444.73043  23789496.6094                   23789497.5594
 -10407532.77048  -8087949.51646  21601540.2504                   21601539.0314
  -7445006.25447  -5779341.80145  22794566.3594                   22794564.1334
 11  8 10 18 24 30.0000000  0  9G03G24G07G11G13G19G23G08G28
  14325629.35246  11156404.30543  24077302.7114                   24077302.5164
    576483.02047    476445.02743  23733110.0864                   23733114.1254
  -6360101.27048  -4934946.98046  20518521.1884                   20518519.2074
 -11040948.41447  -8568958.30545  22290728.6254                   22290726.9264
   9360764.21548   7297578.13745  21817298.7114                   21817297.6294
   5351734.36748   4181494.79345  21955794.2274                   21955790.6764
  15571662.05946  12126763.63343  23802518.0084                   23802519.0744
 -10521391.07448  -8176670.26646  21579873.7344                   21579872.4804
  -7528309.27747  -5844253.21545  22778713.4304                   22778712.5594
 11  8 10 18 25  0.0000000  0  9G03G24G07G11G13G19G23G08G28
  14389427.73046  11206117.27743  24089442.8834                   24089443.0634
    456813.38346    383196.10244  23710338.0004                   23710341.3324
  -6432083.73448  -4991037.21946  20504823.6414                   20504820.8324
 -11144677.48447  -8649786.09045  22270989.2894                   22270988.5274
   9408587.81347   7334843.19945  21826398.8984                   21826398.3164
   5379370.25848   4203029.21145  21961052.7584                   21961049.3404
  15640080.28146  12180076.21143  23815537.9064                   23815539.1724
 -10635192.04748  -8265346.33645  21558217.7814                   21558216.7424
  -7611528.11747  -5909099.03145  22762878.0084                   22762876.5004
 11  8 10 18 25 30.0000000  0  9G03G24G07G11G13G19G23G08G28
  14453262.55946  11255858.63743  24101590.3284                   24101590.3204
    337148.91046    289951.15243  23687566.0474                   23687570.1054
  -6503819.05948  -5046934.88346  20491172.8284                   20491170.2894
 -11248117.31647  -8730388.50445  22251304.5394                   22251304.1174
   9456670.85547   7372310.41845  21835549.1254                   21835548.0554
   5407358.35948   4224838.08645  21966378.9144                   21966375.9024
  15708485.22346  12233378.46543  23828555.5394                   23828557.1454
 -10748936.42648  -8353978.30146  21536573.2194                   21536571.6804
  -7694665.80947  -5973881.61345  22747057.2894                   22747055.9774
 11  8 10 18 26  0.0000000  0  9G03G24G07G11G13G19G23G08G28
  14517135.98446  11305630.07443  24113745.0234                   24113744.6094
    217497.30947    196716.28943  23664797.2974                   23664801.0394
  -6575300.26248  -5102634.53146  20477570.0554                   20477567.6914
 -11351259.87947  -8810759.28545  22231677.9384                   22231676.5314
   9505015.14548   7409981.21545  21844748.7344                   21844747.7934
   5435700.86748   4246923.10945  21971772.7424                   21971768.8244
  15776878.39846  12286671.52343  23841570.0474                   23841571.9104
 -10862617.48048  -8442560.93046  21514940.4844                   21514939.0594
  -7777718.56247  -6038598.00445  22731253.0164                   22731251.0824
 11  8 10 18 26 30.0000000  0  9G03G24G07G11G13G19G23G08G28
  14581041.44546  11355426.46943  24125906.0554                   24125905.7544
     97858.00447    103490.93443  23642030.7974                   23642034.3634
  -6646529.67648  -5158137.98446  20464015.5084                   20464013.2624
 -11454106.28947  -8890899.30145  22212106.9224                   22212105.6054
   9553614.46547   7447850.71545  21853996.8054                   21853995.7814
   5464391.75048   4269279.62145  21977232.0704                   21977228.6374
  15845253.63746  12339950.62143  23854581.6564                   23854583.1884
 -10976236.26248  -8531095.03546  21493319.4304                   21493317.8914
  -7860690.77347  -6103251.64845  22715463.7274                   22715462.2624
 11  8 10 18 27  0.0000000  0  9G03G24G07G11G13G19G23G08G28
  14644975.56346  11405245.22743  24138072.1804                   24138072.4384
    -21767.39847     10276.48043  23619266.1564                   23619270.1454
  -6717506.57848  -5213444.66046  20450509.2894                   20450506.8484
 -11556655.03947  -8970807.37145  22192592.5784                   22192591.3914
   9602463.91048   7485915.14845  21863292.6414                   21863291.6644
   5493426.82448   4291904.31645  21982757.6094                   21982753.8834
  15913606.74246  12393212.47743  23867589.3524                   23867590.8754
 -11089792.65648  -8619580.52046  21471710.3444                   21471708.8954
  -7943584.69947  -6167844.29745  22699689.7664                   22699687.7154
 11  8 10 18 27 30.0000000  0  9G03G24G07G11G13G19G23G08G28
  14708944.53146  11455091.14843  24150245.3984                   24150246.0164
   -141366.39546    -82917.40643  23596507.1484                   23596510.8984
  -6788219.52348  -5268545.66846  20437052.9534                   20437050.5124
 -11658894.12947  -9050474.13745  22173137.1564                   22173135.7854
   9651570.21947   7524179.71945  21872637.1564                   21872636.6884
   5522812.66448   4314802.34045  21988349.6484                   21988346.5164
  15981944.31647  12446462.23043  23880594.1334                   23880594.7074
 -11203275.04348  -8708008.34046  21450115.5234                   21450113.9414
  -8026392.18047  -6232369.57445  22683931.8754                   22683930.1134
 11  8 10 18 28  0.0000000  0  8G24G07G11G13G19G23G08G28
   -260931.38347   -176084.81243  23573754.9614                   23573758.1454
  -6858662.59048  -5323436.37146  20423648.5314                   20423645.8204
 -11760816.46147  -9129894.09445  22153741.8594                   22153740.9774
   9700934.64147   7562645.41445  21882031.1484                   21882030.2664
   5552550.88348   4337974.94545  21994008.6174                   21994005.1374
  16050267.75046  12499700.94543  23893595.3914                   23893596.7854
 -11316677.04348  -8796373.52046  21428535.5784                   21428534.3324
  -8109109.37947  -6296824.50045  22668191.0474                   22668189.6484
 11  8 10 18 28 30.0000000  0  8G24G07G11G13G19G23G08G28
   -380456.09347   -269220.81843  23551010.1024                   23551013.0864
  -6928830.41448  -5378112.61346  20410295.6414                   20410293.2544
 -11862415.72747  -9209062.30945  22134408.0394                   22134406.9614
   9750557.29348   7601312.32845  21891474.1024                   21891472.6914
   5582642.28948   4361422.75845  21999734.6804                   21999731.5204
  16118577.66447  12552929.14544  23906595.0394                   23906595.9494
 -11429993.37548  -8884671.94946  21406972.0704                   21406970.5824
  -8191733.72747  -6361207.07445  22652468.4304                   22652466.6684
 11  8 10 18 29  0.0000000  0  8G24G07G11G13G19G23G08G28
   -499936.19147   -362322.05143  23528273.1334                   23528277.5704
  -6998720.14148  -5432572.13346  20396996.2734                   20396993.6214
 -11963688.01647  -9287975.74645  22115136.6564                   22115135.5944
   9800436.61747   7640179.25445  21900965.9224                   21900964.8594
   5613085.41848   4385144.63745  22005527.8834                   22005524.3014
  16186872.27746  12606145.38743  23919590.9924                   23919592.3164
 -11543220.32448  -8972900.71946  21385425.7034                   21385424.5044
  -8274265.27047  -6425517.34045  22636763.1024                   22636761.9064
 11  8 10 18 29 30.0000000  0  8G24G07G11G13G19G23G08G28
   -619365.80147   -455383.98043  23505547.2584                   23505549.7344
  -7068326.87548  -5486811.16046  20383750.7424                   20383747.9884
 -12064627.88347  -9366630.15245  22095928.3984                   22095927.5474
   9850572.64147   7679246.20745  21910506.5944                   21910505.6884
   5643880.32048   4409140.61745  22011388.2034                   22011384.3524
  16255151.66046  12659349.77743  23932584.8914                   23932586.4384
 -11656353.21948  -9061056.20746  21363897.4694                   21363895.6644
  -8356701.83647  -6489753.58645  22621076.3754                   22621074.2344
 11  8 10 18 30  0.0000000  0  8G24G07G11G13G19G23G08G28
   -738734.70347   -548398.53943  23482831.8674                   23482834.2504
  -7137642.13748  -5540823.05546  20370559.8834                   20370557.7974
 -12165225.63747  -9445017.97345  22076785.3674                   22076783.9494
   9900969.46147   7718516.37145  21920097.2274                   21920095.8014
   5675031.02748   4433413.85245  22017315.4384                   22017312.1334
  16323420.25646  12712545.73843  23945576.5634                   23945577.2384
 -11769383.07448  -9149131.40646  21342388.4534                   21342386.8834
  -8439037.14147  -6553910.94145  22605407.9224                   22605406.5784
 11  8 10 18 30 30.0000000  0  8G24G07G11G13G19G23G08G28
   -858042.75847   -641365.73443  23460127.6174                   23460130.8794
  -7206666.72748  -5594608.44946  20357425.2504                   20357423.0744
 -12265481.18747  -9523139.14545  22057707.4924                   22057705.4964
   9951621.17647   7757985.13745  21929735.7194                   21929734.8794
   5706532.53948   4457960.44945  22023310.2734                   22023306.9184
  16391672.34446  12765728.87943  23958564.2894                   23958566.3094
 -11882310.57448  -9237126.85246  21320899.0234                   21320897.6054
  -8521274.85547  -6617992.24245  22589759.0004                   22589756.8244
 11  8 10 18 31  0.0000000  0  8G24G07G11G13G19G23G08G28
   -977292.40647   -734287.37144  23437435.8284                   23437438.3874
  -7275404.25448  -5648170.17246  20344345.2584                   20344342.4344
 -12365397.23047  -9600995.76645  22038693.5004                   22038692.3484
  10002519.19147   7797645.84445  21939421.1564                   21939420.2234
   5738376.39847   4482773.80945  22029370.1884                   22029366.7624
  16459899.49646  12818892.53943  23971547.2894                   23971548.5234
 -11995138.96548  -9325045.06246  21299428.4614                   21299426.9144
  -8603421.52747  -6682002.61745  22574126.9454                   22574125.2234
 11  8 10 18 31 30.0000000  0  8G24G07G11G13G19G23G08G28
  -1096476.96147   -827158.32043  23414755.5314                   23414758.2074
  -7343849.20748  -5701503.89846  20331320.4614                   20331318.0004
 -12464967.48847  -9678582.94145  22019745.9064                   22019744.6254
  10053664.11748   7837498.93445  21949154.1334                   21949153.4654
   5770563.39848   4507854.53145  22035495.2034                   22035491.8164
  16528102.64546  12872037.53543  23984526.1564                   23984528.0944
 -12107862.48448  -9412881.56646  21277977.8754                   21277976.1724
  -8685474.43448  -6745939.92245  22558512.5634                   22558510.8484
 11  8 10 18 32  0.0000000  0  8G24G07G11G13G19G23G08G28
  -1215601.23447   -919982.28144  23392087.1024                   23392089.3054
  -7412007.89148  -5754614.55946  20318349.8524                   20318348.0084
 -12564197.25848  -9755904.82045  22000863.5084                   22000862.4804
  10105045.63347   7877536.38345  21958931.5314                   21958931.1844
   5803083.28547   4533194.66845  22041683.3364                   22041680.2154
  16596271.62946  12925155.89543  23997498.1564                   23997500.5124
 -12220486.82448  -9500640.78146  21256546.3594                   21256544.6214
  -8767441.84447  -6809810.60545  22542914.9924                   22542913.0354
 11  8 10 18 32 30.0000000  0  8G24G07G11G13G19G23G08G28
  -1334655.87147  -1012751.96144  23369431.6094                   23369433.6914
  -7479871.73048  -5807495.48446  20305436.0084                   20305433.8714
 -12663077.51247  -9832954.34845  21982047.1414                   21982045.5744
  10156666.44547   7917760.28945  21968754.7814                   21968754.0554
   5835939.25048   4558796.68045  22047936.0474                   22047933.1644
  16664409.50046  12978250.00043  24010464.8204                   24010466.9384
 -12333003.46948  -9588316.07446  21235134.9454                   21235133.6294
  -8849318.76647  -6873610.79345  22527334.2504                   22527332.0824
 11  8 10 18 33  0.0000000  0  8G24G07G11G13G19G23G08G28
  -1453646.21147  -1105471.57443  23346787.6804                   23346790.4734
  -7547447.87548  -5860152.23447  20292576.6804                   20292574.4574
 -12761614.51247  -9909736.41445  21963296.0784                   21963294.1804
  10208514.88348   7958161.58245  21978621.3754                   21978620.6954
   5869120.00447   4584651.77045  22054250.0784                   22054246.8094
  16732504.87146  13031310.97343  24023423.9614                   24023425.5084
 -12445419.16048  -9675912.70746  21213743.2424                   21213741.3284
  -8931114.93447  -6937348.04745  22511768.7114                   22511766.5124
 11  8 10 18 33 30.0000000  0  8G24G07G11G13G19G23G08G28
  -1572556.33247  -1198128.68043  23324160.1254                   23324162.8164
  -7614721.48448  -5912573.23446  20279774.8754                   20279772.7344
 -12859792.44948  -9986238.67645  21944612.9924                   21944611.9774
  10260601.21547   7998748.21945  21988533.3444                   21988532.5084
   5902635.75448   4610767.90645  22060627.5084                   22060624.1294
  16800567.79746  13084346.68043  24036375.9224                   24036377.7704
 -12557718.85248  -9763418.95346  21192373.3914                   21192371.7304
  -9012817.80547  -7001012.58645  22496221.3754                   22496219.1724
 11  8 10 18 34  0.0000000  0  9G17G24G07G11G13G19G23G08G28
   6033954.39157   4738060.45754  24499477.3914                   24499481.4774
  -1691388.09047  -1290724.71544  23301546.7424                   23301549.5634
  -7681695.64548  -5964760.89146  20267030.3444                   20267028.4964
 -12957613.59447 -10062462.92245  21925998.4384                   21925997.4024
  10312917.33247   8039513.92645  21998488.6094                   21998488.2274
   5936478.84847   4637139.10245  22067067.7894                   22067064.7584
  16868590.82446  13137351.31643  24049320.6254                   24049322.2704
 -12669905.27348  -9850836.94946  21171024.5314                   21171023.2344
  -9094433.30547  -7064609.05945  22480690.1804                   22480688.5314
 11  8 10 18 34 30.0000000  0  9G17G24G07G11G13G19G23G08G28
   5882225.48846   4619830.26643  24470604.0474                   24470607.8134
  -1810152.80147  -1383268.49643  23278946.1954                   23278949.2624
  -7748383.17248  -6016725.20346  20254340.1954                   20254337.8674
 -13055089.65247 -10138418.26645  21907449.3364                   21907447.7544
  10365445.85548   8080445.13745  22008484.6334                   22008483.6294
   5970632.09847   4663751.96945  22073567.0004                   22073564.1684
  16936556.89546  13190311.54343  24062255.2734                   24062256.3364
 -12781990.27348  -9938175.90646  21149695.9774                   21149694.3834
  -9175976.71147  -7128149.34445  22465172.7894                   22465171.5394
 11  8 10 18 35  0.0000000  0  9G17G24G07G11G13G19G23G08G28
   5730532.87146   4501628.31343  24441737.9774                   24441741.6564
  -1928850.18047  -1475759.83243  23256359.1024                   23256361.1994
  -7814785.07848  -6068466.94546  20241704.3594                   20241701.6374
 -13152220.80547 -10214104.85245  21888965.4614                   21888964.7584
  10418180.63348   8121537.06645  22018519.6644                   22018518.6764
   6005089.71147   4690602.01245  22080124.1644                   22080121.0204
  17004460.10547  13243222.80143  24075176.3054                   24075178.4924
 -12893974.73448 -10025436.52046  21128385.6174                   21128384.1374
  -9257451.74247  -7191636.34445  22449668.7814                   22449666.8244
 11  8 10 18 35 30.0000000  0  9G17G24G07G11G13G19G23G08G28
   7154304.94146   5611061.22343  24712672.7584                   24712675.9184
   -472051.83246   -340592.13343  23533578.1254                   23533581.0784
  -6305476.01248  -4892381.94146  20528916.2664                   20528913.9024
 -11673580.08247  -9061917.25045  22170341.7504                   22170340.8484
  12046538.50447   9390387.24245  22328385.9384                   22328384.9144
   7615269.31347   5945287.37145  22386531.4844                   22386528.1994
  18647716.67646  14523682.08243  24387877.8444                   24387880.4884
 -11430431.58648  -8885013.27346  21406888.9844                   21406887.2774
  -7763435.22347  -6027467.59045  22733970.6174                   22733968.6414
 11  8 10 18 36  0.0000000  0  9G17G24G07G11G13G19G23G08G28
   7002694.58246   5492923.34843  24683822.3204                   24683825.0594
   -590601.53147   -432968.39544  23511019.0784                   23511022.2384
  -6371297.30948  -4943671.28146  20516390.8834                   20516388.4144
 -11770010.37147  -9137057.71545  22151991.7424                   22151990.8054
  12099680.87147   9431796.78145  22338498.8834                   22338497.9844
   7650331.32447   5972608.36745  22393202.8364                   22393199.7584
  18715489.64146  14576491.83243  24400774.6724                   24400777.0274
 -11542205.05548  -8972109.48046  21385618.6414                   21385617.3054
  -7844772.56247  -6090847.31245  22718492.5164                   22718490.0004
 11  8 10 18 36 30.0000000  0  9G17G24G07G11G13G19G23G08G28
   6851141.57046   5374830.23042  24654981.8364                   24654985.7584
   -709059.84446   -525273.44544  23488476.9384                   23488480.8054
  -6436813.23848  -4994722.64546  20503923.5944                   20503921.2894
 -11866073.59447  -9211912.14545  22133711.6024                   22133710.1214
  12153035.59447   9473371.76645  22348651.4064                   22348651.0124
   7685704.37147   6000171.73045  22399934.7664                   22399931.3834
  18783206.47047  14629257.86243  24413661.0944                   24413663.6844
 -11653856.77048  -9059110.79746  21364372.0634                   21364370.5984
  -7926029.60547  -6154164.44945  22703029.8674                   22703028.2584
 11  8 10 18 37  0.0000000  0  9G17G24G07G11G13G19G23G08G28
   6699632.95346   5256771.74643  24626150.4384                   24626154.7664
   -827438.36747   -617516.31243  23465950.0314                   23465953.0744
  -6502036.27748  -5045545.80147  20491512.0554                   20491509.6334
 -11961781.82047  -9286489.94945  22115498.9384                   22115497.2624
  12206584.71547   9515098.25444  22358842.2974                   22358841.1094
   7721370.81347   6027963.72745  22406721.7194                   22406718.7114
  18850849.93046  14681966.72343  24426533.1174                   24426535.9184
 -11765399.19948  -9146026.96546  21343146.6414                   21343144.8444
  -8007222.08247  -6217431.27745  22687579.2344                   22687577.9344
 11  8 10 18 37 30.0000000  0  9G17G24G07G11G13G19G23G08G28
   6548188.82046   5138763.47343  24597332.6414                   24597336.2154
   -945716.28147   -709680.79343  23443442.6334                   23443445.7344
  -6566947.45348  -5096125.94546  20479159.7274                   20479157.3674
 -12057114.69947  -9360775.27045  22097357.4534                   22097356.3794
  12260342.67647   9556987.48045  22369072.4454                   22369071.0434
   7757345.42247   6055995.83645  22413567.4844                   22413564.3674
  18918434.35546  14734629.55143  24439395.3674                   24439397.1294
 -11876812.51648  -9232842.53146  21321945.3364                   21321943.6254
  -8088332.70747  -6280634.31645  22672144.5084                   22672143.3054
 11  8 10 18 38  0.0000000  0  9G17G24G07G11G13G19G23G08G28
   6396813.44946   5020808.80143  24568526.2814                   24568530.4024
  -1063888.19947   -801762.64844  23420955.0554                   23420958.4414
  -6631542.40648  -5146459.67246  20466867.8914                   20466865.7704
 -12152067.56647  -9434764.48445  22079288.1024                   22079287.1134
  12314308.67247   9599038.79345  22379341.5394                   22379340.5594
   7793627.83647   6084267.80945  22420472.3284                   22420468.4144
  18985959.28946  14787246.01243  24452245.1254                   24452247.2424
 -11988091.96548  -9319553.77346  21300769.4694                   21300767.7194
  -8169360.50447  -6343772.82845  22656725.1724                   22656723.5044
 11  8 10 18 38 30.0000000  0  9G17G24G07G11G13G19G23G08G28
   6245502.37546   4902904.21944  24539733.2274                   24539736.6174
  -1181957.31647   -893764.42244  23398486.7584                   23398490.5514
  -6695825.61748  -5196550.49246  20454635.0004                   20454632.9454
 -12246644.06647  -9508460.43445  22061291.0314                   22061290.1764
  12368473.80547   9641245.27745  22389648.6094                   22389647.5664
   7830209.04347   6112772.60945  22427432.9774                   22427430.3984
  19053416.34046  14839809.60943  24465081.7894                   24465084.7074
 -12099241.63348  -9406163.90646  21279618.3364                   21279616.5514
  -8250312.37547  -6406852.17645  22641320.5864                   22641319.0434
 11  8 10 18 39  0.0000000  0  9G17G24G07G11G13G19G23G08G28
   6094246.74247   4785042.87944  24510949.9614                   24510953.0634
  -1299931.90247   -985692.51244  23376037.4694                   23376039.6954
  -6759806.47348  -5246405.71146  20442460.1644                   20442457.5274
 -12340852.93447  -9581869.91445  22043363.4064                   22043362.2854
  12422823.31647   9683595.43845  22399991.5474                   22399990.3284
   7867074.94547   6141499.25445  22434448.4844                   22434445.1214
  19120791.34446  14892309.25043  24477901.8754                   24477905.5554
 -12210270.61348  -9492679.98446  21258490.1644                   21258488.8794
  -8331200.20747  -6469881.62545  22625928.5164                   22625926.3954
 11  8 10 18 39 30.0000000  0  9G17G24G07G11G13G19G23G08G28
   5943061.23047   4667236.18844  24482179.8204                   24482183.9024
  -1417796.14147  -1077534.64544  23353608.6094                   23353611.4884
  -6823470.69948  -5296014.21146  20430345.2734                   20430342.8014
 -12434679.17247  -9654981.25845  22025509.5394                   22025507.6374
  12477367.16447   9726097.03144  22410370.0784                   22410370.2114
   7904235.14147   6170455.20345  22441519.3754                   22441516.4064
  19188094.05146  14944752.53543  24490710.4454                   24490713.1414
 -12321164.08248  -9579090.48446  21237388.1804                   21237386.8444
  -8412012.71547  -6532852.37945  22610550.1174                   22610548.0274
 11  8 10 18 40  0.0000000  0  9G17G24G07G11G13G19G23G08G28
   5791937.77347   4549477.85244  24453422.3134                   24453425.9884
  -1535556.97347  -1169296.18744  23331199.4924                   23331201.9344
  -6886826.87548  -5345382.67646  20418289.0394                   20418286.3324
 -12528130.25447  -9727800.25045  22007726.1884                   22007724.8164
  12532092.06647   9768739.69944  22420784.4144                   22420784.1214
   7941677.02747   6199630.66445  22448644.6954                   22448641.7154
  19255312.02046  14997129.81343  24503501.6954                   24503504.9924
 -12431929.79748  -9665401.41446  21216309.5394                   21216308.4384
  -8492760.68447  -6595772.84845  22595184.4774                   22595182.7274
 11  8 10 18 40 30.0000000  0  8G17G24G07G11G13G19G08G28
   5640877.79347   4431769.00044  24424675.7114                   24424680.1174
  -1653211.63747  -1260975.00444  23308810.2734                   23308812.3594
  -6949873.67648  -5394510.05946  20406291.2114                   20406288.9494
 -12621204.49248  -9800325.60545  21990014.7034                   21990013.6484
  12586994.27347   9811520.52744  22431231.7894                   22431231.4224
   7979397.02747   6229022.83245  22455822.4924                   22455819.2934
 -12542566.10948  -9751611.52746  21195256.5314                   21195255.3324
  -8573445.55147  -6658644.14845  22579831.0784                   22579828.6214
 11  8 10 18 41  0.0000000  0  8G17G24G07G11G13G19G08G28
   5489877.32046   4314106.51644  24395941.2424                   24395945.0864
  -1770763.52347  -1352573.74644  23286440.9774                   23286443.3444
  -7012615.67648  -5443399.94146  20394352.0864                   20394349.4734
 -12713905.19947  -9872559.89545  21972374.9924                   21972373.2974
  12642064.66847   9854432.39144  22441711.3914                   22441711.5044
   8017386.27347   6258624.81645  22463051.8054                   22463048.6334
 -12653076.84848  -9837723.78146  21174227.0634                   21174225.6684
  -8654074.38347  -6721471.78945  22564487.3444                   22564485.5474
 11  8 10 18 41 30.0000000  0  8G17G24G07G11G13G19G08G28
   5338943.58246   4196496.02344  24367219.6414                   24367222.6644
  -1888204.09047  -1444085.73843  23264092.4774                   23264094.9884
  -7075045.71948  -5492046.74246  20382471.9924                   20382469.4104
 -12806225.03547  -9944497.39845  21954806.4534                   21954805.3094
  12697305.66047   9897477.19944  22452223.5234                   22452223.4184
   8055647.13747   6288438.43445  22470332.7114                   22470329.6454
 -12763454.59048  -9923732.40246  21153223.0554                   21153221.9304
  -8734642.84048  -6784252.37145  22549155.9534                   22549153.8094
 11  8 10 18 42  0.0000000  0  8G17G24G07G11G13G19G08G28
   5188084.99646   4078944.10943  24338511.6094                   24338515.3364
  -2005523.65647  -1535503.46144  23241767.5554                   23241770.0314
  -7137155.75048  -5540444.17246  20370652.8364                   20370650.3094
 -12898155.05148 -10016131.14845  21937312.6414                   21937311.6804
  12752720.70347   9940657.61745  22462768.5164                   22462768.8244
   8094183.57047   6318466.77745  22477666.2424                   22477662.7274
 -12873690.39848 -10009630.42646  21132245.8594                   21132244.0744
  -8815144.97347  -6846981.29345  22533836.6884                   22533834.9574
 11  8 10 18 42 30.0000000  0  8G17G24G07G11G13G19G08G28
   5037303.20746   3961452.09443  24309818.0864                   24309821.9884
  -2122719.76247  -1626824.98444  23219465.5164                   23219467.5274
  -7198944.24648  -5588591.06646  20358895.1564                   20358892.6844
 -12989693.18447 -10087459.54745  21919893.5234                   21919891.9654
  12808305.92247   9983970.64544  22473346.3754                   22473346.7034
   8132992.18047   6348707.20745  22485051.5394                   22485048.1024
 -12983782.31648 -10095416.33646  21111295.8054                   21111294.1844
  -8895582.32447  -6909659.71545  22518529.8284                   22518527.8794
 11  8 10 18 43  0.0000000  0  8G17G24G07G11G13G19G08G28
   4886597.53946   3844019.34443  24281139.3594                   24281143.1524
  -2239791.72347  -1718049.75444  23197187.4064                   23197189.5514
  -7260412.27748  -5636488.23846  20347198.0634                   20347195.4884
 -13080840.14548 -10158483.12545  21902549.1644                   21902547.3484
  12864055.41847  10027411.69544  22483955.4694                   22483954.7854
   8172067.22747   6379155.27745  22492486.3364                   22492484.2934
 -13093731.25048 -10181090.82046  21090373.1174                   21090371.6884
  -8975958.53547  -6972290.49645  22503234.5864                   22503233.0514
 11  8 10 18 43 30.0000000  0  8G17G24G07G11G13G19G08G28
   4735962.06346   3726641.30143  24252473.9774                   24252478.2384
  -2356744.92647  -1809182.00043  23174931.7814                   23174933.6564
  -7321566.85548  -5684141.16447  20335560.6094                   20335558.5784
 -13171601.53947 -10229206.25045  21885277.9224                   21885275.7234
  12919958.19147  10070972.17644  22494593.6954                   22494592.9414
   8211397.81347   6409802.44145  22499971.2584                   22499968.2774
 -13203542.77348 -10266658.23446  21069476.7664                   21069475.2624
  -9056282.73847  -7034880.75445  22487949.8674                   22487947.6564
 11  8 10 18 44  0.0000000  0  9G17G24G07G26G11G13G19G08G28
   4585402.12946   3609322.09843  24223823.4224                   24223827.5474
  -2473573.00047  -1900216.76244  23152700.2664                   23152701.5204
  -7382402.73448  -5731545.75047  20323984.0784                   20323981.7464
   7635056.90256   5982231.35553  24221182.6254                   24221183.0354
 -13261971.53147 -10299624.39545  21868080.6644                   21868079.4064
  12976014.44947  10114652.24644  22505260.5084                   22505260.8094
   8250984.53947   6440649.19945  22507504.6024                   22507501.5434
 -13313211.08648 -10352114.05946  21048607.7344                   21048606.1214
  -9136552.52047  -7097428.60245  22472674.1414                   22472672.7624
 11  8 10 18 44 30.0000000  0  9G17G24G07G26G11G13G19G08G28
   4434900.25446   3492048.12543  24195185.0474                   24195187.5274
  -2590291.82847  -1991166.36744  23130489.2664                   23130490.3674
  -7442937.76248  -5778715.91046  20312464.5084                   20312462.3404
   7498276.87946   5875649.61343  24195153.8754                   24195153.5354
 -13351967.07047 -10369750.75845  21850954.9694                   21850953.8984
  13032202.03947  10158434.63744  22515953.0634                   22515952.7424
   8290805.21947   6471678.25845  22515081.9144                   22515079.2344
 -13422753.23848 -10437471.56246  21027762.9384                   21027761.1764
  -9216787.84447  -7159949.59045  22457406.2734                   22457404.1564
 11  8 10 18 45  0.0000000  0  9G17G24G07G26G11G13G19G08G28
   4284460.93047   3374822.86344  24166556.8594                   24166559.9534
  -2706896.06247  -2082026.66043  23108299.6884                   23108301.5314
  -7503167.49648  -5825648.18746  20301003.2194                   20301000.7894
   7361795.07846   5769300.23443  24169182.6484                   24169181.8524
 -13441583.40647 -10439581.65245  21833901.5234                   21833900.1804
  13088520.12547  10202318.73044  22526670.4924                   22526670.0124
   8330859.40247   6502889.27745  22522704.1334                   22522701.3484
 -13532164.55148 -10522727.12146  21006942.1954                   21006940.7154
  -9296987.09847  -7222442.50045  22442145.0704                   22442142.8404
 11  8 10 18 45 30.0000000  0  9G17G24G07G26G11G13G19G08G28
   4134080.94147   3257643.86344  24137940.1724                   24137943.3674
  -2823387.98847  -2172799.49644  23086131.8594                   23086134.1564
  -7563095.66448  -5872345.48046  20289599.4694                   20289596.7464
   7225608.97746   5663181.22743  24143267.6644                   24143266.2464
 -13530823.87147 -10509119.66045  21816919.5864                   21816918.0354
  13144960.29747  10246297.94944  22537410.4304                   22537410.2704
   8371138.78147   6534275.77345  22530369.0474                   22530365.6214
 -13641448.29748 -10607883.29346  20986146.0004                   20986144.9184
  -9377156.75847  -7284912.34845  22426889.2894                   22426887.1644
 11  8 10 18 46  0.0000000  0  9G17G24G07G26G11G13G19G08G28
   3983783.10247   3140528.84844  24109339.8594                   24109342.3324
  -2939743.46947  -2263465.99644  23063990.4614                   23063992.4964
  -7622699.87148  -5918790.32847  20278257.3444                   20278254.5044
   7089742.39146   5557311.23043  24117413.1174                   24117412.4344
 -13619665.19548 -10578346.64145  21800013.5234                   21800012.7114
  13201540.26247  10290386.09844  22548177.3284                   22548177.0984
   8411661.73047   6565852.05945  22538080.4304                   22538077.6254
 -13750580.80948 -10692921.60546  20965378.9144                   20965377.8444
  -9457276.51647  -7347343.29745  22411643.2344                   22411641.1134
 11  8 10 18 46 30.0000000  0  9G17G24G07G26G11G13G19G08G28
   3833555.97347   3023468.93044  24080752.0004                   24080755.4344
  -3055972.77746  -2354034.17644  23041871.9144                   23041874.5434
  -7681991.75848  -5964991.80546  20266974.2274                   20266971.5004
   6954184.37546   5451681.65243  24091616.4064                   24091617.6134
 -13708118.61747 -10647271.36345  21783181.7894                   21783179.9144
  13258243.67247  10334570.42644  22558967.7734                   22558967.8874
   8452411.80947   6597605.32445  22545835.0944                   22545832.1994
 -13859573.36748 -10777850.86746  20944638.2734                   20944636.9534
  -9537360.85247  -7409746.66045  22396403.4844                   22396401.4534
 11  8 10 18 47  0.0000000  0  9G17G24G07G26G11G13G19G08G28
   3683403.98847   2906467.59844  24052179.4304                   24052182.1134
  -3172070.27347  -2444499.66044  23019779.8444                   23019781.9384
  -7740967.28148  -6010946.78146  20255751.3834                   20255748.8094
   6818940.69946   5346297.02743  24065880.6884                   24065882.1414
 -13796179.11747 -10715889.89845  21766424.1334                   21766423.0784
  13315069.95347  10378850.50844  22569781.7974                   22569781.7304
   8493388.69147   6629535.31645  22553632.7894                   22553628.9884
 -13968421.03948 -10862667.23046  20923925.0314                   20923923.5864
  -9617407.78947  -7472120.86745  22381170.9064                   22381169.0984
 11  8 10 18 47 30.0000000  0  9G17G24G07G26G11G13G19G08G28
   3533331.66046   2789528.31344  24023621.0004                   24023623.9534
  -3288030.66846  -2534858.30544  22997712.9774                   22997714.8444
  -7799622.78548  -6056652.37946  20244589.6484                   20244587.1294
   6684015.83646   5241160.83243  24040204.7894                   24040206.3324
 -13883842.33247 -10784198.85945  21749742.0864                   21749741.0594
  13372017.98447  10423225.45344  22580618.4224                   22580618.1764
   8534591.91447   6661641.67245  22561473.3444                   22561470.1884
 -14077119.18748 -10947367.07046  20903240.7974                   20903239.6024
  -9697416.58647  -7534465.37945  22365945.6024                   22365943.7344
 11  8 10 18 48  0.0000000  0  9G17G24G07G26G11G13G19G08G28
   3383340.08246   2672651.95344  23995078.7814                   23995081.3984
  -3403852.05546  -2625108.60544  22975672.9534                   22975674.8094
  -7857957.32448  -6102107.87146  20233488.9694                   20233486.7424
   6549412.08646   5136274.87542  24014591.0784                   24014592.0234
 -13971106.80147 -10852197.12945  21733136.4304                   21733134.8094
  13429084.12147  10467692.41844  22591477.6334                   22591477.7544
   8576017.55547   6693921.35945  22569356.6174                   22569353.5044
 -14185666.67248 -11031949.52346  20882584.8134                   20882583.5004
  -9777388.72747  -7596781.30945  22350727.6414                   22350725.8554
 11  8 10 18 48 30.0000000  0  9G17G24G07G26G11G13G19G08G28
   3233433.61346   2555841.94544  23966551.9454                   23966554.8554
  -3519528.80947  -2715246.24244  22953660.5704                   22953662.3014
  -7915967.14848  -6147310.34846  20222449.9844                   20222447.5394
   6415134.46946   5031643.03942  23989038.5314                   23989039.4614
 -14057968.28547 -10919881.37945  21716607.6024                   21716606.0394
  13486267.60947  10512250.83244  22602359.6644                   22602359.5434
   8617665.43447   6726374.22745  22577281.6954                   22577278.4344
 -14294058.54348 -11116410.71546  20861958.5164                   20861957.1524
  -9857322.60247  -7659067.42245  22335516.3134                   22335514.6094
 11  8 10 18 49  0.0000000  0  9G17G24G07G26G11G13G19G08G28
   3083610.72346   2439097.04744  23938041.4454                   23938044.3634
  -3635061.25047  -2805271.42644  22931675.0084                   22931677.3834
  -7973653.93748  -6192261.10946  20211472.9924                   20211470.5594
   6281182.13746   4927264.71542  23963548.2584                   23963549.6914
 -14144427.96147 -10987252.53145  21700154.4144                   21700153.3484
  13543561.75047  10556895.44944  22613262.1804                   22613262.6214
   8659529.01247   6758995.15245  22585248.3284                   22585245.1604
 -14402295.35248 -11200751.06646  20841361.5864                   20841359.9414
  -9937222.50447  -7721327.07045  22320312.2504                   22320310.0434
 11  8 10 18 49 30.0000000  0  9G17G24G07G26G11G13G19G08G28
   2933873.96546   2322419.25844  23909546.9534                   23909550.0274
  -3750445.37947  -2895181.03144  22909718.5704                   22909720.0864
  -8031015.36748  -6236958.34446  20200557.1254                   20200554.7544
   6147558.81146   4823142.70542  23938120.0634                   23938121.9964
 -14230482.88747 -11054308.28145  21683778.8594                   21683777.9184
  13600964.59447  10601624.76644  22624185.7664                   22624186.2664
   8701606.54347   6791782.81345  22593255.3914                   22593251.7814
 -14510374.55948 -11284968.62546  20820795.0314                   20820793.4654
 -10017088.39147  -7783560.21145  22305114.2424                   22305111.6644
 11  8 10 18 50  0.0000000  0  9G17G24G07G26G11G13G19G08G28
   2784224.83246   2205809.74644  23881069.3594                   23881072.8364
  -3865678.94547  -2984973.32044  22887790.0634                   22887791.8014
  -8088050.68448  -6281401.44946  20189703.5784                   20189701.1484
   6014266.66446   4719278.71143  23912756.2734                   23912756.8094
 -14316131.66448 -11121047.58245  21667480.0864                   21667478.7544
  13658472.05147  10646435.61344  22635129.4304                   22635129.7584
   8743894.07047   6824734.05945  22601302.1414                   22601299.4304
 -14618294.50048 -11369062.07046  20800258.2584                   20800257.0744
 -10096922.08247  -7845768.25445  22289922.2114                   22289919.8674
 11  8 10 18 50 30.0000000  0  9G17G24G07G26G11G13G19G08G28
   2634671.52046   2089274.85944  23852610.5004                   23852612.6174
  -3980752.30147  -3074640.78544  22865892.6884                   22865894.7934
  -8144751.89848  -6325584.22346  20178913.7504                   20178911.2304
   5881314.54746   4615679.76243  23887456.4384                   23887456.0274
 -14401365.50047 -11187463.53945  21651260.7034                   21651259.4694
  13716087.55947  10691330.65644  22646093.0864                   22646093.6094
   8786395.53147   6857852.05545  22609389.7114                   22609387.2464
 -14726046.23848 -11453024.45346  20779754.0474                   20779752.6564
 -10176717.89547  -7907946.79745  22274737.1884                   22274735.1174
 11  8 10 18 51  0.0000000  0  9G17G24G07G26G11G13G19G08G28
   2485201.38346   1972804.82444  23824167.2114                   23824169.8984
  -4095677.43447  -3164192.75444  22844022.4454                   22844024.7624
  -8201132.35948  -6369517.06246  20168184.6644                   20168182.5234
   5748690.23446   4512336.21943  23862217.9924                   23862219.1414
 -14486197.35247 -11253566.26645  21635117.7664                   21635116.5864
  13773793.21547  10736295.92244  22657074.7344                   22657074.8364
   8829093.02347   6891122.78545  22617515.1254                   22617512.3524
 -14833642.66848 -11536865.81646  20759278.7504                   20759277.5124
 -10256491.53147  -7970108.05945  22259556.6484                   22259555.2074
 11  8 10 18 51 30.0000000  0  9G17G24G07G26G11G13G19G08G28
   3911261.94147   3084021.00444  24095537.0634                   24095539.2034
  -2635006.67647  -2026007.66844  23121978.8524                   23121980.9534
  -6681748.03148  -5185581.23446  20457314.0784                   20457311.8674
   7191841.57447   5636869.78944  24136840.8134                   24136841.2384
 -12995181.78948 -10091735.94145  21918848.8054                   21918847.2194
  15407024.53147  12008943.54744  22967868.5864                   22967868.6724
  10447422.66047   8152158.82445  22925472.6484                   22925470.0434
 -13365636.61748 -10392964.98846  21038631.2814                   21038629.9614
  -8760800.73447  -6804634.69145  22544177.4774                   22544175.5474
 11  8 10 18 52  0.0000000  0  9G17G24G07G26G11G13G19G08G28
   3762005.87546   2967717.73044  24067134.5314                   24067136.7234
  -2749584.16447  -2115288.72344  23100175.6954                   23100177.3914
  -6737440.41448  -5228977.90246  20446716.1484                   20446713.7734
   7059922.97347   5534076.12143  24111737.1094                   24111738.2114
 -13079161.51247 -10157174.67645  21902867.7584                   21902866.6484
  15464942.91447  12054074.57844  22978890.4064                   22978890.1914
  10490545.50847   8185761.00445  22933679.0944                   22933676.1604
 -13472872.34048 -10476525.28146  21018224.9064                   21018223.8914
  -8840490.74247  -6866730.77345  22529013.1334                   22529011.1414
 11  8 10 18 52 30.0000000  0  9G17G24G07G26G11G13G19G08G28
   3612838.36746   2851483.50844  24038748.5394                   24038750.9614
  -2864004.22347  -2204447.13344  23078402.2424                   23078404.2734
  -6792807.82448  -5272121.34847  20436180.4224                   20436177.9494
   6928339.85547   5431543.89143  24086698.1024                   24086698.9384
 -13162733.42647 -10222295.60945  21886964.7814                   21886963.2424
  15522941.69947  12099268.27044  22989927.2194                   22989927.2304
  10533855.66447   8219509.15245  22941920.7194                   22941917.5984
 -13579945.45348 -10559958.84846  20997849.6804                   20997848.1804
  -8920161.53147  -6928811.89545  22513852.2974                   22513850.2194
 11  8 10 18 53  0.0000000  0  9G17G24G07G26G11G13G19G08G28
   3463779.69547   2735334.05544  24010384.0314                   24010385.4774
  -2978246.11747  -2293466.67244  23056662.4064                   23056664.4534
  -6847830.94548  -5314996.50447  20425709.4774                   20425707.2424
   6797113.12147   5329289.32444  24061726.0864                   24061726.8874
 -13245877.63747 -10287083.29345  21871142.4454                   21871141.7344
  15581035.72747  12144536.18444  23000981.8594                   23000981.6054
  10577368.23847   8253415.00445  22950200.7894                   22950198.0004
 -13686835.61748 -10643249.86746  20977508.9774                   20977507.7624
  -8999795.95347  -6990864.65645  22498697.7734                   22498696.0664
 11  8 10 18 53 30.0000000  0  9G17G24G07G26G11G13G19G08G28
   3314834.25047   2619272.83644  23982039.5704                   23982041.8554
  -3092303.64547  -2382342.56644  23034958.0784                   23034959.9454
  -6902505.12148  -5357599.77346  20415305.6094                   20415303.3364
   6666248.78547   5227317.18044  24036823.5394                   24036824.3324
 -13328588.99647 -10351533.67645  21855403.3594                   21855402.0274
  15639225.38347  12189878.59844  23012054.9454                   23012055.2704
  10621083.43447   8287478.74645  22958520.0314                   22958516.7544
 -13793537.62548 -10726394.27746  20957204.1484                   20957202.7544
  -9079391.83647  -7052887.39845  22483551.3754                   22483549.7194
 11  8 10 18 54  0.0000000  0  9G17G24G07G26G11G13G19G08G28
   3165989.31647   2503289.94944  23953715.5864                   23953719.0744
  -3206188.68047  -2471084.06644  23013287.0634                   23013288.0474
  -6956843.74648  -5399941.57846  20404965.3134                   20404963.1454
   6535733.99247   5125617.43044  24011987.7664                   24011988.4924
 -13410880.32847 -10415656.77745  21839743.8594                   21839742.2424
  15697492.29747  12235281.23844  23023143.3754                   23023142.9304
  10664983.61347   8321686.62945  22966873.5234                   22966870.8094
 -13900063.71548 -10809401.61746  20936933.2194                   20936931.5434
  -9158964.79347  -7114892.27745  22468409.1804                   22468407.4494
 11  8 10 18 54 30.0000000  0  9G17G24G07G26G11G13G19G08G28
   3017262.50447   2387399.14144  23925414.3134                   23925417.0554
  -3319882.86747  -2559676.87144  22991650.7734                   22991652.5434
  -7010829.88348  -5442008.71546  20394691.9144                   20394689.4344
   6405586.95347   5024204.17643  23987221.8284                   23987221.7894
 -13492734.01247 -10479438.84845  21824167.3914                   21824165.7664
  15755849.10947  12280753.91444  23034248.3054                   23034248.2664
  10709081.15247   8356048.32045  22975265.1884                   22975261.9774
 -14006395.85948 -10892257.82046  20916698.6484                   20916697.0394
  -9238500.53947  -7176868.16445  22453274.1804                   22453272.1604
 11  8 10 18 55  0.0000000  0  9G17G24G07G26G11G13G19G08G28
   2868634.28947   2271585.15244  23897130.4844                   23897132.6524
  -3433404.26247  -2648135.00844  22970048.7894                   22970050.0944
  -7064483.29348  -5483816.57446  20384482.1254                   20384480.1374
   6275789.22746   4923063.13743  23962521.2584                   23962522.2854
 -13574169.77347 -10542895.25845  21808670.7664                   21808669.4024
  15814271.32447  12326277.54344  23045365.2424                   23045365.9304
  10753352.32047   8390545.28945  22983689.5004                   22983686.8284
 -14112553.04348 -10974977.69546  20896497.7584                   20896496.1134
  -9318020.81647  -7238831.98045  22438142.1174                   22438140.1134
 11  8 10 18 55 30.0000000  0  9G17G24G07G26G11G13G19G08G28
   2720111.00047   2155852.88744  23868866.9064                   23868869.8984
  -3546745.21147  -2736452.53944  22948480.5784                   22948482.1174
  -7117797.99248  -5525360.51246  20374336.5234                   20374334.2584
   6146348.05546   4822199.96543  23937889.5314                   23937889.8014
 -13655181.16847 -10606021.01645  21793254.7274                   21793253.4694
  15872760.61747  12371853.44943  23056495.4774                   23056496.8094
  10797798.69147   8425178.78945  22992147.0944                   22992144.3954
 -14218528.14848 -11057555.69546  20876330.8674                   20876329.5474
  -9397521.73047  -7300780.73045  22423013.9224                   22423011.7194
 11  8 10 18 56  0.0000000  0  9G17G24G07G26G11G13G19G08G28
   2571710.19147   2040216.10544  23840627.6724                   23840629.9454
  -3659887.21947  -2824615.05144  22926950.4924                   22926951.8954
  -7170757.09448  -5566627.35946  20364259.0164                   20364256.7074
   6017281.25846   4721628.49643  23913329.0704                   23913329.2664
 -13735750.35947 -10668802.19545  21777923.4614                   21777921.6454
  15931329.09847  12417491.04744  23067641.5864                   23067642.7934
  10842432.93047   8459958.67245  23000641.5784                   23000638.1644
 -14324303.71948 -11139978.19946  20856202.7894                   20856201.6294
  -9476989.35547  -7362703.52745  22407891.5314                   22407889.1954
 11  8 10 18 56 30.0000000  0  9G17G24G07G26G11G13G19G08G28
   2423428.91447   1924672.45344  23812410.7814                   23812413.0864
  -3772832.39847  -2912624.21944  22905457.3674                   22905458.7304
  -7223364.39548  -5607620.07846  20354248.3834                   20354245.6884
   5888586.33246   4621346.76243  23888837.8204                   23888839.3524
 -13815880.89147 -10731241.55145  21762674.3594                   21762673.4104
  15989968.65647  12463184.01644  23078800.3674                   23078800.9454
  10887247.05947   8494878.71545  23009168.8754                   23009166.3874
 -14429882.08648 -11222247.05946  20836111.9694                   20836110.3244
  -9556429.05547  -7424604.57045  22392774.4064                   22392772.2774
 11  8 10 18 57  0.0000000  0  9G17G24G07G26G11G13G19G08G28
   2275266.26247   1809221.23844  23784216.3524                   23784218.3164
  -3885580.10247  -3000479.50844  22884001.9774                   22884003.4924
  -7275620.84048  -5648339.40646  20344303.9844                   20344301.8594
   5760263.46546   4521354.95342  23864419.4224                   23864420.1914
 -13895573.18047 -10793339.42245  21747509.4924                   21747508.1644
  16048673.96547  12508928.25044  23089971.8134                   23089972.6764
  10932235.83647   8529934.86345  23017730.3364                   23017727.6954
 -14535263.40648 -11304362.35946  20816058.3674                   20816057.1844
  -9635844.19147  -7486486.48445  22377662.5164                   22377660.1524
 11  8 10 18 57 30.0000000  0  9G17G24G07G26G11G13G19G08G28
   2127227.94547   1693866.89144  23756045.4534                   23756047.1134
  -3998123.52747  -3088175.61344  22862586.1174                   22862586.5394
  -7327521.29748  -5688781.33646  20334427.7584                   20334425.7344
   5632318.96146   4421657.96142  23840072.9844                   23840072.7774
 -13974821.99647 -10855091.73445  21732429.3054                   21732427.9844
  16107445.52347  12554724.07844  23101155.5474                   23101156.9344
  10977399.87547   8565127.58645  23026324.5314                   23026321.7584
 -14640441.55948 -11386319.35946  20796044.0314                   20796042.1804
  -9715232.00847  -7548347.10245  22362554.8984                   22362553.5164
 11  8 10 18 58  0.0000000  0  9G17G24G07G26G11G13G19G08G28
   1979310.08247   1578606.38744  23727896.8054                   23727898.7894
  -4110465.75847  -3175714.94144  22841207.3674                   22841208.9734
  -7379070.71948  -5728949.73047  20324618.3524                   20324615.9734
   5504749.25446   4322253.07843  23815797.4844                   23815797.7234
 -14053631.32447 -10916501.58645  21717432.3594                   21717430.7504
  16166274.40647  12600564.55144  23112350.6254                   23112352.1334
  11022730.96547   8600450.48444  23034950.4064                   23034947.7234
 -14745419.93748 -11468120.68746  20776066.7424                   20776065.3754
  -9794598.96547  -7610191.46545  22347452.3594                   22347450.4614
 11  8 10 18 58 30.0000000  0  9G17G24G07G26G11G13G19G08G28
   1831521.20747   1463446.39544  23699774.4224                   23699775.6954
  -4222596.98447  -3263089.84444  22819869.8054                   22819871.4734
  -7430260.57048  -5768837.93447  20314877.1954                   20314875.1604
   5377563.84047   4223147.59843  23791594.6954                   23791595.1644
 -14131992.39547 -10977562.14145  21702520.6414                   21702518.9924
  16225164.20747  12646452.52744  23123557.1804                   23123557.8094
  11068232.75447   8635906.37945  23043610.0084                   23043606.4844
 -14850189.09048 -11549758.97346  20756130.2424                   20756128.3674
  -9873939.39547  -7672015.16045  22332353.6954                   22332352.1174
 11  8 10 18 59  0.0000000  0  9G17G24G07G26G11G13G19G08G28
   1683879.55547   1348401.10244  23671679.1644                   23671680.5124
  -4334497.64847  -3350285.08244  22798575.3984                   22798576.7894
  -7481072.90248  -5808431.97747  20305207.9694                   20305205.8094
   5250781.72347   4124356.41043  23767468.2894                   23767468.8874
 -14209886.97347 -11038259.20345  21687698.0084                   21687696.5744
  16284128.45347  12692398.52344  23134777.2504                   23134778.2544
  11113919.24247   8671506.18845  23052303.4224                   23052300.8484
 -14954730.41048 -11631219.73446  20736236.6254                   20736234.9494
  -9953237.41847  -7733805.79745  22317264.0704                   22317262.0274
 11  8 10 18 59 30.0000000  0  9G17G24G07G26G11G13G19G08G28
   1536368.95747   1233457.94144  23643608.3984                   23643609.8554
  -4446182.89847  -3437312.48044  22777322.2814                   22777323.7624
  -7531524.60948  -5847745.00846  20295607.3134                   20295604.9414
   5124387.47747   4025867.39843  23743416.9694                   23743416.8954
 -14287331.61347 -11098605.66445  21672960.7894                   21672958.9104
  16343146.37147  12738386.32044  23146008.3444                   23146009.6564
  11159769.15647   8707233.35944  23061028.3674                   23061025.8874
 -15059059.21548 -11712514.90246  20716383.3674                   20716381.5634
 -10032511.98447  -7795578.16845  22302178.4924                   22302176.9694
 11  8 10 19  0  0.0000000  0  9G17G24G07G26G11G13G19G08G28
   1388992.72347   1118619.47744  23615563.0704                   23615565.0984
  -4557648.52347  -3524168.74644  22756111.0234                   22756112.8634
  -7581613.19948  -5886775.09046  20286075.8364                   20286073.1684
   4998384.51647   3927683.35244  23719439.0314                   23719439.4414
 -14364323.00047 -11158598.94145  21658309.4534                   21658308.6094
  16402215.56347  12784414.06344  23157249.0784                   23157250.1214
  11205781.30147   8743086.92644  23069784.1174                   23069781.1524
 -15163172.09048 -11793641.81246  20696571.4144                   20696569.7734
 -10111762.99248  -7857332.17245  22287097.5164                   22287095.5044
 11  8 10 19  0 30.0000000  0  9G17G24G07G26G11G13G19G08G28
   1241762.30947   1003894.63744  23587545.8984                   23587547.9304
  -4668881.59047  -3610843.76244  22734944.1564                   22734945.9304
  -7631327.71948  -5925513.68747  20276615.4384                   20276612.8594
   4872785.28147   3829813.84444  23695538.2504                   23695538.5234
 -14440850.13347 -11218230.45345  21643747.1644                   21643745.8164
  16461342.89547  12830487.10243  23168501.0084                   23168501.9924
  11251962.48447   8779072.21944  23078572.2424                   23078569.6334
 -15267057.02048 -11874591.10246  20676802.8204                   20676800.9654
 -10190981.47347  -7919060.82845  22272023.3754                   22272020.9304
 11  8 10 19  1  0.0000000  0  9G17G24G07G26G11G13G19G08G28
   1094684.32847    889288.55944  23559558.1484                   23559559.5984
  -4779874.70347  -3697331.82444  22713823.0784                   22713824.3554
  -7680661.88748  -5963955.91047  20267227.5554                   20267225.0864
   4747596.87947   3732264.49244  23671716.4144                   23671715.7624
 -14516906.19547 -11277494.89545  21629273.8984                   21629272.4024
  16520530.21547  12876606.89843  23179764.2034                   23179765.3204
  11298314.30547   8815190.45745  23087392.3134                   23087390.1954
 -15370706.62948 -11955357.02046  20657079.0394                   20657077.1374
 -10270163.06647  -7980760.75845  22256955.6094                   22256952.7384
 11  8 10 19  1 30.0000000  0  9G17G24G07G26G11G13G19G08G28
    947745.83247    774791.17644  23531596.7344                   23531598.1524
  -4890639.74647  -3783642.18044  22692744.8524                   22692746.1414
  -7729629.36748  -6002112.39846  20257909.2814                   20257906.7234
   4622806.78947   3635025.52744  23647968.9774                   23647969.2384
 -14592504.61347 -11336402.73445  21614888.0554                   21614886.6724
  16579759.34847  12922759.29343  23191034.6414                   23191036.2504
  11344819.28947   8851428.05144  23096242.7344                   23096240.1334
 -15474133.46548 -12035949.35246  20637397.4454                   20637395.4344
 -10349323.49247  -8042444.17245  22241891.2734                   22241889.7934
 11  8 10 19  2  0.0000000  0  9G17G24G07G26G11G13G19G08G28
    800944.75447    660400.90244  23503660.7424                   23503662.3014
  -5001177.12547  -3869775.11744  22671710.6414                   22671711.7854
  -7778232.05948  -6039984.64847  20248660.1414                   20248658.4224
   4498413.98047   3538096.09844  23624298.4304                   23624297.4454
 -14667647.10247 -11394955.32045  21600589.1644                   21600587.3284
  16639023.81347  12968939.16843  23202312.3594                   23202313.6684
  11391471.41847   8887780.31644  23105120.1564                   23105117.4024
 -15577338.40248 -12116368.78146  20617758.3984                   20617756.3094
 -10428467.46147  -8104114.78145  22226831.0084                   22226828.7624
 11  8 10 19  2 30.0000000  0  9G17G24G07G26G11G13G19G08G28
    654276.11747    546113.82044  23475750.1644                   23475752.2544
  -5111491.00047  -3955733.91844  22650718.2814                   22650719.5044
  -7826476.48448  -6077577.71946  20239479.7814                   20239477.5594
   4374413.80947   3441472.61743  23600701.1094                   23600700.3914
 -14742339.48047 -11453157.15245  21586375.4844                   21586373.5394
  16698313.54347  13015138.76243  23213595.1174                   23213596.4454
  11438260.79347   8924239.51644  23114024.2344                   23114021.1684
 -15680326.14548 -12196618.96146  20598160.2194                   20598157.8794
 -10507602.66048  -8165778.57045  22211772.1644                   22211769.4774
 11  8 10 19  3  0.0000000  0  9G17G24G07G26G11G13G19G08G28
    507779.75447    431961.00444  23447872.8444                   23447874.4224
  -5221540.12947  -4041486.42244  22629776.6094                   22629777.7854
  -7874322.91448  -6114860.66847  20230375.0474                   20230373.0744
   4250846.84047   3345186.69944  23577187.2734                   23577187.3054
 -14816541.83247 -11510977.15645  21572255.2424                   21572253.3834
  16757663.45747  13061385.25043  23224889.3984                   23224890.8594
  11485222.40247   8960832.93045  23122960.5944                   23122958.0434
 -15783056.05948 -12276668.23446  20578611.3914                   20578610.2344
 -10586691.94947  -8227406.56245  22196721.5164                   22196719.3634
 11  8 10 19  3 30.0000000  0  9G17G24G07G26G11G13G19G08G28
    361419.84047    317914.48844  23420021.3204                   23420022.7854
  -5331359.44947  -4127059.85544  22608878.6024                   22608880.2114
  -7921808.28148  -6151862.27046  20221338.9534                   20221336.7774
   4127677.61346   3249210.75443  23553748.7504                   23553748.9454
 -14890290.24647 -11568443.42645  21558221.1564                   21558219.4614
  16817032.94547  13107646.99243  23236187.8054                   23236189.0664
  11532315.91047   8997529.12544  23131922.2194                   23131919.7664
 -15885563.57448 -12356544.22346  20559104.8914                   20559103.2234
 -10665773.62547  -8289028.64545  22181672.9924                   22181670.7464
 11  8 10 19  4  0.0000000  0  9G17G24G07G26G11G13G19G08G28
    215206.56347    203982.23844  23392198.5554                   23392199.1174
  -5440937.76247  -4212445.50044  22588026.6644                   22588027.7774
  -7968922.51248  -6188574.67247  20212373.3984                   20212371.1604
   4004916.78546   3153552.99643  23530388.2974                   23530389.0314
 -14963574.56648 -11625548.06645  21544275.7894                   21544274.1844
  16876427.02747  13153927.89144  23247489.9304                   23247491.4384
  11579547.04347   9034332.55944  23140910.2274                   23140907.3714
 -15987837.70748 -12436238.34446  20539642.7814                   20539641.1884
 -10744839.83248  -8350638.64845  22166627.1334                   22166624.5314
 11  8 10 19  4 30.0000000  0  9G17G24G07G26G11G13G19G08G28
     69138.21947     90162.94144  23364402.4774                   23364403.1804
  -5550275.61347  -4297643.77344  22567220.3444                   22567221.2304
  -8015668.25848  -6224999.94947  20203477.6174                   20203475.7974
   3882563.13346   3058212.54343  23507104.5634                   23507106.1254
 -15036397.25448 -11682292.99245  21530418.2504                   21530416.4264
  16935839.39847  13200223.03944  23258795.8444                   23258797.3984
  11626909.21547   9071238.10545  23149922.5004                   23149919.8794
 -16089879.78548 -12515751.64546  20520224.8914                   20520223.1374
 -10823895.49647  -8412240.44145  22151583.3204                   22151580.9384
 11  8 10 19  5  0.0000000  0  9G17G24G07G26G11G13G19G08G28
    -76796.65247    -23552.36744  23336631.2814                   23336632.9344
  -5659382.85247  -4382662.34444  22546458.1334                   22546458.8404
  -8062056.66448  -6261146.77346  20194650.5554                   20194648.4264
   3760606.59846   2963181.56343  23483897.4224                   23483898.2424
 -15108769.25848 -11738686.74245  21516646.0084                   21516644.3834
  16995254.16847  13246520.03144  23270101.9924                   23270104.2854
  11674387.28947   9108233.95344  23158957.0314                   23158954.4184
 -16191699.90648 -12595092.00046  20500849.1414                   20500846.9924
 -10902953.76648  -8473844.27745  22136539.0944                   22136536.5394
 11  8 10 19  5 30.0000000  0  9G17G24G07G26G11G13G19G08G28
   -222593.61347   -137160.23044  23308887.3204                   23308888.1684
  -5768254.39147  -4467497.25044  22525740.7894                   22525741.7664
  -8108084.64848  -6297012.75046  20185891.8674                   20185889.5984
   3639051.49246   2868463.34043  23460765.9924                   23460766.1214
 -15180687.27048 -11794726.71945  21502960.2974                   21502959.2664
  17054670.40647  13292818.19143  23281408.9144                   23281410.6174
  11721980.27047   9145319.31644  23168013.7194                   23168011.8554
 -16293293.67648 -12674255.96546  20481516.5784                   20481514.7544
 -10982013.27048  -8535449.06245  22121494.4844                   22121492.2344
 11  8 10 19  6  0.0000000  0  9G17G24G07G26G11G13G19G08G28
   -368239.21947   -250650.16445  23281171.6724                   23281173.2974
  -5876875.55947  -4552137.06244  22505069.7974                   22505071.4884
  -8153739.06648  -6332587.64847  20177204.1334                   20177201.8094
   3517911.93446   2774068.93043  23437714.3594                   23437714.1024
 -15252137.80548 -11850402.43045  21489363.8674                   21489362.4574
  17114097.08247  13339124.44543  23292717.6094                   23292718.8984
  11769697.48447   9182501.51644  23177094.9304                   23177092.1254
 -16394646.43748 -12753232.14546  20462229.5314                   20462227.6454
 -11061063.22747  -8597046.41445  22106451.5944                   22106450.0744
 11  8 10 19  6 30.0000000  0  9G17G24G07G26G11G13G19G08G28
   -513739.64147   -364026.97345  23253484.0004                   23253484.8484
  -5985251.40647  -4636585.73444  22484446.9454                   22484448.0704
  -8199027.09448  -6367877.03147  20168586.0554                   20168584.0904
   3397182.17647   2679993.89543  23414738.9454                   23414740.0234
 -15323127.35248 -11905718.92245  21475854.9534                   21475853.1214
  17173523.41047  13385430.45344  23304026.0164                   23304028.2814
  11817527.85947   9219771.90244  23186196.1414                   23186193.5314
 -16495763.69148 -12832024.80946  20442987.6174                   20442985.9144
 -11140112.10548  -8658642.92645  22091409.2974                   22091407.2154
 11  8 10 19  7  0.0000000  0  9G17G24G07G26G11G13G19G08G28
   -659103.10547   -477297.07045  23225821.7974                   23225823.3484
  -6093388.89147  -4720848.64844  22463869.1024                   22463870.0164
  -8243957.36748  -6402887.65246  20160035.8134                   20160033.8634
   3276854.69547   2586232.26643  23391841.7504                   23391842.0004
 -15393664.53948 -11960682.93745  21462432.2814                   21462430.7504
  17232936.06647  13431725.80143  23315331.5004                   23315334.0594
  11865459.22346   9257120.97344  23195317.3134                   23195314.5664
 -16596653.16848 -12910639.98046  20423789.1954                   20423786.9614
 -11219170.87947  -8720247.14845  22076364.8444                   22076362.4884
 11  8 10 19  7 30.0000000  0  9G17G24G07G26G11G13G19G08G28
    771105.41847    637151.27744  23497981.8054                   23497982.0664
  -4625853.59847  -3577314.60244  22743131.2734                   22743132.7544
  -6713099.30948  -5210011.26247  20451348.7344                   20451346.5004
   4732363.66447   3720395.11343  23668816.9304                   23668816.1804
 -13888317.49248 -10787685.20345  21748890.3754                   21748888.3404
  18867758.25047  14705612.94943  23626428.2114                   23626430.7194
  13488915.10546  10522151.45344  23504250.6024                   23504248.3404
 -15121880.86748 -11761466.75446  20704428.6804                   20704427.1024
  -9722809.39147  -7554251.17645  22361112.7584                   22361110.7974
 11  8 10 19  8  0.0000000  0  9G17G24G07G26G11G13G19G08G28
    626029.90247    524105.54344  23470374.4144                   23470375.8054
  -4733497.60247  -3661193.00044  22722647.4774                   22722648.8094
  -6757302.29348  -5244455.16046  20442937.2814                   20442935.1684
   4612855.81347   3627272.18043  23646075.2344                   23646075.4384
 -13957937.31248 -10841934.37945  21735641.9064                   21735640.3134
  18927143.15647  14751886.67643  23637728.8134                   23637731.2384
  13537047.96546  10559657.53544  23513410.5634                   23513407.8984
 -15222299.10248 -11839714.71946  20685319.8364                   20685317.8444
  -9801881.50448  -7615865.78145  22346066.1724                   22346064.1764
 11  8 10 19  8 30.0000000  0  9G17G24G07G26G11G13G19G08G28
    481082.21147    411159.41844  23442791.4694                   23442792.0744
  -4840908.78547  -3744889.98444  22702208.1334                   22702209.2734
  -6801158.49648  -5278628.82846  20434591.4694                   20434589.1134
   4493742.60547   3534456.73043  23623408.0634                   23623407.3674
 -14027114.66848 -10895838.77345  21722477.7344                   21722475.7974
  18986491.88347  14798132.18443  23649023.1644                   23649025.2034
  13585259.37146  10597224.82444  23522584.6254                   23522581.9884
 -15322496.35248 -11917790.49246  20666253.0704                   20666251.4384
  -9880979.84047  -7677500.82445  22331014.1564                   22331011.7464
 11  8 10 19  9  0.0000000  0  9G17G24G07G26G11G13G19G08G28
    336283.60947    298329.48444  23415236.5944                   23415237.9574
  -4948064.91447  -3828388.22744  22681816.8754                   22681818.1484
  -6844647.52348  -5312516.40646  20426315.4774                   20426313.5044
   4375045.75847   3441965.73043  23600820.9384                   23600821.1804
 -14095829.19148 -10949382.52345  21709402.1564                   21709399.9734
  19045819.77747  14844361.48843  23660313.4304                   23660314.8674
  13633565.74646  10634866.09044  23531777.0554                   23531774.4924
 -15422450.90648 -11995677.15646  20647232.2664                   20647230.5004
  -9960085.48447  -7739141.58245  22315960.7504                   22315958.8244
 11  8 10 19  9 30.0000000  0  9G17G24G07G26G11G13G19G08G28
    191636.59447    185617.64544  23387711.1484                   23387712.3484
  -5054962.49647  -3911684.99244  22661475.0634                   22661475.9454
  -6887767.25848  -5346116.20747  20418110.5944                   20418108.0044
   4256767.80147   3349801.12543  23578313.2344                   23578312.9654
 -14164078.69548 -11002563.92645  21696414.5634                   21696412.3054
  19105124.91047  14890573.02743  23671599.0634                   23671600.8094
  13681964.96947  10672579.73844  23540987.1954                   23540984.3284
 -15522159.62548 -12073372.25846  20628258.2734                   20628256.5634
 -10039199.00448  -7800788.44545  22300905.9064                   22300903.9804
 11  8 10 19 10  0.0000000  0  9G17G24G07G26G11G13G19G08G28
     47152.85947     73033.04744  23360216.8444                   23360218.4384
  -5161588.82047  -3994770.41444  22641184.5314                   22641184.8364
  -6930506.87948  -5379419.82446  20409977.4694                   20409975.3164
   4138921.13747   3257972.56344  23555887.4144                   23555887.5354
 -14231851.85948 -11055374.14845  21683517.7584                   21683516.0824
  19164414.52047  14936772.48443  23682881.7114                   23682882.7774
  13730464.50046  10710371.52344  23550216.0784                   23550213.6134
 -15621609.73848 -12150865.84046  20609333.6174                   20609331.5664
 -10118311.03147  -7862434.17245  22285851.7894                   22285848.9534
 11  8 10 19 10 30.0000000  0  9G17G24G07G26G11G13G19G08G28
    -97176.24647    -39431.07044  23332752.2734                   23332753.5434
  -5267951.55547  -4077650.40244  22620944.4224                   22620945.0864
  -6972875.86348  -5412434.63746  20401914.9224                   20401912.4844
   4021497.68847   3166473.78544  23533543.3054                   23533542.6844
 -14299157.92247 -11107820.39145  21670709.5474                   21670708.0784
  19223674.91447  14982949.18043  23694159.2814                   23694160.2194
  13779050.73047  10748230.91044  23559462.2894                   23559459.0554
 -15720809.53948 -12228164.39146  20590456.5314                   20590455.0474
 -10197432.50848  -7924087.27045  22270795.3364                   22270793.2034
 11  8 10 19 11  0.0000000  0  9G17G24G07G26G11G13G19G08G28
   -241355.94547   -151778.77344  23305315.7194                   23305316.3134
  -5374054.49647  -4160327.96544  22600753.7424                   22600754.4104
  -7014879.89148  -5445165.05547  20393922.0944                   20393919.7704
   3904492.73847   3075301.12544  23511277.9844                   23511277.1134
 -14366002.47748 -11159907.03145  21657989.5164                   21657988.0164
  19282896.66047  15029095.74243  23705427.8444                   23705430.7704
  13827714.96447  10786151.02544  23568722.7664                   23568720.0394
 -15819763.28948 -12305271.21546  20571626.3364                   20571624.4414
 -10276570.80148  -7985753.44945  22255735.3444                   22255732.9264
 11  8 10 19 11 30.0000000  0  9G17G24G07G26G11G13G19G08G28
   -385368.56647   -263996.25445  23277910.5004                   23277911.6604
  -5479878.86747  -4242788.44944  22580615.6954                   22580616.3484
  -7056502.14848  -5477597.99647  20386001.4224                   20385999.1604
   3787924.22347   2984468.55944  23489095.3134                   23489095.5394
 -14432368.25847 -11211620.59445  21645360.5784                   21645358.5004
  19342092.74647  15075222.29343  23716693.5084                   23716694.6884
  13876470.53147  10824142.36344  23578000.8054                   23577998.1764
 -15918452.37548 -12382171.79746  20552846.6334                   20552844.8014
 -10355710.76648  -8047420.93445  22240675.6254                   22240673.6094
 11  8 10 19 12  0.0000000  0  9G17G24G07G26G11G13G19G08G28
   -529226.50847   -376093.22344  23250535.4144                   23250536.1954
  -5585436.18447  -4325040.84444  22560528.7734                   22560529.6414
  -7097755.64548  -5509743.59846  20378150.9064                   20378148.7194
   3671780.15247   2893966.71544  23466993.9614                   23466994.2584
 -14498268.47748 -11262971.38345  21632820.1414                   21632818.8404
  19401245.64147  15121315.20343  23727949.7424                   23727951.9534
  13925299.96546  10862191.20944  23587292.6254                   23587289.8794
 -16016888.76648 -12458875.47746  20534114.6884                   20534112.9024
 -10434867.52748  -8109101.50045  22225612.8984                   22225610.5164
 11  8 10 19 12 30.0000000  0  9G17G24G07G26G11G13G19G08G28
   -672936.16047   -488074.64845  23223188.0314                   23223188.9804
  -5690731.60547  -4407089.18044  22540491.5084                   22540492.0664
  -7138647.25848  -5541607.21146  20370369.6954                   20370367.6054
   3556054.47346   2803790.91844  23444971.7034                   23444972.2734
 -14563709.91048 -11313964.68745  21620367.0394                   21620365.7034
  19460344.60247  15167366.05543  23739196.1884                   23739198.9804
  13974192.99247  10900289.63744  23596596.1334                   23596594.3164
 -16115078.06248 -12535386.61746  20515429.2974                   20515427.4694
 -10514049.54348  -8170801.76645  22210544.5554                   22210542.3554
 11  8 10 19 13  0.0000000  0  9G17G24G07G26G11G13G19G08G28
   -816491.14147   -599935.54345  23195870.2974                   23195871.1884
  -5795757.27347  -4488927.30944  22520505.9774                   22520506.9804
  -7179171.59448  -5573184.63347  20362658.2424                   20362655.9144
   3440754.57446   2713946.91444  23423030.9384                   23423031.2234
 -14628686.30948 -11364595.62145  21608002.6884                   21608000.9494
  19519391.41447  15213376.27343  23750433.1414                   23750435.3444
  14023151.53147  10938439.08644  23605913.1724                   23605910.9534
 -16213012.62548 -12611699.25446  20496793.4534                   20496791.5314
 -10593252.81248  -8232518.58245  22195472.8204                   22195470.5394
 11  8 10 19 13 30.0000000  0  9G17G24G07G26G11G13G19G08G28
   -959884.15647   -711670.23845  23168583.5554                   23168584.1134
  -5900505.35547  -4570549.13344  22500572.9064                   22500573.9224
  -7219322.09848  -5604470.75046  20355017.7034                   20355015.5944
   3325887.40646   2624440.07844  23401172.1024                   23401172.8204
 -14693191.11748 -11414859.08645  21595727.7504                   21595725.9694
  19578388.64146  15259347.85543  23761659.4384                   23761661.8524
  14072178.35547  10976641.76244  23615242.7584                   23615240.3134
 -16310684.81648 -12687807.44946  20478206.5634                   20478205.2304
 -10672472.51248  -8294248.19145  22180397.6954                   22180395.9344
 11  8 10 19 14  0.0000000  0  9G17G24G07G26G11G13G19G08G28
  -1103113.55147   -823277.43445  23141327.8594                   23141328.8914
  -6004972.91447  -4651952.36744  22480693.0394                   22480694.7034
  -7259097.85248  -5635464.86346  20347448.8444                   20347446.4384
   3211455.09046   2535272.10944  23379396.6564                   23379396.8284
 -14757223.54347 -11464754.46145  21583542.7814                   21583540.8134
  19637333.38346  15305278.49643  23772876.3984                   23772878.4694
  14121270.96547  11014895.68444  23624585.3674                   23624582.9734
 -16408092.12948 -12763709.24646  20459670.7274                   20459669.6294
 -10751709.39147  -8355991.19145  22165319.3364                   22165317.1374
 11  8 10 19 14 30.0000000  0  9G17G24G07G26G11G13G19G08G28
  -1246168.84447   -934748.97345  23114105.6954                   23114106.2704
  -6109148.45747  -4733128.07444  22460869.0394                   22460870.3594
  -7298489.22348  -5666159.44946  20339952.9614                   20339950.7624
   3097468.54346   2446451.51244  23357705.6724                   23357706.5004
 -14820773.91448 -11514274.20745  21571449.3204                   21571447.3054
  19696231.62147  15351172.91043  23784084.8594                   23784087.3094
  14170435.25446  11053205.46144  23633940.1884                   23633938.1484
 -16505223.43048 -12839395.96946  20441187.4384                   20441185.9064
 -10830955.69548  -8417741.55145  22150239.5704                   22150237.2074
 11  8 10 19 15  0.0000000  0  9G17G24G07G26G11G13G19G08G28
  -1389041.84447  -1046078.46145  23086917.1414                   23086917.7624
  -6213022.23447  -4814068.63744  22441102.2504                   22441103.8364
  -7337488.16448  -5696548.25447  20332531.3914                   20332529.3754
   2983936.80946   2357985.25444  23336100.8914                   23336101.6524
 -14883833.81648 -11563411.77745  21559449.2274                   21559447.6644
  19755087.24646  15397034.13343  23795284.5314                   23795287.5084
  14219675.73846  11091574.62144  23643310.5944                   23643308.0434
 -16602069.29348 -12914860.28546  20422758.0234                   20422756.3794
 -10910204.44548  -8479493.81245  22135159.0004                   22135156.8134
 11  8 10 19 15 30.0000000  0  9G17G24G07G26G11G13G19G08G28
  -1531719.59047  -1157255.81245  23059766.6644                   23059767.3014
  -6316580.41047  -4894763.24244  22421396.3594                   22421397.0004
  -7376082.89148  -5726622.08646  20325187.0864                   20325185.1914
   2870872.82046   2269883.48844  23314585.5394                   23314585.9964
 -14946391.17248 -11612157.75045  21547544.9924                   21547543.2074
  19813908.41447  15442868.50043  23806478.4064                   23806481.0004
  14269001.01647  11130009.85244  23652696.6254                   23652694.8164
 -16698616.07848 -12990091.53946  20404386.0864                   20404384.6914
 -10989445.50448  -8541240.07845  22120080.0314                   22120077.7034
 11  8 10 19 16  0.0000000  0  9G17G24G07G26G11G13G19G08G28
  -1674192.43047  -1268273.49645  23032654.7974                   23032654.9494
  -6419812.37147  -4975203.69144  22401751.8674                   22401752.7464
  -7414264.13748  -5756373.71546  20317921.4614                   20317919.0354
   2758286.66446   2182154.06344  23293160.7424                   23293161.5824
 -15008437.12948 -11660505.23045  21535738.4304                   21535736.4064
  19872700.26647  15488680.02343  23817666.3754                   23817668.9064
  14318416.67246  11168515.50044  23662100.2894                   23662097.8014
 -16794852.79748 -13065081.18746  20386072.9614                   20386071.3014
 -11068671.56648  -8602974.65645  22105003.7274                   22105001.3094
 11  8 10 19 16 30.0000000  0  9G17G24G07G26G11G13G19G08G28
  -1816480.19947  -1379146.94545  23005578.7274                   23005579.0204
  -6522737.03147  -5055404.66444  22382166.1724                   22382166.2584
  -7452053.19948  -5785819.74646  20310730.3984                   20310728.2544
   2646158.30947   2094781.36744  23271823.7424                   23271824.1914
 -15069992.41448 -11708470.36745  21524024.5704                   21524023.1054
  19931438.23847  15534449.56343  23828844.1334                   23828846.4304
  14367898.14547  11207072.45744  23671516.1094                   23671514.3554
 -16890799.35548 -13139844.73846  20367814.6954                   20367813.5124
 -11147904.86348  -8664714.87545  22089926.3524                   22089924.5594
 11  8 10 19 17  0.0000000  0  9G17G24G07G26G11G13G19G08G28
  -1958580.78547  -1489874.57045  22978537.3444                   22978537.7734
  -6625350.85547  -5135363.43444  22362639.5634                   22362640.1914
  -7489448.42248  -5814958.90246  20303614.2584                   20303611.9654
   2534490.66047   2007767.64544  23250574.6094                   23250574.4884
 -15131055.36348 -11756051.85945  21512404.7114                   21512402.7774
  19990119.73446  15580175.04743  23840010.7194                   23840013.9454
  14417443.27746  11245679.00444  23680944.6564                   23680942.2194
 -16986452.96148 -13214380.01646  20349612.3444                   20349610.7504
 -11227145.56647  -8726460.87545  22074846.8524                   22074844.6174
 11  8 10 19 17 30.0000000  0  9G17G24G07G26G11G13G19G08G28
  -2100467.32847  -1600435.40645  22951537.1094                   22951537.7624
  -6727626.09047  -5215058.36344  22343176.7584                   22343178.0664
  -7526423.83648  -5843770.93046  20296578.1024                   20296575.9064
   2423310.57047   1921133.86344  23229417.9774                   23229417.4734
 -15191599.79348 -11803229.33245  21500883.5314                   21500882.0704
  20048767.18047  15625874.02343  23851171.4304                   23851174.7234
  14467074.63746  11284352.73044  23690389.2664                   23690387.0124
 -17081785.73048 -13288665.28546  20331471.1484                   20331469.9734
 -11306368.94548  -8788193.34045  22059771.2664                   22059769.1414
 11  8 10 19 18  0.0000000  0  9G17G24G07G26G11G13G19G08G28
  -2242128.62947  -1710820.71544  22924579.9454                   22924580.5234
  -6829550.26247  -5294479.74245  22323781.2034                   22323782.1564
  -7562968.91848  -5872247.64146  20289624.2424                   20289622.0164
   2312629.92647   1834889.23444  23208355.7034                   23208355.2624
 -15251615.12948 -11849994.50845  21489463.0164                   21489460.7624
  20107387.90246  15671552.21543  23862326.9774                   23862329.3954
  14516799.77346  11323099.52044  23699851.2584                   23699849.7234
 -17176785.29348 -13362690.91446  20313393.6024                   20313391.6564
 -11385565.94948  -8849905.28145  22044700.5084                   22044698.4884
 11  8 10 19 18 30.0000000  0  9G17G24G07G26G11G13G19G08G28
  -2383584.28147  -1821045.79345  22897661.3754                   22897662.4694
  -6931141.84447  -5373641.94545  22304449.4844                   22304449.9884
  -7599104.02748  -5900404.88747  20282747.6884                   20282745.4844
   2202429.17647   1749018.55944  23187385.6024                   23187384.5124
 -15311121.85548 -11896363.37145  21478139.2194                   21478137.3524
  20165957.79746  15717190.77043  23873472.1724                   23873475.7304
  14566594.56647  11361900.61344  23709327.2974                   23709324.7704
 -17271470.41848 -13436471.52746  20295375.4694                   20295373.6454
 -11464758.63748  -8911613.83245  22029630.6484                   22029628.2854
 11  8 10 19 19  0.0000000  0  9G17G24G07G26G11G13G19G08G28
  -2524825.15247  -1931103.50445  22870784.4144                   22870785.0474
  -7032390.59847  -5452537.03544  22285182.0474                   22285182.8284
  -7634820.66048  -5928236.05146  20275951.4844                   20275948.7894
   2092717.88347   1663529.26244  23166507.7194                   23166507.1174
 -15370111.35548 -11942329.19545  21466913.6334                   21466911.6724
  20224481.09046  15762792.97743  23884609.6174                   23884612.3984
  14616464.17247  11400759.98844  23718817.5864                   23718815.2344
 -17365831.04748 -13509999.27746  20277419.4304                   20277417.8094
 -11543939.75047  -8973313.37545  22014563.0784                   22014560.7304
 11  8 10 19 19 30.0000000  0  9G17G24G07G26G11G13G19G08G28
  -2665856.26247  -2040997.77345  22843946.7274                   22843947.5434
  -7133300.98847  -5531168.46545  22265979.3754                   22265980.2624
  -7670124.99248  -5955745.93746  20269233.1414                   20269230.5234
   1983491.09047   1578417.50043  23145722.8914                   23145721.3204
 -15428589.71148 -11987896.73045  21455785.6254                   21455783.6134
  20282948.44146  15808351.60543  23895735.9924                   23895739.1564
  14666399.41847  11439670.54344  23728319.6174                   23728317.1994
 -17459871.71548 -13583277.72346  20259524.1724                   20259522.0864
 -11623116.92648  -9035009.86345  21999496.2114                   21999493.6024
 11  8 10 19 20  0.0000000  0  9G17G24G07G26G11G13G19G08G28
  -2806669.51247  -2150722.27345  22817150.8054                   22817150.8754
  -7233863.54347  -5609528.84444  22246843.1024                   22246843.8094
  -7705009.57448  -5982928.75446  20262594.6884                   20262592.7894
   1874757.09047   1493689.73444  23125031.3054                   23125030.3794
 -15486549.44148 -12033060.14845  21444755.6724                   21444754.4694
  20341363.52746  15853869.51643  23906851.6804                   23906855.0664
  14716404.31647  11478635.35544  23737835.1174                   23737832.9494
 -17553583.16048 -13656299.62946  20241691.4144                   20241689.4224
 -11702283.70348  -9096698.24245  21984431.2814                   21984428.8094
 11  8 10 19 20 30.0000000  0  9G17G24G07G26G11G13G19G08G28
  -2947267.98847  -2260279.43045  22790395.7114                   22790396.3244
  -7334080.10547  -5687619.62545  22227772.1884                   22227773.3204
  -7739478.15648  -6009787.41446  20256035.3444                   20256033.2114
   1766513.25047   1409343.91043  23104432.6334                   23104432.9104
 -15543994.19548 -12077822.27745  21433824.7584                   21433823.3204
  20399718.97346  15899340.98443  23917956.9064                   23917959.6294
  14766471.75047  11517648.89544  23747363.4064                   23747360.2464
 -17646967.76248 -13729066.84446  20223920.8524                   20223919.4264
 -11781445.35247  -9158382.62145  21969367.3284                   21969365.2154
 11  8 10 19 21  0.0000000  0  9G17G24G07G26G11G13G19G08G28
  -3087657.05547  -2369673.40245  22763680.4774                   22763680.8204
  -7433955.21947  -5765444.33645  22208766.0864                   22208766.9104
  -7773537.21548  -6036326.96146  20249554.3134                   20249552.1524
   1658754.46546   1325376.01243  23083927.1804                   23083926.3134
 -15600930.13748 -12122187.94145  21422990.3524                   21422988.2894
  20458005.19546  15944758.49243  23929048.9064                   23929051.7114
  14816592.07047  11556703.63744  23756900.3284                   23756898.4454
 -17740029.93448 -13801582.81646  20206211.5634                   20206210.0044
 -11860609.60548  -9220069.03945  21954302.6804                   21954300.2974
 11  8 10 19 21 30.0000000  0  9G17G24G07G26G11G13G19G08G28
  -3227829.90647  -2478898.89145  22737006.7504                   22737006.7894
  -7533480.96947  -5842996.82845  22189827.3284                   22189827.8014
  -7807180.46548  -6062542.50046  20243152.4384                   20243150.3714
   1551487.46146   1241791.37143  23063514.5474                   23063514.5124
 -15657351.29748 -12166152.46545  21412253.6254                   21412251.8484
  20516224.52046  15990123.81643  23940127.8674                   23940131.4654
  14866768.19947  11595801.87544  23766449.0864                   23766446.9104
 -17832761.99648 -13873841.56646  20188565.1094                   20188563.5314
 -11939771.87948  -9281753.90245  21939238.1564                   21939236.3754
 11  8 10 19 22  0.0000000  0  9G17G24G07G26G11G13G19G08G28
  -3367789.02047  -2587957.82845  22710373.7504                   22710373.3244
  -7632658.65247  -5920278.08645  22170954.3444                   22170955.2774
  -7840411.64548  -6088436.94546  20236828.3444                   20236826.2274
   1444710.32846   1158588.45343  23043195.3524                   23043195.6724
 -15713261.23448 -12209718.62945  21401614.1484                   21401612.3134
  20574369.87146  16035431.55943  23951192.2734                   23951196.4384
  14916993.60547  11634938.51244  23776006.6094                   23776004.6644
 -17925165.84448 -13945844.57446  20170981.5634                   20170979.4614
 -12018936.81648  -9343440.84845  21924173.6334                   21924171.9454
 11  8 10 19 22 30.0000000  0  9G17G24G07G26G11G13G19G08G28
  -1932100.76247  -1469239.61345  22983575.5634                   22983575.3404
  -6156054.98847  -4769677.76245  22451942.7114                   22451943.3244
  -6297801.14548  -4886402.81246  20530377.4844                   20530375.5084
   2913855.56347   2303376.96543  23322764.8054                   23322763.8594
 -14193229.76647 -11025278.51645  21690866.9694                   21690865.0044
  22207864.32846  17308283.99643  24262037.1484                   24262040.4224
  16542691.69147  12901716.16844  24085366.6334                   24085364.4774
 -16441807.72348 -12789981.11746  20453254.7344                   20453253.0514
 -10522674.44948  -8177522.10245  22208903.1094                   22208900.6254
 11  8 10 19 23  0.0000000  0  9G17G24G07G26G11G13G19G08G28
  -2071629.91447  -1577963.51245  22957024.2194                   22957024.5704
  -6254530.87947  -4846412.17245  22433203.3134                   22433204.0004
  -6330207.42648  -4911654.48446  20524210.9534                   20524208.8874
   2808060.93047   2220939.64544  23302632.2344                   23302632.3794
 -14248116.69948 -11068047.54345  21680421.9064                   21680420.3984
  22265851.66046  17353468.56643  24273071.2974                   24273075.8404
  16593006.47747  12940922.44144  24094941.6094                   24094939.0314
 -16533549.24248 -12861468.00846  20435797.1024                   20435795.5124
 -10601847.65248  -8239215.49245  22193837.0394                   22193834.8444
 11  8 10 19 23 30.0000000  0  9G17G24G07G26G11G13G19G08G28
  -2210955.44547  -1686528.74645  22930510.9534                   22930511.9884
  -6352666.04347  -4922881.06645  22414528.8594                   22414529.8594
  -6362214.37548  -4936595.00446  20518120.2664                   20518117.9344
   2702745.83247   2138875.95744  23282591.5554                   23282591.8164
 -14302505.02048 -11110428.03545  21670072.5234                   21670070.7894
  22323741.73046  17398577.34443  24284088.5004                   24284092.1334
  16643348.03947  12980149.56644  24104520.1724                   24104518.9414
 -16624970.06248 -12932705.01246  20418400.5314                   20418398.6994
 -10681039.80548  -8300923.64145  22178767.1954                   22178764.8954
 11  8 10 19 24  0.0000000  0  9G17G24G07G26G11G13G19G08G28
  -2350059.13347  -1794921.13745  22904040.5234                   22904040.6564
  -6450440.84047  -4999069.14845  22395922.9384                   22395923.7854
  -6393804.68048  -4961210.85546  20512108.5864                   20512106.4654
   2597929.37147   2057200.82844  23262645.9774                   23262645.7234
 -14356377.30548 -11152406.43045  21659820.9384                   21659819.1054
  22381549.15246  17443621.68043  24295088.4144                   24295092.7424
  16693730.96146  13019408.93844  24114108.0164                   24114106.0274
 -16716050.40648 -13003676.71546  20401068.2894                   20401067.1414
 -10760234.39848  -8362633.71145  22163696.6564                   22163694.6724
 11  8 10 19 24 30.0000000  0  9G17G24G07G26G11G13G19G08G28
  -2488946.88347  -1903145.25445  22877610.7344                   22877610.8554
  -6547860.23847  -5074980.30145  22377384.7814                   22377385.5664
  -6424984.83248  -4985507.08646  20506175.1804                   20506173.2304
   2493605.52747   1975909.57844  23242793.9614                   23242793.7854
 -14409740.57448 -11193988.18446  21649666.7814                   21649664.5944
  22439263.59446  17488593.58643  24306071.6484                   24306076.2624
  16744145.62146  13058693.00044  24123701.6564                   24123699.8754
 -16806795.70348 -13074387.33646  20383800.2194                   20383798.2814
 -10839439.75448  -8424352.16845  22148625.0004                   22148622.3754
 11  8 10 19 25  0.0000000  0  9G17G24G07G26G11G13G19G08G28
  -2627599.57047  -2011186.21545  22851226.2504                   22851226.5234
  -6644903.91048  -5150598.66845  22358917.9224                   22358918.3794
  -6455736.65248  -5009469.57846  20500323.6724                   20500321.5704
   2389793.46947   1895017.08244  23223039.3674                   23223038.8794
 -14462576.46947 -11235159.00445  21639611.9844                   21639610.3284
  22496899.65246  17533504.40243  24317039.8754                   24317044.5784
  16794606.96147  13098013.48044  24133304.7194                   24133302.8524
 -16897185.52048 -13144820.95746  20366599.6334                   20366597.8754
 -10918638.36748  -8486065.36345  22133553.7274                   22133551.5904
 11  8 10 19 25 30.0000000  0  9G17G24G07G26G11G13G19G08G28
  -2766026.91847  -2119051.59045  22824884.7424                   22824884.4534
  -6741580.60547  -5225931.07445  22340520.2194                   22340521.2734
  -6486070.66848  -5033106.50047  20494551.4304                   20494549.4064
   2286483.79347   1814516.07044  23203379.2584                   23203379.5124
 -14514895.55147 -11275927.10245  21629655.9534                   21629653.8484
  22554443.48046  17578343.37543  24327990.2814                   24327994.8324
  16845101.24246  13137359.61344  24142913.0314                   24142910.9384
 -16987229.25448 -13214984.89846  20349464.7664                   20349463.3634
 -10997842.01248  -8547782.47345  22118482.0394                   22118479.6914
 11  8 10 19 26  0.0000000  0  9G17G24G07G26G11G13G19G08G28
  -2904224.86347  -2226738.19945  22798585.7894                   22798586.2344
  -6837885.54348  -5300973.83245  22322194.1804                   22322195.0394
  -6515983.73048  -5056415.39546  20488859.0474                   20488857.0984
   2183680.58247   1734409.71944  23183816.7034                   23183817.1174
 -14566694.48047 -11316289.90645  21619798.6174                   21619797.0824
  22611895.05946  17623110.47343  24338923.3914                   24338928.4804
  16895628.95347  13176731.77044  24152528.9774                   24152526.7894
 -17076921.53148 -13284874.98446  20332396.8284                   20332395.4024
 -11077048.87947  -8609502.10945  22103409.3524                   22103406.8204
 11  8 10 19 26 30.0000000  0  9G17G24G07G26G11G13G19G08G28
  -3042192.90647  -2334245.68445  22772331.4304                   22772331.3794
  -6933816.99647  -5375725.53545  22303939.4694                   22303940.1764
  -6545476.41848  -5079396.74246  20483246.5554                   20483245.1764
   2081384.45747   1654698.47344  23164350.8204                   23164350.6134
 -14617974.22348 -11356248.12945  21610040.8364                   21610038.6334
  22669250.61346  17667802.73843  24349837.8364                   24349842.8404
  16946186.57447  13216127.27344  24162149.9144                   24162147.3554
 -17166260.97348 -13354490.12946  20315396.0784                   20315394.4414
 -11156260.13748  -8671225.14145  22088335.8834                   22088334.1094
 11  8 10 19 27  0.0000000  0  9G17G24G07G26G11G13G19G08G28
  -3179921.43047  -2441566.50445  22746122.7274                   22746122.5664
  -7029364.51648  -5450178.07845  22285756.7734                   22285757.5354
  -6574540.26248  -5102043.92246  20477716.1484                   20477714.1094
   1979604.72347   1575389.62944  23144982.6564                   23144982.4614
 -14668726.09047 -11395795.02345  21600382.9304                   21600381.0514
  22726515.41046  17712424.29742  24360735.4774                   24360739.8594
  16996779.77347  13255550.47344  24171776.4224                   24171774.5474
 -17255237.30548 -13423822.33646  20298464.8914                   20298463.3054
 -11235468.34447  -8732945.81245  22073262.9614                   22073260.3204
 11  8 10 19 27 30.0000000  0  9G17G24G07G26G11G13G19G08G28
  -3317422.27047  -2548709.91845  22719956.6094                   22719957.2504
  -7124538.96947  -5524339.92645  22267645.8594                   22267646.5204
  -6603187.66048  -5124366.59046  20472264.3284                   20472262.6804
   1878329.77747   1496474.11344  23125710.4064                   23125710.5904
 -14718962.86348 -11434940.55145  21590822.9384                   21590820.8324
  22783673.60946  17756962.78142  24371611.6724                   24371617.2664
  17047392.60547  13294988.95744  24181408.7034                   24181406.5594
 -17343861.27748 -13492879.97746  20281600.0784                   20281597.7854
 -11314687.15648  -8794674.74645  22058188.2344                   22058186.2234
 11  8 10 19 28  0.0000000  0  9G17G24G07G26G11G13G19G08G28
  -3454692.07847  -2655673.30545  22693835.4844                   22693835.5784
  -7219335.91047  -5598207.59444  22249606.1724                   22249607.1764
  -6631416.28548  -5146362.95346  20466892.8754                   20466890.6524
   1777563.29347   1417954.79344  23106535.9774                   23106535.9224
 -14768681.94148 -11473682.67245  21581362.2424                   21581360.3554
  22840724.13346  17801417.33242  24382469.0944                   24382475.2114
  17098025.08647  13334442.74644  24191043.2584                   24191041.5234
 -17432128.47748 -13561659.61746  20264803.2584                   20264801.5554
 -11393914.99248  -8856410.70745  22043111.5704                   22043109.3484
 11  8 10 19 28 30.0000000  0  9G17G24G07G26G11G13G19G08G28
  -3591712.89147  -2762442.65645  22667761.0394                   22667760.8914
  -7313736.30947  -5671766.28145  22231642.6414                   22231643.5394
  -6659209.29748  -5168019.87146  20461604.0004                   20461602.3954
   1677323.03547   1339845.53944  23087460.1254                   23087460.2894
 -14817866.36348 -11512008.18045  21572002.2114                   21572000.5164
  22897681.19146  17845799.04342  24393306.9614                   24393314.8284
  17148691.32046  13373922.85943  24200684.9454                   24200682.6644
 -17520020.27748 -13630146.72746  20248078.0554                   20248076.5704
 -11473136.00848  -8918141.35245  22028036.3754                   22028034.2544
 11  8 10 19 29  0.0000000  0  9G17G24G07G26G11G13G19G08G28
  -3728490.25847  -2869022.32845  22641732.7664                   22641732.9494
  -7407744.96947  -5745019.72345  22213752.8134                   22213753.9924
  -6686573.38748  -5189342.55946  20456396.8674                   20456394.8134
   1577603.18047   1262141.79344  23068483.8364                   23068484.4224
 -14866523.47348 -11549922.79345  21562743.0704                   21562741.6644
  22954534.81646  17890100.15642  24404126.7504                   24404132.7344
  17199381.78947  13413421.85544  24210331.0004                   24210328.8284
 -17607541.47748 -13698345.07446  20231423.6414                   20231421.2664
 -11552357.80548  -8979872.60245  22012961.1884                   22012958.6294
 11  8 10 19 29 30.0000000  0  9G17G24G07G26G11G13G19G08G28
  -3865024.01647  -2975412.18045  22615751.5474                   22615751.3094
  -7501360.40247  -5817966.76245  22195938.8594                   22195939.7034
  -6713508.71548  -5210331.14846  20451271.4304                   20451268.7584
   1478404.43047   1184844.08644  23049607.6724                   23049607.4774
 -14914653.35548 -11587426.59045  21553584.3674                   21553582.6294
  23011281.35246  17934317.79342  24414924.8204                   24414931.0554
  17250093.29747  13452937.25443  24219981.3914                   24219978.9694
 -17694690.62148 -13766253.50046  20214839.5784                   20214837.6564
 -11631581.38347  -9041605.24245  21997885.2584                   21997883.0704
 11  8 10 19 30  0.0000000  0  9G17G24G07G26G11G13G19G08G28
  -4001310.98447  -3081609.72745  22589816.9304                   22589816.6334
  -7594578.38747  -5890604.09045  22178200.3984                   22178200.4774
  -6740013.21548  -5230984.03546  20446227.7504                   20446225.4884
   1379729.94947   1107954.89844  23030830.2584                   23030829.7934
 -14962253.91848 -11624517.92645  21544526.5164                   21544524.8324
  23067920.05946  17978451.41443  24425703.9454                   24425709.4104
  17300825.12546  13492468.48843  24229635.4454                   24229633.3524
 -17781463.73448 -13833868.92246  20198327.0704                   20198325.5394
 -11710805.53147  -9103338.31645  21982809.4534                   21982806.9534
 11  8 10 19 30 30.0000000  0  9G17G24G07G26G11G13G19G08G28
  -4137353.70347  -3187616.93045  22563928.7344                   22563928.4804
  -7687400.93747  -5962933.28145  22160536.4384                   22160536.6564
  -6766090.53548  -5251304.05146  20441265.2974                   20441263.4694
   1281577.15647   1031472.23444  23012151.7424                   23012151.5514
 -15009329.08248 -11661199.86345  21535568.1724                   21535566.1954
  23124443.97347  18022495.57443  24436460.3204                   24436466.0084
  17351570.80947  13532010.55943  24239291.9534                   24239288.8634
 -17867861.99648 -13901192.25446  20181885.7974                   20181884.2304
 -11790034.79348  -9165075.38345  21967732.4614                   21967729.9614
 11  8 10 19 31  0.0000000  0  9G17G24G07G26G11G13G19G08G28
  -4273140.98447  -3293425.10945  22538088.9144                   22538088.8284
  -7779815.75047  -6034944.76645  22142950.4694                   22142950.9344
  -6791730.49648  -5271283.26246  20436385.8054                   20436384.1724
   1183956.76247    955404.42244  22993575.5314                   22993576.0274
 -15055868.98047 -11697464.70345  21526711.5164                   21526709.8714
  23180860.18446  18066455.82443  24447196.0704                   24447202.3874
  17402337.96947  13571569.33643  24248952.8834                   24248949.9024
 -17953874.05148 -13968214.63346  20165518.4384                   20165516.6844
 -11869259.92647  -9226809.22745  21952656.2584                   21952654.3404
 11  8 10 19 31 30.0000000  0  9G17G24G07G26G11G13G19G08G28
  -4408672.07447  -3399033.65645  22512297.7974                   22512297.9844
  -7871821.08248  -6106637.17645  22125442.4694                   22125442.6994
  -6816933.66848  -5290922.11346  20431590.3834                   20431588.1214
   1086869.44147    879751.99244  22975100.1884                   22975100.2114
 -15101873.74248 -11733312.55545  21517956.9384                   21517955.6094
  23237165.53146  18110329.65243  24457911.5394                   24457917.0354
  17453123.53546  13611142.47343  24258617.0164                   24258613.8324
 -18039497.74648 -14034934.39546  20149224.7194                   20149222.7344
 -11948482.03947  -9288540.72345  21937581.0164                   21937578.7304
 11  8 10 19 32  0.0000000  0  9G17G24G07G26G11G13G19G08G28
  -4543940.87547  -3504437.82445  22486557.6484                   22486557.3524
  -7963409.91447  -6178005.03545  22108013.4844                   22108014.1844
  -6841694.84448  -5310216.55946  20426878.3984                   20426876.3014
    990321.43447    804519.81344  22956727.8984                   22956727.4064
 -15147338.66848 -11768739.75845  21509305.6644                   21509303.7194
  23293362.15246  18154118.79743  24468605.7734                   24468610.8794
  17503930.06646  13650731.89143  24268284.7894                   24268282.4534
 -18124726.24648 -14101346.21946  20133006.6484                   20133004.4844
 -12027696.67248  -9350266.39545  21922506.5704                   21922504.3484
 11  8 10 19 32 30.0000000  0  9G17G24G07G26G11G13G19G08G28
  -4678959.66047  -3609647.16845  22460864.0704                   22460864.1414
  -8054593.31648  -6249056.97745  22090662.2274                   22090662.5234
  -6866026.91048  -5329176.63746  20422248.4304                   20422246.2274
    894300.60547    729698.41444  22938455.5004                   22938454.9494
 -15192276.58648 -11803756.30545  21500754.3054                   21500752.4494
  23349434.34446  18197810.97743  24479276.3674                   24479282.0204
  17554741.77347  13690325.41443  24277954.8134                   24277951.7344
 -18209570.63748 -14167458.72746  20116860.8594                   20116859.2664
 -12106917.47348  -9411996.86745  21907431.7194                   21907429.4384
 11  8 10 19 33  0.0000000  0  9G17G24G07G26G11G13G19G08G28
  -4813732.84047  -3714665.14545  22435218.3054                   22435217.6334
  -8145375.14847  -6319796.01245  22073386.6094                   22073387.2074
  -6889935.73048  -5347806.90646  20417698.4144                   20417696.4454
    798801.90647    655283.89144  22920283.2504                   22920282.5594
 -15236693.55948 -11838366.91445  21492302.1094                   21492300.1094
  23405372.67646  18241398.82443  24489921.4064                   24489927.0434
  17605550.40247  13729916.53144  24287622.4144                   24287619.8874
 -18294034.97748 -14233275.09046  20100787.6724                   20100786.5594
 -12186151.25848  -9473737.47345  21892353.9304                   21892351.5904
 11  8 10 19 33 30.0000000  0  9G17G24G07G26G11G13G19G08G28
  -4948245.43447  -3819480.06245  22409620.6884                   22409620.0784
  -8235739.13747  -6390209.45745  22056190.8284                   22056191.3014
  -6913406.99248  -5366096.24246  20413231.9924                   20413230.1954
    703840.92247    581288.35244  22902212.4454                   22902211.7734
 -15280575.53548 -11872560.64545  21483951.3754                   21483950.0634
  23461189.02046  18284891.59443  24500542.8364                   24500549.3014
  17656367.62947  13769514.28544  24297292.3754                   24297290.5664
 -18378102.39548 -14298782.16046  20084790.7424                   20084788.8834
 -12265384.23448  -9535477.44946  21877276.5164                   21877274.3524
 11  8 10 19 34  0.0000000  0  9G17G24G07G26G11G13G19G08G28
  -5082493.73847  -3924089.06645  22384073.9454                   22384073.6684
  -8325680.84847  -6460293.84845  22039075.5314                   22039075.6844
  -6936438.16048  -5384042.62946  20408849.4064                   20408847.3484
    609421.00447    507714.40244  22884244.8914                   22884244.0554
 -15323919.99248 -11906335.53545  21475703.5634                   21475701.7384
  23516883.16046  18328289.14543  24511142.3284                   24511147.8524
  17707193.35247  13809118.69144  24306965.6484                   24306963.1024
 -18461768.78948 -14363976.75446  20068869.3594                   20068867.4924
 -12344614.20348  -9597215.06645  21862199.3054                   21862197.0904
 11  8 10 19 34 30.0000000  0  9G17G24G07G26G11G13G19G08G28
  -5216492.89147  -4028503.90645  22358575.2274                   22358574.3484
  -8415214.83647  -6530060.52745  22022037.6954                   22022038.0044
  -6959045.63348  -5401658.85946  20404547.3594                   20404544.6724
    515526.31347    434549.73844  22866377.4614                   22866376.4774
 -15366743.53548 -11939704.52345  21467554.2424                   21467552.6804
  23572435.34046  18371576.11742  24521713.6804                   24521719.8954
  17758008.43447  13848714.80144  24316635.3204                   24316632.9384
 -18545048.61348 -14428870.11346  20053021.5634                   20053019.5204
 -12423858.49648  -9658963.85945  21847119.5864                   21847117.7464
 11  8 10 19 35  0.0000000  0  9G17G24G07G26G11G13G19G08G28
  -5350227.67647  -4132712.74645  22333125.9844                   22333125.3484
  -8504324.52347  -6599496.60245  22005080.8364                   22005081.0204
  -6981214.94948  -5418933.67246  20400328.9774                   20400326.5634
    422172.63347    361806.64144  22848612.8284                   22848612.3554
 -15409032.05548 -11972656.59845  21459506.9774                   21459504.6294
  23627857.359 6                  24532259.570
  17808825.28146  13888312.29744  24326304.6094                   24326302.5594
 -18627925.09448 -14493449.18746  20037250.7814                   20037249.2504
 -12503103.09848  -9720712.88745  21832040.4304                   21832037.7034
 11  8 10 19 35 30.0000000  0  9G17G24G07G26G11G13G19G08G28
  -5483679.35247  -4236700.98045  22307730.7114                   22307730.2424
  -8592990.41847  -6668586.87545  21988207.8984                   21988208.4654
  -7002928.68448  -5435853.47346  20396196.7974                   20396194.4224
    329378.10547    289499.24244  22830954.1414                   22830953.6294
 -15450768.08248 -12005178.16045  21451565.0864                   21451563.5554
  23683163.957 6                  24542784.984
  17859659.19546  13927923.08644  24335978.7504                   24335975.9414
 -18710378.87148 -14557698.87546  20021560.2584                   20021558.5234
 -12582331.48448  -9782449.28545  21816962.8054                   21816961.1914
 11  8 10 19 36  0.0000000  0  8G17G24G07G26G11G19G08G28
  -5616852.45347  -4340472.16045  22282388.6094                   22282387.8634
  -8681216.42647  -6737334.35545  21971419.1644                   21971419.6804
  -7024192.35948  -5452422.59046  20392150.2894                   20392148.0944
    237138.10947    217623.94944  22813401.9924                   22813401.1764
 -15491957.60547 -12037273.88745  21443726.7194                   21443725.1334
  17910501.75846  13967540.62144  24345653.1334                   24345651.5864
 -18792413.61348 -14621622.05146  20005949.5164                   20005947.9384
 -12661549.50447  -9844177.59445  21801888.3444                   21801886.0394
 11  8 10 19 36 30.0000000  0  8G17G24G07G26G11G19G08G28
  -5749755.41047  -4444032.82445  22257098.5474                   22257097.8164
  -8769009.90247  -6805744.80145  21954712.8134                   21954712.5784
  -7045015.50048  -5468648.44146  20388187.9924                   20388185.9224
    145443.90247    146173.92644  22795953.1254                   22795952.6604
 -15532610.15248 -12068951.19145  21435990.7274                   21435989.3364
  17961341.29346  14007155.77044  24355327.7664                   24355326.1134
 -18874036.73448 -14685224.48046  19990416.9924                   19990415.8634
 -12740767.13748  -9905905.60245  21786813.7734                   21786811.0904
 11  8 10 19 37  0.0000000  0  8G17G24G07G26G11G19G08G28
  -4306938.90647  -3319760.13345  22531656.8204                   22531655.9384
  -7280921.94947  -5646195.70745  22237886.1564                   22237886.6804
  -5489953.41448  -4256911.78546  20684106.1334                   20684104.2234
   1629743.25447   1302770.85244  23078405.6724                   23078405.2074
 -13997280.39148 -10872590.33245  21728154.1884                   21728152.4304
  19587617.36746  15274383.77743  24664797.9924                   24664795.8674
 -17379799.53548 -13520883.80946  20274761.0394                   20274759.5704
 -11244538.41448  -8740013.06646  22071536.7974                   22071534.2894
 11  8 10 19 37 30.0000000  0  8G17G24G07G26G11G19G08G28
  -4439248.03147  -3422858.07045  22506478.8204                   22506479.0864
  -7367793.89147  -5713888.09845  22221354.8984                   22221355.8444
  -5509844.98848  -4272411.74246  20680321.5704                   20680319.4534
   1539193.80547   1232212.84444  23061174.8984                   23061174.0164
 -14036808.88348 -10903391.75845  21720632.1884                   21720630.3754
  19638493.77346  15314027.62143  24674479.1334                   24674477.3284
 -17460542.78548 -13583800.62146  20259396.0784                   20259394.6374
 -11323706.38748  -8801702.38346  22056471.5084                   22056469.1414
 11  8 10 19 38  0.0000000  0  8G17G24G07G26G11G19G08G28
  -4571246.07447  -3525713.58645  22481360.7194                   22481360.4344
  -7454189.54747  -5781209.34045  22204914.7814                   22204915.3554
  -5529258.29748  -4287539.02746  20676627.2034                   20676625.2704
   1449230.33247   1162111.46144  23044055.2114                   23044054.4024
 -14075763.14548 -10933745.73845  21713219.5944                   21713217.7344
  19689397.67646  15353692.91843  24684165.4144                   24684164.1414
 -17540830.98848 -13646362.85546  20244117.6954                   20244116.2384
 -11402837.59448  -8863363.05146  22041413.5084                   22041410.7584
 11  8 10 19 38 30.0000000  0  8G17G24G07G26G11G19G08G28
  -4702942.44947  -3628334.04745  22456299.4534                   22456298.9614
  -7540117.56647  -5848166.18045  22188563.0704                   22188563.7194
  -5548203.73848  -4302301.74246  20673021.7274                   20673019.9144
   1359843.57447   1092459.45344  23027045.0704                   23027044.3164
 -14114154.28548 -10963660.90645  21705913.7734                   21705912.3914
  19740316.37546  15393369.77743  24693855.1094                   24693853.1094
 -17620672.41848 -13708576.96146  20228924.1174                   20228922.5594
 -11481942.89148  -8925003.51246  22026359.9384                   22026357.8554
 11  8 10 19 39  0.0000000  0  8G17G24G07G26G11G19G08G28
  -4834313.57047  -3730701.05545  22431299.9384                   22431300.0664
  -7625553.64547  -5914739.71145  22172304.7734                   22172305.4344
  -5566659.21548  -4316682.66446  20669509.6644                   20669508.2154
   1271056.53947   1023274.73844  23010149.3834                   23010148.8714
 -14151960.43748 -10993120.23045  21698719.4694                   21698717.7664
  19791269.77746  15433073.64143  24703551.7974                   24703549.8284
 -17700042.53548 -13770423.80946  20213820.7034                   20213818.9534
 -11561000.59848  -8986606.90246  22011316.1644                   22011313.6914
 11  8 10 19 39 30.0000000  0  8G17G24G07G26G11G19G08G28
  -4965377.46148  -3832828.68045  22406359.7974                   22406359.1524
  -7710514.70747  -5980943.08645  22156137.4924                   22156138.2234
  -5584643.42248  -4330696.38746  20666087.6484                   20666086.0824
   1182851.16047    954543.26244  22993364.8134                   22993364.0124
 -14189200.09048 -11022138.12945  21691633.1884                   21691631.3984
  19842236.65246  15472788.08643  24713250.5004                   24713248.5044
 -17778958.08248 -13831916.43446  20198803.5554                   20198802.2734
 -11640029.88748  -9048188.14546  21996277.2424                   21996274.9734
 11  8 10 19 40  0.0000000  0  8G17G24G07G26G11G19G08G28
  -5096138.68748  -3934720.44545  22381476.5634                   22381475.7424
  -7795004.58247  -6046779.29745  22140058.8984                   22140059.6094
  -5602162.29748  -4344347.49646  20662753.7664                   20662752.2274
   1095222.40647    886261.15244  22976689.3984                   22976689.3594
 -14225879.32048 -11050719.34445  21684653.5314                   21684651.5164
  19893209.64846  15512507.24643  24722950.5784                   24722947.9104
 -17857423.01248 -13893057.94146  20183872.2344                   20183871.0044
 -11719036.72348  -9109751.88746  21981242.4614                   21981240.5984
 11  8 10 19 40 30.0000000  0  8G17G24G07G26G11G19G08G28
  -5226591.68748  -4036372.05145  22356652.1804                   22356651.0984
  -7879017.10547  -6112243.55545  22124072.9454                   22124072.5944
  -5619211.45348  -4357632.58246  20659509.3984                   20659508.1214
   1008175.29747    818432.25044  22960125.0864                   22960124.5514
 -14261994.15648 -11078860.77045  21677780.8754                   21677779.1174
  19944190.40646  15552232.52043  24732651.5784                   24732648.9774
 -17935431.00848 -13953843.39546  20169027.7274                   20169026.0824
 -11798017.18448  -9171295.07046  21966213.0234                   21966210.9774
 11  8 10 19 41  0.0000000  0  8G17G24G07G26G11G19G08G28
  -5356748.42648  -4137792.80145  22331884.1644                   22331883.1094
  -7962563.35947  -6177344.50045  22108174.1564                   22108174.2544
  -5635804.04748  -4370561.90246  20656351.9384                   20656350.4454
    921697.90247    751047.28144  22943669.0234                   22943668.8054
 -14297557.94548 -11106572.81245  21671013.2424                   21671011.5664
  19995163.92646  15591952.11343  24742351.0554                   24742350.3954
 -18012992.59048 -14014280.99246  20154268.3594                   20154266.7934
 -11876984.43747  -9232827.97745  21951185.7814                   21951183.6094
 11  8 10 19 41 30.0000000  0  8G17G24G07G26G11G19G08G28
  -5486598.75048  -4238974.77745  22307174.2274                   22307173.3674
  -8045632.30547  -6242073.49245  22092366.0234                   22092367.0704
  -5651930.71148  -4383128.16846  20653283.4924                   20653281.8164
    835800.11747    684113.93444  22927323.2894                   22927323.3364
 -14332562.04748 -11133848.73845  21664352.6564                   21664350.3954
  20046137.39546  15631671.64543  24752051.9224                   24752050.1254
 -18090096.35948 -14074361.85246  20139596.0704                   20139594.6334
 -11955929.85248  -9294343.87146  21936163.4224                   21936161.2114
 11  8 10 19 42  0.0000000  0  8G17G24G07G26G11G19G08G28
  -5616137.71148  -4339914.15645  22282523.7274                   22282522.5354
  -8128218.57047  -6306426.38345  22076650.9384                   22076651.1844
  -5667588.22348  -4395328.86346  20650303.8984                   20650302.0274
    750486.15247    617635.54344  22911088.5704                   22911088.7814
 -14367002.89548 -11160685.75845  21657798.5084                   21657796.4344
  20097111.87547  15671391.96143  24761751.5554                   24761750.2974
 -18166737.14148 -14134081.94946  20125011.9774                   20125010.3714
 -12034850.07048  -9355840.12546  21921145.1174                   21921142.8164
 11  8 10 19 42 30.0000000  0  8G17G24G07G26G11G19G08G28
  -5745364.69148  -4440610.43445  22257932.2974                   22257931.6914
  -8210320.23447  -6370401.64145  22061027.8444                   22061027.3794
  -5682776.77048  -4407164.12546  20647413.7664                   20647411.6994
    665756.33247    551612.32444  22894965.5164                   22894964.5554
 -14400881.18448 -11187084.43445  21651352.0234                   21651350.0394
  20148085.28947  15711111.50043  24771452.0634                   24771450.1724
 -18242913.04748 -14193439.81646  20110516.0784                   20110514.5164
 -12113745.74248  -9417317.26646  21906132.4144                   21906129.8914
 11  8 10 19 43  0.0000000  0  8G17G24G07G26G11G19G08G28
  -5874288.31248  -4541070.32445  22233399.0784                   22233398.6914
  -8291945.27347  -6434005.51245  22045494.5634                   22045494.7194
  -5697506.11748  -4418641.57046  20644610.8364                   20644608.8054
    581601.59447    486037.23044  22878950.9694                   22878951.1094
 -14434206.92248 -11213052.54345  21645010.0314                   21645008.3834
  20199045.60246  15750820.79343  24781148.7664                   24781147.2504
 -18318632.02348 -14252441.62546  20096107.2894                   20096105.4774
 -12192626.58648  -9478782.84846  21891121.4144                   21891119.4264
 11  8 10 19 43 30.0000000  0  8G17G24G07G26G11G19G08G28
  -6002899.30548  -4641286.65245  22208925.4454                   22208924.5044
  -8373083.42247  -6497230.00845  22030054.6644                   22030054.8284
  -5711768.10248  -4429754.84046  20641896.8284                   20641894.8554
    498031.07847    420917.36344  22863048.2274                   22863047.9534
 -14466972.45748 -11238584.13345  21638775.0394                   21638773.6294
  20249999.14546  15790524.80943  24790844.4384                   24790843.0004
 -18393883.56648 -14311079.19946  20081787.2194                   20081785.6804
 -12271484.78548  -9540230.80146  21876115.1884                   21876112.6484
 11  8 10 19 44  0.0000000  0  8G17G24G07G26G11G19G08G28
  -6131195.09848  -4741257.34045  22184511.2974                   22184510.8524
  -8453731.48847  -6560072.60545  22014707.2894                   22014707.8554
  -5725561.66448  -4440503.09846  20639272.1484                   20639270.2304
    415046.82447    356254.33244  22847256.5864                   22847255.9614
 -14499176.68048 -11263678.33245  21632646.8984                   21632644.6994
  20300945.29746  15830223.09043  24800540.4694                   24800537.4264
 -18468664.69948 -14369350.22346  20067556.8134                   20067555.3134
 -12350318.85548  -9601659.94146  21861113.3284                   21861111.2234
 11  8 10 19 44 30.0000000  0  7G17G24G07G26G11G08G28
  -6259173.17248  -4840980.42645  22160157.9694                   22160157.2584
  -8533886.22747  -6622530.79745  21999454.4924                   21999454.7544
  -5738885.22748  -4450885.13346  20636736.6414                   20636734.8094
    332650.89847    292049.73844  22831576.9844                   22831576.7344
 -14530818.38348 -11288334.21145  21626625.4774                   21626623.0084
 -18542971.53148 -14427251.65646  20053416.2894                   20053414.9144
 -12429127.55148  -9663069.30946  21846116.7664                   21846114.6604
 11  8 10 19 45  0.0000000  0  7G17G24G07G26G11G08G28
  -6386849.46148  -4940468.38346  22135861.9774                   22135861.5004
  -8613562.98847  -6684616.54345  21984292.6024                   21984293.0664
  -5751756.07848  -4460914.39546  20634287.6644                   20634285.4774
    250826.79347    228290.70344  22816006.2034                   22816005.9264
 -14561915.43048 -11312565.69145  21620708.1334                   21620705.9614
 -18616818.92648 -14484795.08646  20039364.1644                   20039362.4024
 -12507928.60248  -9724472.71146  21831121.3674                   21831118.9614
 11  8 10 19 45 30.0000000  0  7G17G24G07G26G11G08G28
  -6514208.91048  -5039709.44145  22111626.2344                   22111625.5124
  -8692745.97347  -6746317.52045  21969224.7194                   21969224.6334
  -5764160.10948  -4470579.90246  20631927.1254                   20631925.2934
    169589.02747    164988.56344  22800547.5474                   22800547.4844
 -14592454.02748 -11336362.00445  21614896.6484                   21614894.6914
 -18690191.13748 -14541968.24246  20025402.0634                   20025400.4104
 -12586707.90648  -9785859.17646  21816130.1254                   21816127.5274
 11  8 10 19 46  0.0000000  0  7G17G24G07G26G11G08G28
  -6641246.31648  -5138699.55545  22087451.4454                   22087451.3954
  -8771429.30948  -6807629.17645  21954251.5864                   21954251.7974
  -5776093.75048  -4479878.86746  20629656.1094                   20629654.3954
     88942.55547    102147.16044  22785201.1804                   22785200.0124
 -14622430.55148 -11359720.34045  21609192.5474                   21609190.0744
 -18763082.36748 -14598766.60546  20011531.0314                   20011529.7074
 -12665461.10548  -9847225.28946  21801144.0234                   21801140.9774
 11  8 10 19 46 30.0000000  0  7G17G24G07G26G11G08G28
  -6767969.41848  -5237444.77345  22063336.9924                   22063336.4454
  -8849619.80548  -6868556.80145  21939372.5554                   21939372.6024
  -5787565.71948  -4488818.07046  20627473.3914                   20627470.9964
      8879.05147     39760.01244  22769965.0784                   22769965.1804
 -14651854.23048 -11382647.88345  21603592.7584                   21603591.1564
 -18835498.73048 -14655194.93746  19997750.8134                   19997749.2774
 -12744197.44548  -9908578.25046  21786160.9064                   21786158.3754
 11  8 10 19 47  0.0000000  0  7G17G24G07G26G11G08G28
  -6894370.32448  -5335938.91845  22039283.5784                   22039283.4534
  -8927308.89847  -6929093.72745  21924588.9064                   21924587.9804
  -5798569.32448  -4497392.33646  20625379.0634                   20625377.0164
    -70593.96547    -22167.00844  22754842.7664                   22754842.1334
 -14680718.61748 -11405139.60945  21598100.6414                   21598098.4184
 -18907431.49248 -14711246.44546  19984062.3204                   19984060.6054
 -12822909.99648  -9969912.69145  21771182.2664                   21771179.9454
 11  8 10 19 47 30.0000000  0  7G17G24G07G26G11G08G28
  -7020445.30148  -5434179.09445  22015292.0554                   22015291.8094
  -9004492.54748  -6989236.78545  21909901.1174                   21909901.0124
  -5809102.09048  -4505599.72346  20623374.8134                   20623372.6954
   -149473.62547    -83631.66444  22739831.4924                   22739831.4454
 -14709021.84848 -11427194.09445  21592714.5784                   21592711.9844
 -18978876.37148 -14766917.78546  19970467.2734                   19970464.9574
 -12901596.61348 -10031226.91845  21756208.4224                   21756206.2344
 11  8 10 19 48  0.0000000  0  7G17G24G07G26G11G08G28
  -7146214.12948  -5532180.71545  21991359.0704                   21991358.1054
  -9081189.55947  -7049000.65245  21895306.2114                   21895305.9064
  -5819185.27048  -4513456.78146  20621456.1254                   20621454.2034
   -227780.26647   -144649.80944  22724930.7584                   22724930.2774
 -14736785.20348 -11448827.88745  21587431.4774                   21587429.0904
 -19049852.30148 -14822223.71546  19956960.7894                   19956958.8204
 -12980278.13348 -10092537.17646  21741235.9534                   21741233.4924
 11  8 10 19 48 30.0000000  0  7G17G24G07G26G11G08G28
  -7271649.23448  -5629922.30146  21967490.0784                   21967489.2304
  -9157371.71148  -7108363.33245  21880809.1954                   21880809.0634
  -5828792.24248  -4520942.76646  20619628.1724                   20619625.8014
   -305486.61747   -205200.19544  22710144.1174                   22710143.0664
 -14763982.40248 -11470020.52045  21582256.0474                   21582254.0784
 -19120331.03548 -14877142.21146  19943549.2194                   19943547.5474
 -13058927.73448 -10153822.54746  21726269.7034                   21726267.0904
 11  8 10 19 49  0.0000000  0  7G17G24G07G26G11G08G28
  -7396746.18048  -5727400.38745  21943684.3984                   21943683.5394
  -9233034.10548  -7167321.00445  21866410.6414                   21866410.9384
  -5837920.09448  -4528055.41446  20617891.3284                   20617889.0704
   -382588.91447   -265279.87944  22695471.3674                   22695471.6054
 -14790610.80548 -11490769.92645  21577188.9224                   21577186.3984
 -19190307.16848 -14931669.08246  19930232.6174                   19930231.2384
 -13137542.21148 -10215080.55946  21711309.7034                   21711307.2114
 11  8 10 19 49 30.0000000  0  7G17G24G07G26G11G08G28
  -7521521.64148  -5824627.94946  21919940.5634                   21919939.1764
  -9308192.28547  -7225885.78945  21852108.6094                   21852108.5204
  -5846586.49648  -4534808.49246  20616242.1484                   20616240.3484
   -459104.41447   -324902.33244  22680910.2504                   22680911.0394
 -14816688.96548 -11511090.56645  21572226.1954                   21572223.8014
 -19259796.11748 -14985816.31646  19917009.4924                   19917007.7584
 -13216139.15248 -10276324.89846  21696353.2034                   21696351.0904
 11  8 10 19 50  0.0000000  0  7G17G24G07G26G11G08G28
  -7645996.84048  -5921621.55946  21896254.0554                   21896252.8244
  -9382866.78947  -7284073.68745  21837899.0004                   21837898.6334
  -5854814.06648  -4541219.62546  20614676.3984                   20614674.6764
   -535054.77747   -384084.39844  22666458.6094                   22666457.7194
 -14842239.27048 -11530999.92245  21567364.6024                   21567362.0704
 -19328818.14148 -15039599.71146  19903875.4614                   19903873.4534
 -13294740.87148 -10337572.96546  21681395.8524                   21681393.1454
 11  8 10 19 50 30.0000000  0  7G17G24G07G26G11G08G28
  -7770158.72748  -6018371.03946  21872626.4694                   21872625.7304
  -9457043.88747  -7341874.00045  21823783.1724                   21823783.7344
  -5862590.53948  -4547279.24646  20613196.5864                   20613194.7194
   -610427.55947   -442816.42644  22652114.3754                   22652115.0864
 -14867250.26248 -11550489.01245  21562604.5004                   21562602.9734
 -19397359.18048 -15093008.31246  19890832.2344                   19890830.6094
 -13373335.29348 -10398815.34046  21666439.7974                   21666437.0434
 11  8 10 19 51  0.0000000  0  7G17G24G07G26G11G08G28
  -6318596.16847  -4887283.27046  22148849.7274                   22148849.1764
  -7955313.75048  -6171694.65245  22109552.7974                   22109553.3014
  -4294510.59848  -3325398.81646  20911592.1414                   20911590.2234
    890186.00847    726492.85244  22937671.8834                   22937672.3164
 -13316316.04348 -10341968.87145  21857737.6484                   21857735.5664
 -17890009.32048 -13918449.98846  20177671.2894                   20177669.5864
 -11876513.87948  -9232460.96946  21951275.3834                   21951273.0984
 11  8 10 19 51 30.0000000  0  7G17G24G07G26G11G08G28
  -6442144.19148  -4983554.41046  22125338.8444                   22125338.2154
  -8028507.82048  -6228728.97345  22095624.3674                   22095624.6484
  -4301402.99248  -3330769.56246  20910280.5164                   20910278.9494
    815953.12147    668649.06344  22923546.1484                   22923546.2384
 -13340266.96948 -10360631.94945  21853180.1174                   21853178.1954
 -17957599.09448 -13971117.35246  20164809.8134                   20164807.8524
 -11955110.00448  -9293704.68446  21936318.9924                   21936316.7424
 11  8 10 19 52  0.0000000  0  7G17G24G07G26G11G08G28
  -6565390.52747  -5079590.45346  22101885.7814                   22101885.6724
  -8101214.57848  -6285383.57845  22081788.9224                   22081789.3524
  -4307860.02348  -3335801.05146  20909051.9064                   20909050.5664
    742284.06647    611244.60544  22909527.6804                   22909527.3674
 -13363695.09048 -10378887.63745  21848721.8984                   21848719.9224
 -18024716.71148 -14023416.79346  20152037.2344                   20152036.0274
 -12033713.31248  -9354953.98846  21921361.3524                   21921358.5944
 11  8 10 19 52 30.0000000  0  7G17G24G07G26G11G08G28
  -6688324.61347  -5175383.19146  22078492.0314                   22078491.3404
  -8173422.89848  -6341649.79745  22068048.0004                   22068047.9734
  -4313872.96548  -3340486.50846  20907907.3754                   20907906.2194
    669188.81347    554287.26244  22895617.3364                   22895616.9574
 -13386592.19548 -10396729.55945  21844364.5474                   21844362.4614
 -18091351.34848 -14075339.88346  20139357.4694                   20139356.2074
 -12112314.35248  -9416201.52346  21906404.1414                   21906401.9804
 11  8 10 19 53  0.0000000  0  7G17G24G07G26G11G08G28
  -6810955.41847  -5270939.60246  22055156.8364                   22055155.6524
  -8245140.98448  -6397534.00845  22054400.6414                   22054400.5204
  -4319451.55548  -3344833.48046  20906846.3524                   20906844.5394
    596657.72347    497769.53144  22881815.8444                   22881815.6914
 -13408968.36347 -10414165.52045  21840106.6174                   21840104.5274
 -18157510.67248 -14126892.60246  20126767.7274                   20126765.7384
 -12190923.32848  -9477455.23046  21891445.2114                   21891442.8754
 11  8 10 19 53 30.0000000  0  7G17G24G07G26G11G08G28
  -6933280.50447  -5366257.81646  22031878.7034                   22031877.7774
  -8316366.12148  -6453034.12145  22040846.7664                   22040847.1604
  -4324595.18748  -3348841.56646  20905867.2034                   20905865.4534
    524692.30947    441692.56644  22868121.0554                   22868120.8324
 -13430823.15647 -10431195.25045  21835947.7584                   21835945.7034
 -18223191.59848 -14178072.55946  20114268.8284                   20114267.3674
 -12269538.15648  -9538713.53946  21876485.1954                   21876482.3984
 11  8 10 19 54  0.0000000  0  7G17G24G07G26G11G08G28
  -7055286.61747  -5461327.45746  22008661.8134                   22008661.0314
  -8387084.19948  -6508139.09045  22027389.4304                   22027390.1764
  -4329291.44948  -3352501.03146  20904973.9304                   20904971.8484
    453305.21147    386066.25044  22854536.1954                   22854535.9264
 -13452144.88347 -10447809.57045  21831890.5864                   21831888.6054
 -18288379.97348 -14228868.69546  20101863.7114                   20101862.4774
 -12348146.36348  -9599966.67246  21861526.3524                   21861523.8674
 11  8 10 19 54 30.0000000  0  7G17G24G07G26G11G08G28
  -7177000.48847  -5556169.39146  21985500.7034                   21985499.3634
  -8457321.46147  -6562869.40245  22014023.4454                   22014023.9654
  -4333568.55148  -3355833.87946  20904159.9144                   20904158.4884
    382468.91447    330869.11744  22841056.8984                   22841056.9414
 -13472962.06647 -10464030.75045  21827928.8834                   21827927.3484
 -18353102.02048 -14279301.46546  20089547.7194                   20089546.2194
 -12426776.09848  -9661236.58246  21846564.2194                   21846561.0824
 11  8 10 19 55  0.0000000  0  7G17G24G07G26G11G08G28
  -7298403.10947  -5650768.77346  21962398.0944                   21962396.7624
  -8527058.40647  -6617209.87145  22000753.3674                   22000753.6414
  -4337408.68748  -3358826.24246  20903429.5004                   20903427.4104
    312201.69547    276115.44544  22827686.0704                   22827684.8244
 -13493257.36348 -10479845.26645  21824067.1024                   21824064.9804
 -18417337.41048 -14329355.02346  20077324.5084                   20077322.7034
 -12505408.85948  -9722508.84446  21831600.4224                   21831598.3324
 11  8 10 19 55 30.0000000  0  7G17G24G07G26G11G08G28
  -7419504.46548  -5745133.42246  21939353.6254                   21939352.0204
  -8596304.60248  -6671167.93445  21987575.7664                   21987576.0664
  -4340823.68048  -3361487.31246  20902779.4694                   20902777.5124
    242492.63747    221796.71944  22814420.5394                   22814419.7734
 -13513042.84048 -10495262.52045  21820301.8204                   21820299.9454
 -18481095.80148 -14379036.89846  20065191.6724                   20065189.5824
 -12584055.62548  -9783792.02746  21816634.3914                   21816632.0124
 11  8 10 19 56  0.0000000  0  7G17G24G07G26G11G08G28
  -7540322.50447  -5839277.28146  21916362.1024                   21916361.1134
  -8665077.52048  -6724757.20745  21974489.0634                   21974489.4654
  -4343832.60948  -3363831.97346  20902206.8984                   20902205.2464
    173322.92247    167898.24244  22801257.7034                   22801257.7704
 -13532337.94148 -10510297.65645  21816630.1334                   21816628.3094
 -18544394.24248 -14428360.37146  20053146.3284                   20053144.5784
 -12662735.37148  -9845100.90246  21801662.3054                   21801659.6884
 11  8 10 19 56 30.0000000  0  7G17G24G07G26G11G08G28
  -7660843.13347  -5933189.41045  21893428.0084                   21893427.1914
  -8733362.03548  -6777965.89145  21961495.1254                   21961495.3554
  -4346422.21948  -3365849.89846  20901714.0474                   20901712.1954
    104706.44947    114430.85944  22788199.8834                   22788200.1294
 -13551130.25848 -10524941.02045  21813054.0634                   21813051.9184
 -18607217.14148 -14477313.28946  20041191.3674                   20041189.3674
 -12741433.59448  -9906424.17646  21786686.6884                   21786683.8914
 11  8 10 19 57  0.0000000  0  7G17G24G07G26G11G08G28
  -7781058.94947  -6026864.02046  21870551.3444                   21870550.2974
  -8801150.55948  -6830788.10545  21948595.1414                   21948595.4184
  -4348587.16848  -3367536.90246  20901302.1334                   20901300.8404
     36649.48847     61399.48844  22775249.3054                   22775249.0634
 -13569414.23448 -10539188.27045  21809574.8524                   21809572.6024
 -18669556.68748 -14525889.56646  20029328.6954                   20029327.0594
 -12820144.60948  -9967757.42646  21771708.5554                   21771706.0474
 11  8 10 19 57 30.0000000  0  7G17G24G07G26G11G08G28
  -7900983.21147  -6120311.44146  21847730.9454                   21847729.5274
  -8868455.82048  -6883233.73445  21935787.5164                   21935787.5394
  -4350341.75448  -3368904.16846  20900968.4454                   20900966.9304
    -30862.13747      8793.02744  22762402.2584                   22762402.3594
 -13587204.60548 -10553050.89545  21806188.9694                   21806186.9614
 -18731425.28548 -14574098.87946  20017555.3134                   20017553.9884
 -12898882.07448 -10029111.27346  21756725.0784                   21756722.5124
 11  8 10 19 58  0.0000000  0  7G17G24G07G26G11G08G28
  -8020604.48047  -6213522.75846  21824967.6484                   21824966.7234
  -8935266.14848  -6935293.71545  21923074.4774                   21923074.3984
  -4351676.04348  -3369943.90246  20900714.9614                   20900712.7504
    -97818.01247    -43380.36744  22749661.1954                   22749661.4414
 -13604492.27348 -10566521.80545  21802899.5234                   21802897.5004
 -18792810.73848 -14621931.71946  20005874.1174                   20005872.6454
 -12977635.44148 -10090477.52746  21741738.7974                   21741736.0904
 11  8 10 19 58 30.0000000  0  7G17G24G07G26G11G08G28
  -8139918.97348  -6306495.03946  21802262.5164                   21802261.3714
  -9001577.13748  -6986964.60545  21910455.4304                   21910455.3134
  -4352587.40248  -3370654.10246  20900541.0704                   20900539.7074
   -164214.82847    -95118.12144  22737026.0784                   22737026.0314
 -13621275.02748 -10579599.28545  21799705.9614                   21799704.0124
 -18853708.35248 -14669384.42246  19994285.7974                   19994284.0634
 -13056401.39848 -10151853.57846  21726750.3984                   21726747.2274
 11  8 10 19 59  0.0000000  0  7G17G24G07G26G11G08G28
  -8258921.77047  -6399224.43446  21779617.3524                   21779615.5784
  -9067383.32048  -7038242.12945  21897932.8054                   21897932.5944
  -4353072.16448  -3371031.87546  20900448.3914                   20900447.0944
   -230048.87947   -146417.39544  22724498.4534                   22724498.6294
 -13637549.76647 -10592280.89845  21796608.5864                   21796606.9144
 -18914112.01248 -14716452.22346  19982791.3984                   19982790.0044
 -13135176.00448 -10213236.36346  21711759.8674                   21711756.9024
 11  8 10 19 59 30.0000000  0  7G17G24G07G26G11G08G28
  -8377599.30147  -6491700.37946  21757033.5164                   21757031.9024
  -9132670.84048  -7089115.50045  21885509.0474                   21885508.8914
  -4353119.05548  -3371068.45746  20900439.8444                   20900438.4654
   -295307.69947   -197268.41044  22712080.4534                   22712079.9574
 -13653305.18047 -10604557.85945  21793610.5164                   21793608.6524
 -18974008.46548 -14763124.79746  19971393.2424                   19971392.1804
 -13213946.25448 -10274615.76646  21696770.1724                   21696767.4064
 11  8 10 20  0  0.0000000  0  7G17G24G07G26G11G08G28
  -8495961.53548  -6583930.62946  21734510.1094                   21734508.5704
  -9197448.83248  -7139591.84445  21873182.2664                   21873182.0434
  -4352738.37148  -3370771.85946  20900512.2734                   20900510.7734
   -360001.64847   -247679.27344  22699769.1174                   22699769.0274
 -13668552.32448 -10616438.77045  21790709.6334                   21790707.2274
 -19033405.89548 -14809408.52346  19960090.4774                   19960089.2854
 -13292722.34448 -10335999.71946  21681779.6644                   21681776.9494
 11  8 10 20  0 30.0000000  0  7G17G24G07G26G11G08G28
  -8614001.25847  -6675909.59846  21712047.8444                   21712046.4924
  -9261709.72348  -7189665.25445  21860953.7664                   21860953.4654
  -4351924.58648  -3370137.77746  20900666.7974                   20900665.7854
   -424124.50447   -297645.12944  22687567.7344                   22687567.0354
 -13683285.93748 -10627919.52045  21787905.9144                   21787904.2974
 -19092296.69548 -14855297.48046  19948883.8284                   19948882.7664
 -13371497.55948 -10397382.98446  21666789.3834                   21666786.3524
 11  8 10 20  1  0.0000000  0  7G17G24G07G26G11G08G28
  -8731728.36348  -6767644.97346  21689645.1334                   21689643.7774
  -9325463.41848  -7239343.43745  21848821.6484                   21848821.9494
  -4350689.18748  -3369175.18046  20900902.2424                   20900900.8754
   -487687.24247   -347174.57044  22675472.0314                   22675470.9344
 -13697517.91448 -10639009.38345  21785197.0004                   21785195.0864
 -19150689.86748 -14900798.67646  19937772.1174                   19937770.6884
 -13450282.49648 -10458773.83646  21651796.9454                   21651794.1254
 11  8 10 20  1 30.0000000  0  7G17G24G07G26G11G08G28
  -8849143.16448  -6859136.98846  21667301.7584                   21667300.6844
  -9388709.71947  -7288626.27045  21836786.5164                   21836786.3554
  -4349033.98848  -3367885.46146  20901217.5314                   20901216.0664
   -550691.28947   -396268.62144  22663482.5314                   22663481.7544
 -13711250.38748 -10649710.01645  21782584.4304                   21782582.4264
 -19208585.18748 -14945911.92246  19926755.0084                   19926753.5904
 -13529078.15248 -10520173.03546  21636802.6804                   21636800.2734
 11  8 10 20  2  0.0000000  0  7G17G24G07G26G11G08G28
  -8966227.43048  -6950371.44146  21645021.1954                   21645019.9844
  -9451429.94548  -7337499.14845  21824850.8204                   21824851.0124
  -4346941.76648  -3366255.19946  20901615.3594                   20901614.4494
   -613118.91047   -444913.52744  22651603.1024                   22651602.1564
 -13724466.91448 -10660008.60545  21780069.6644                   21780067.3204
 -19265963.30548 -14990622.16446  19915836.1094                   19915834.8404
 -13607866.59448 -10581566.61746  21621809.7344                   21621807.3484
 11  8 10 20  2 30.0000000  0  7G17G24G07G26G11G08G28
  -9082987.06648  -7041352.93046  21622802.6094                   21622801.2584
  -9513629.72747  -7385966.52045  21813015.0554                   21813014.8524
  -4344420.09848  -3364290.29746  20902095.4614                   20902094.4224
   -674977.54347   -493115.05944  22639831.8984                   22639831.1804
 -13737175.32448 -10669911.26245  21777650.6024                   21777649.1454
 -19322829.83248 -15034933.76646  19905014.8444                   19905013.3134
 -13686654.71148 -10642959.95346  21606816.5634                   21606814.2544
 11  8 10 20  3  0.0000000  0  7G17G24G07G26G11G08G28
  -9199423.92648  -7132082.91446  21600645.3524                   21600644.0904
  -9575310.40647  -7434029.36745  21801277.4224                   21801277.6094
  -4341472.25048  -3361993.32046  20902656.6414                   20902654.8324
   -736269.86347   -540875.30944  22628168.0314                   22628167.6564
 -13749379.31648 -10679420.86345  21775328.6484                   21775326.8594
 -19379185.23448 -15078847.08246  19894290.8134                   19894289.7344
 -13765444.48848 -10704354.57846  21591823.5634                   21591821.3364
 11  8 10 20  3 30.0000000  0  7G17G24G07G26G11G08G28
  -9315535.83248  -7222559.67646  21578550.0554                   21578548.2154
  -9636469.49248  -7481685.78945  21789639.3364                   21789639.1174
  -4338097.57448  -3359363.74246  20903298.5314                   20903297.4384
   -796994.71947   -588193.38344  22616612.8054                   22616611.5084
 -13761078.95748 -10688537.47745  21773102.3834                   21773100.2814
 -19435026.92248 -15122360.09846  19883664.5554                   19883663.4024
 -13844234.22348 -10765749.17246  21576830.0394                   21576827.9734
 11  8 10 20  4  0.0000000  0  7G17G24G07G26G11G08G28
  -9431311.46547  -7312774.40246  21556518.2034                   21556517.2234
  -9697095.66447  -7528926.97345  21778102.5234                   21778102.4574
  -4334286.21948  -3356393.90246  20904024.2974                   20904022.7704
   -857141.94147   -635061.35944  22605166.8984                   22605166.0434
 -13772264.54348 -10697253.53145  21770973.9224                   21770971.8834
 -19490343.18748 -15165463.70346  19873138.4534                   19873137.0274
 -13923012.80948 -10827135.07846  21561839.1804                   21561836.8634
 11  8 10 20  4 30.0000000  0  7G17G24G07G26G11G08G28
  -9546752.64548  -7402728.54346  21534550.7114                   21534549.4924
  -9757190.08648  -7575753.77745  21766667.0084                   21766666.8164
  -4330041.22348  -3353086.16046  20904831.8754                   20904830.4734
   -916714.04747   -681481.19544  22593830.7504                   22593829.8484
 -13782939.87148 -10705571.97345  21768942.0864                   21768940.1414
 -19545134.93748 -15208158.59446  19862711.3674                   19862710.1334
 -14001782.59048 -10888514.12546  21546849.8984                   21546847.8954
 11  8 10 20  5  0.0000000  0  7G17G24G07G26G11G08G28
  -8086451.27347  -6264831.32846  21812436.8674                   21812435.4924
  -8241346.37947  -6394576.85945  22055121.9454                   22055122.1054
  -2749960.19548  -2121854.23446  21205511.4454                   21205510.0044
    599693.65247    500135.18844  22882393.4454                   22882392.5904
 -12217702.46547  -9485906.46145  22066797.0784                   22066794.5864
 -18023995.82448 -14022855.40246  20152174.9224                   20152173.3554
 -12505137.56648  -9722297.22346  21831651.6254                   21831649.4384
 11  8 10 20  5 30.0000000  0  7G17G24G07G26G11G08G28
  -8201259.99647  -6354292.62546  21790589.2344                   21790587.9384
  -8300412.58248  -6440602.46545  22043882.3914                   22043882.5664
  -2744888.64848  -2117902.42646  21206476.6484                   21206475.0274
    541231.99647    454580.64144  22871268.5634                   22871268.2344
 -12227398.98448  -9493462.19545  22064951.9384                   22064950.0124
 -18077772.44548 -14064759.28546  20141941.5634                   20141940.1644
 -12583927.39548  -9783691.89146  21816658.8444                   21816656.4694
 11  8 10 20  6  0.0000000  0  7G17G24G07G26G11G08G28
  -8315750.17248  -6443505.70746  21768802.0864                   21768801.3634
  -8358962.07848  -6486225.44945  22032740.7504                   22032740.8364
  -2739403.58648  -2113628.39846  21207520.4614                   21207518.8244
    483326.20347    409459.23044  22860249.2814                   22860249.2344
 -12236606.57447  -9500636.95745  22063199.5084                   22063197.6174
 -18131037.80148 -14106264.77746  20131805.4614                   20131804.3204
 -12662725.05148  -9845092.65646  21801664.1024                   21801661.5984
 11  8 10 20  6 30.0000000  0  7G17G24G07G26G11G08G28
  -8429905.04348  -6532457.51646  21747079.7974                   21747078.8524
  -8416977.90647  -6531432.57045  22021700.9844                   22021701.0164
  -2733490.22748  -2109020.62946  21208645.7504                   21208644.2274
    425991.86347    364783.10944  22849338.9924                   22849337.8754
 -12245310.71948  -9507419.43745  22061543.3204                   22061541.5514
 -18183775.22348 -14147358.87546  20121769.9224                   20121768.5004
 -12741514.58248  -9906487.09446  21786670.9694                   21786668.3324
 11  8 10 20  7  0.0000000  0  7G17G24G07G26G11G08G28
  -8543728.13347  -6621150.78946  21725419.5784                   21725418.5354
  -8474462.89847  -6576226.03945  22010761.4694                   22010761.3754
  -2727152.85948  -2104082.46946  21209851.3134                   21209850.0554
    369224.58247    320548.84044  22838536.4844                   22838536.1414
 -12253516.81248  -9513813.80145  22059981.3524                   22059979.8094
 -18235987.04348 -14188043.43046  20111834.5394                   20111833.1094
 -12820299.28548  -9967877.77046  21771678.7034                   21771676.3524
 11  8 10 20  7 30.0000000  0  7G17G24G07G26G11G08G28
  -8657228.73448  -6709592.77746  21703821.2274                   21703820.1564
  -8531426.78147  -6620613.47745  21999921.7974                   21999921.7544
  -2720402.97748  -2098822.87546  21211136.1094                   21211134.6844
    313013.16447    276747.71144  22827840.2424                   22827839.9224
 -12261236.28548  -9519828.98845  22058512.7504                   22058510.9924
 -18287682.23048 -14228325.41446  20101997.0394                   20101995.9924
 -12899089.35947 -10029272.62546  21756685.5704                   21756683.0234
 11  8 10 20  8  0.0000000  0  7G17G24G07G26G11G08G28
  -8770413.86747  -6797788.94146  21682282.9144                   21682281.7424
  -8587876.12147  -6664599.96545  21989180.0554                   21989180.0044
  -2713248.61747  -2093248.10246  21212497.7034                   21212496.0394
    257349.80547    233373.66044  22817247.6254                   22817246.9694
 -12268477.83248  -9525471.75445  22057134.6804                   22057132.8014
 -18338867.28548 -14268209.89146  20092257.0864                   20092255.6374
 -12977891.94548 -10090677.23046  21741689.6484                   21741687.4024
 11  8 10 20  8 30.0000000  0  7G17G24G07G26G11G08G28
  -8883279.76647  -6885736.35546  21660805.1804                   21660803.7974
  -8643806.52747  -6708182.06245  21978536.4924                   21978536.3324
  -2705687.55148  -2087356.40246  21213936.3524                   21213935.1454
    202237.80147    190429.22344  22806759.9454                   22806760.0634
 -12275239.29748  -9530740.43445  22055848.1954                   22055845.9144
 -18389537.12948 -14307692.90246  20082615.0634                   20082613.6804
 -13056703.20748 -10152088.59046  21726692.1174                   21726690.2344
 11  8 10 20  9  0.0000000  0  7G17G24G07G26G11G08G28
  -8995820.77047  -6973430.60546  21639389.0704                   21639387.5634
  -8699212.42647  -6751355.47745  21967993.1564                   21967992.9494
  -2697715.79748  -2081144.70746  21215453.5864                   21215452.4304
    147681.00047    147917.41444  22796378.1564                   22796378.2344
 -12281517.76648  -9535632.76645  22054653.3204                   22054651.5044
 -18439686.09848 -14346770.03146  20073071.5554                   20073070.2974
 -13135517.71148 -10213502.48046  21711694.5554                   21711691.9884
 11  8 10 20  9 30.0000000  0  7G17G24G07G26G11G08G28
  -9108045.08647  -7060878.09046  21618033.6334                   21618032.3404
  -8754101.65647  -6794126.29745  21957548.1954                   21957547.5354
  -2689342.75448  -2074620.32046  21217046.7274                   21217045.6724
     93670.10947    105830.98444  22786100.4844                   22786099.6524
 -12287322.89848  -9540156.24645  22053548.5784                   22053546.6684
 -18489321.40648 -14385446.91446  20063626.4694                   20063624.8954
 -13214343.73848 -10274925.34846  21696694.6174                   21696691.7704
 11  8 10 20 10  0.0000000  0  7G17G24G07G26G11G08G28
  -9219942.41847  -7148070.78546  21596740.3444                   21596738.9384
  -8808463.56247  -6836486.20345  21947203.5704                   21947203.7074
  -2680559.34448  -2067776.15646  21218718.2274                   21218717.1764
     40214.40247     64177.18844  22775928.0554                   22775927.9104
 -12292646.21548  -9544304.28945  22052535.4774                   22052533.3634
 -18538432.08248 -14423714.98846  20054280.8444                   20054279.6414
 -13293171.16847 -10336349.31246  21681694.2274                   21681691.8134
 11  8 10 20 10 30.0000000  0  7G17G24G07G26G11G08G28
  -9331520.48447  -7235014.70746  21575507.8204                   21575506.3834
  -8862305.80547  -6878441.18745  21936957.3594                   21936957.4884
  -2671375.06247  -2060619.62946  21220466.0554                   21220464.9224
    -12694.96947     22949.08244  22765860.3444                   22765859.5164
 -12297497.47348  -9548084.49245  22051612.8284                   22051610.5124
 -18587025.36748 -14461579.90646  20045034.0084                   20045032.6214
 -13372007.84848 -10397780.50046  21666691.9454                   21666689.7274
 11  8 10 20 11  0.0000000  0  7G17G24G07G26G11G08G28
  -9442760.02347  -7321694.84046  21554339.3674                   21554338.0664
  -8915609.37947  -6919976.40645  21926814.0784                   21926814.5204
  -2661772.48047  -2053137.15646  21222293.4144                   21222292.1914
    -65040.41047    -17839.61344  22755898.7974                   22755898.9454
 -12301859.58247  -9551483.54345  22050782.6954                   22050780.2974
 -18635081.45748 -14499026.22746  20035889.2424                   20035887.7504
 -13450834.67248 -10459203.98046  21651691.7734                   21651689.5004
 11  8 10 20 11 30.0000000  0  7G17G24G07G26G11G08G28
  -9553661.78948  -7408111.76646  21533235.7194                   21533234.2704
  -8968374.70347  -6961092.23045  21916773.6334                   21916773.2194
  -2651753.65247  -2045330.34846  21224199.8134                   21224198.4184
   -116823.82047    -58190.32444  22746045.3284                   22746044.4734
 -12305735.27348  -9554503.57445  22050045.2034                   22050043.0664
 -18682600.76648 -14536054.27746  20026846.6484                   20026845.3634
 -13529652.78547 -10520620.70346  21636692.9774                   21636690.8324
 11  8 10 20 12  0.0000000  0  7G17G24G07G26G11G08G28
  -9664241.33248  -7494277.60246  21512193.0784                   21512191.6564
  -9020617.00847  -7001800.48845  21906831.7664                   21906831.7194
  -2641335.52347  -2037212.38346  21226182.2274                   21226181.1214
   -168061.83247    -98116.06644  22736294.2194                   22736294.4694
 -12309141.92648  -9557158.10245  22049396.9924                   22049394.8714
 -18729597.56248 -14572675.17646  20017903.3754                   20017901.9264
 -13608477.35948 -10582042.44146  21621693.5164                   21621690.8324
 11  8 10 20 12 30.0000000  0  7G17G24G07G26G11G08G28
  -9774499.44548  -7580192.97746  21491211.3364                   21491209.7544
  -9072337.00447  -7042101.76245  21896990.0394                   21896990.1684
  -2630520.40647  -2028785.08246  21228240.3674                   21228239.4304
   -218756.75447   -137618.61744  22726648.0474                   22726647.1994
 -12312082.62147  -9559449.56645  22048836.9384                   22048834.9614
 -18776072.35948 -14608889.32046  20009059.6484                   20009058.4884
 -13687309.25048 -10643469.89146  21606692.0944                   21606689.6334
 11  8 10 20 13  0.0000000  0  7G17G24G07G26G11G08G28
  -9884425.10247  -7665849.30546  21470293.0164                   21470292.1644
  -9123523.44547  -7081987.26245  21887249.3754                   21887248.9534
  -2619298.59047  -2020040.87546  21230375.7814                   21230374.7704
   -268898.46147   -176690.09044  22717106.4694                   22717105.4804
 -12314547.90247  -9561370.58245  22048368.1254                   22048365.9024
 -18822013.49648 -14644687.62146  20000317.4774                   20000315.8754
 -13766137.38348 -10704894.41446  21591691.8284                   21591689.2274
 11  8 10 20 13 30.0000000  0  7G17G24G07G26G11G08G28
  -9994031.38348  -7751256.76246  21449435.8754                   21449434.6254
  -9174189.65647  -7121467.39845  21877608.0634                   21877607.6174
  -2607685.03948  -2010991.41846  21232586.2344                   21232584.5984
   -318501.72747   -215342.00845  22707666.8054                   22707666.4574
 -12316552.96948  -9562932.95745  22047986.4304                   22047984.2074
 -18867434.10948 -14680080.32846  19991673.8524                   19991672.7664
 -13844975.16848 -10766326.44946  21576689.3284                   21576686.7544
 11  8 10 20 14  0.0000000  0  7G17G24G07G26G11G08G28
 -10103317.42648  -7836414.68446  21428639.6884                   21428638.0904
  -9224334.57447  -7160541.34445  21868065.3284                   21868065.4694
  -2595680.26247  -2001637.10546  21234870.4534                   21234868.6844
   -367566.77747   -253574.53544  22698329.9694                   22698329.5704
 -12318099.28947  -9564137.88745  22047692.1724                   22047690.4844
 -18912332.59048 -14715066.19146  19983129.8364                   19983128.5554
 -13923821.39148 -10827765.05946  21561685.1644                   21561682.5514
 11  8 10 20 14 30.0000000  0  7G17G24G07G26G11G08G28
 -10212296.40248  -7921333.34446  21407901.2734                   21407900.0594
  -9273970.82848  -7199218.91445  21858619.9454                   21858619.6374
  -2583298.73848  -1991989.23446  21237226.3914                   21237225.3094
   -416107.89847   -291398.79744  22689093.1094                   22689092.8484
 -12319201.86348  -9564997.02745  22047482.7274                   22047480.2664
 -18956721.05548 -14749654.63346  19974683.4924                   19974681.9844
 -14002689.02748 -10889220.35246  21546678.0084                   21546675.0984
 11  8 10 20 15  0.0000000  0  7G17G24G07G26G11G08G28
 -10320946.95748  -8005996.07046  21387225.8914                   21387224.7074
  -9323077.24647  -7237483.62145  21849275.8054                   21849275.3834
  -2570520.98047  -1982032.60246  21239658.3674                   21239656.8554
   -464105.45747   -328799.50044  22679959.2814                   22679959.5314
 -12319841.28947  -9565495.27045  22047360.9384                   22047358.7464
 -19000577.68048 -14783828.65246  19966337.6724                   19966336.2194
 -14081556.89548 -10950675.84046  21531669.2194                   21531666.7974
 11  8 10 20 15 30.0000000  0  7G17G24G07G26G11G08G28
 -10429281.34848  -8090412.43446  21366610.5164                   21366609.3364
  -9371666.13747  -7275345.06645  21840029.0394                   21840028.7464
  -2557360.34847  -1971777.60946  21242162.8754                   21242161.5474
   -511572.81647   -365787.05544  22670927.0314                   22670926.4264
 -12320031.84047  -9565643.75045  22047323.9844                   22047321.5904
 -19043914.54348 -14817597.66846  19958091.0394                   19958089.5554
 -14160437.15647 -11012140.96946  21516658.9694                   21516656.3094
 11  8 10 20 16  0.0000000  0  7G17G24G07G26G11G08G28
 -10537269.41848  -8174558.94546  21346061.1484                   21346059.7894
  -9419707.06247  -7312779.53945  21830887.3754                   21830886.9574
  -2543788.41848  -1961202.13746  21244745.5784                   21244743.8484
   -558481.37547   -402339.19944  22662000.7894                   22661999.8444
 -12319745.32047  -9565420.50845  22047378.9224                   22047376.9614
 -19086701.00848 -14850937.79746  19949949.1414                   19949947.8834
 -14239299.43048 -11073592.09046  21501651.6564                   21501649.4104
 11  8 10 20 16 30.0000000  0  7G17G24G07G26G11G08G28
 -10644926.28948  -8258447.37946  21325574.5784                   21325573.4414
  -9467215.50447  -7349799.09045  21821846.8284                   21821846.7034
  -2529822.22347  -1950319.44146  21247403.1644                   21247401.3834
   -604847.49247   -438468.66444  22653177.2584                   22653176.4574
 -12318998.96947  -9564838.93445  22047521.2504                   22047519.2934
 -19128951.27048 -14883860.11346  19941908.9144                   19941907.5004
 -14318158.76248 -11135040.92246  21486645.3914                   21486643.0664
 11  8 10 20 17  0.0000000  0  7G17G24G07G26G11G08G28
 -10752265.05947  -8342087.93446  21305148.7584                   21305147.6484
  -9514204.39547  -7386413.78945  21812905.2424                   21812905.1134
  -2515475.99647  -1939140.62546  21250133.3834                   21250132.0084
   -650685.73047   -474186.80544  22644454.3364                   22644453.7734
 -12317807.85247  -9563910.81245  22047747.9144                   22047745.1884
 -19170678.41448 -14916374.80146  19933968.7194                   19933967.4534
 -14397027.80547 -11196497.32446  21471637.3364                   21471635.2774
 11  8 10 20 17 30.0000000  0  7G17G24G07G26G11G08G28
 -10859276.92647  -8425473.76246  21284785.0634                   21284783.4384
  -9560664.84847  -7422616.73445  21804064.1094                   21804063.7304
  -2500742.23848  -1927659.83646  21252937.3284                   21252935.8794
   -695988.28947   -509487.53144  22635833.7194                   22635832.5594
 -12316164.88747  -9562630.56645  22048059.7114                   22048058.1024
 -19211873.03948 -14948474.53146  19926129.8284                   19926128.3284
 -14475897.82847 -11257954.48046  21456628.4924                   21456626.2424
 11  8 10 20 18  0.0000000  0  7G17G24G07G26G11G08G28
 -10965960.21548  -8508603.56246  21264483.5704                   21264482.2114
  -9606595.31247  -7458406.69145  21795323.4144                   21795323.5514
  -2485621.37148  -1915877.40646  21255814.4924                   21255813.1764
   -740755.61747   -544371.18744  22627314.8594                   22627313.8524
 -12314070.74247  -9560998.77345  22048458.9774                   22048456.5084
 -19252533.35948 -14980157.93046  19918392.4694                   19918390.8714
 -14554766.74648 -11319410.77346  21441620.2274                   21441617.9694
 11  8 10 20 18 30.0000000  0  7G17G24G07G26G11G08G28
  -9496888.59048  -7363872.39146  21544038.7114                   21544037.6804
  -8076571.36747  -6266180.22745  22086477.6644                   22086477.0004
   -894692.15247   -676192.35946  21558558.4614                   21558557.1844
    790435.57447    648764.77344  22918690.9924                   22918690.3284
 -10736104.72347  -8331414.87145  22348735.6954                   22348733.9614
 -17717234.09848 -13783820.87146  20210550.0554                   20210548.8094
 -13058209.06248 -10153261.92646  21726405.9224                   21726403.6174
 11  8 10 20 19  0.0000000  0  7G17G24G07G26G11G08G28
  -9602903.24248  -7446481.16846  21523864.7424                   21523863.7384
  -8121430.14847  -6301135.10945  22077941.0084                   22077940.9804
   -878789.15248   -663800.46946  21561584.8834                   21561583.2774
    746746.84047    614721.57444  22910377.0944                   22910376.6914
 -10733102.75847  -8329075.69145  22349307.4454                   22349305.3054
 -17756811.68748 -13814660.58246  20203019.0634                   20203017.6604
 -13137063.62548 -10214707.03946  21711400.5704                   21711397.8594
 11  8 10 20 19 30.0000000  0  7G17G24G07G26G11G08G28
  -9708581.23047  -7528827.61346  21503754.6644                   21503753.5824
  -8165751.21147  -6335670.98045  22069506.6644                   22069506.6564
   -862495.98048   -651104.55546  21564685.0944                   21564683.7034
    703597.09447    581098.37144  22902165.7974                   22902165.2894
 -10729648.09047  -8326383.75045  22349963.9774                   22349962.2384
 -17795845.62548 -13845076.66046  20195590.8834                   20195589.3634
 -13215908.33648 -10276144.47346  21696396.4304                   21696393.9694
 11  8 10 20 20  0.0000000  0  7G17G24G07G26G11G08G28
  -9813943.03148  -7610927.69546  21483705.2274                   21483703.6884
  -8209554.44947  -6369803.35245  22061171.4384                   22061171.5234
   -845833.83248   -638121.12146  21567856.0784                   21567854.7304
    660965.02347    547878.54744  22894053.3134                   22894052.2894
 -10725762.47347  -8323356.01245  22350703.9064                   22350701.6484
 -17834355.48848 -13875084.37546  20188262.9224                   20188261.5984
 -13294763.23448 -10337589.84446  21681391.1254                   21681388.6134
 11  8 10 20 20 30.0000000  0  7G17G24G07G26G11G08G28
  -9918964.69548  -7692762.73046  21463720.5474                   21463719.1054
  -8252816.19947  -6403513.80945  22052939.4844                   22052938.9024
   -828780.19548   -624832.64146  21571101.2194                   21571100.2504
    618873.05547    515079.57044  22886043.5944                   22886043.1134
 -10721424.25047  -8319975.60545  22351529.6334                   22351527.4534
 -17872316.89848 -13904664.71146  20181039.2114                   20181037.6564
 -13373604.10548 -10399024.29346  21666388.6024                   21666385.6844
 11  8 10 20 21  0.0000000  0  7G17G24G07G26G11G08G28
 -10023660.96948  -7774344.20746  21443797.2974                   21443795.7894
  -8295551.49248  -6436814.02345  22044807.0004                   22044807.0784
   -811351.80548   -611252.12146  21574417.5784                   21574416.8484
    577304.54347    482688.48444  22878133.3754                   22878132.6024
 -10716650.30147  -8316255.66845  22352438.3524                   22352435.4654
 -17909744.45348 -13933829.06246  20173916.6094                   20173915.4384
 -13452445.35248 -10460459.02346  21651385.1024                   21651382.5514
 11  8 10 20 21 30.0000000  0  7G17G24G07G26G11G08G28
 -10128029.19947  -7855670.05946  21423936.6564                   21423935.3634
  -8337757.71147  -6469701.97345  22036775.3204                   22036775.1334
   -793547.21548   -597378.46946  21577805.9304                   21577804.8714
    536260.84447    450706.35544  22870322.7734                   22870322.7854
 -10711439.81647  -8312195.55545  22353429.1334                   22353427.4064
 -17946634.96548 -13962574.94146  20166896.8524                   20166895.2074
 -13531283.73448 -10521891.53546  21636382.6174                   21636380.4964
 11  8 10 20 22  0.0000000  0  7G17G24G07G26G11G08G28
 -10232067.46548  -7936738.80946  21404138.7424                   21404137.4774
  -8379432.80547  -6502176.05945  22028844.9384                   22028844.8054
   -775366.17248   -583211.48446  21581265.8524                   21581265.2304
    495742.28947    419133.41444  22862612.7504                   22862612.9844
 -10705793.24247  -8307795.63344  22354504.0474                   22354502.1254
 -17982986.26648 -13990900.64846  20159979.0084                   20159977.8984
 -13610117.04348 -10583320.08246  21621381.1564                   21621378.5204
 11  8 10 20 22 30.0000000  0  7G17G24G07G26G11G08G28
 -10335791.61348  -8017562.80146  21384401.0864                   21384399.1524
  -8420592.96547  -6534248.89845  22021012.5084                   22021012.0164
   -756826.33647   -568764.89846  21584793.5004                   21584792.5824
    455731.52747    387956.17644  22854999.0004                   22854998.3484
 -10699728.35547  -8303069.75445  22355658.4924                   22355655.9104
 -18018813.58248 -14018818.05546  20153161.5474                   20153160.3714
 -13688960.79748 -10644756.77046  21606377.7894                   21606375.0664
 11  8 10 20 23  0.0000000  0  7G17G24G07G26G11G08G28
 -10439189.82848  -8098132.81246  21364724.6414                   21364723.1644
  -8461226.20347  -6565911.13745  22013280.0474                   22013280.2274
   -737916.94148   -554030.37546  21588392.0004                   21588391.2814
    416239.14847    357182.86344  22847483.5394                   22847483.7704
 -10693234.88747  -8298009.93045  22356893.9454                   22356892.3794
 -18054104.60548 -14046317.57046  20146445.9144                   20146444.4104
 -13767802.49248 -10706191.85946  21591374.7274                   21591371.9844
 11  8 10 20 23 30.0000000  0  7G17G24G07G26G11G08G28
 -10542268.94148  -8178454.18746  21345109.1954                   21345107.8444
  -8501340.10947  -6597168.71145  22005646.9844                   22005646.3284
   -718646.75848   -539014.70346  21592058.9144                   21592058.3054
    377256.44947    326806.71544  22840065.4614                   22840065.2814
 -10686322.36347  -8292623.57445  22358209.4924                   22358207.3134
 -18088866.31248 -14073404.63346  20139831.0704                   20139829.5984
 -13846648.87948 -10767630.59846  21576370.8594                   21576368.1804
 11  8 10 20 24  0.0000000  0  7G17G24G07G26G11G08G28
 -10645019.38348  -8258519.43446  21325556.6024                   21325554.8674
  -8540924.62947  -6628013.76645  21998114.0944                   21998113.5514
   -699007.72748   -523711.60946  21595796.3134                   21595795.5124
    338791.44147    296833.94544  22832746.0554                   22832745.6954
 -10678983.03547  -8286904.62545  22359605.9384                   22359604.0594
 -18123088.59048 -14100071.35246  20133318.7424                   20133317.2114
 -13925489.31648 -10829064.69546  21561368.0864                   21561365.2734
 11  8 10 20 24 30.0000000  0  7G17G24G07G26G11G08G28
 -10747446.83248  -8338333.00046  21306065.2734                   21306063.6254
  -8579986.09047  -6658451.24645  21990681.4844                   21990680.7934
   -679007.27048   -508126.92246  21599602.3134                   21599601.3874
    300836.94947    267258.99244  22825523.6334                   22825523.2974
 -10671224.80947  -8280859.28144  22361081.4844                   22361080.1254
 -18156776.64848 -14126321.80546  20126908.0234                   20126907.2074
 -14004329.30148 -10890498.45346  21546364.9144                   21546362.5824
 11  8 10 20 25  0.0000000  0  7G17G24G07G26G11G08G28
 -10849543.39548  -8417888.74646  21286636.6724                   21286635.4774
  -8618516.80147  -6688475.16845  21983348.9224                   21983348.2034
   -658638.73047   -492255.39546  21603477.9844                   21603477.2344
    263399.15647    238086.65644  22818399.3284                   22818399.4024
 -10663041.80947  -8274482.93744  22362639.0084                   22362637.7274
 -18189923.16048 -14152150.27346  20120600.4924                   20120599.0354
 -14083160.56648 -10951925.42646  21531363.9774                   21531361.5004
 11  8 10 20 25 30.0000000  0  7G17G24G07G26G11G08G28
 -10951282.41048  -8497165.88346  21267276.4224                   21267274.9734
  -8656489.82047  -6718064.53545  21976122.5944                   21976122.3284
   -637876.95747   -476077.45346  21607429.0864                   21607428.2194
    226503.61747    209336.86744  22811378.4614                   22811378.3754
 -10654409.17647  -8267756.23844  22364281.8984                   22364279.6524
 -18222500.49248 -14177535.22346  20114401.2194                   20114399.7304
 -14161955.43748 -11013324.02746  21516369.8054                   21516367.1414
 11  8 10 20 26  0.0000000  0  7G17G24G07G26G11G08G28
 -11052703.15248  -8576195.00446  21247976.7974                   21247975.2424
  -8693945.00047  -6747250.36745  21968995.0394                   21968995.3324
   -616763.19947   -459625.25046  21611447.2504                   21611446.0904
    190109.10547    180977.48444  22804452.7814                   22804452.8364
 -10645368.32447  -8260711.43044  22366002.9844                   22366000.4344
 -18254547.85248 -14202507.21146  20108303.2584                   20108301.7304
 -14240752.70348 -11074724.49646  21501375.2274                   21501372.7384
